<?xml version="1.0" encoding="UTF-8" standalone="no" ?>
<gpx xmlns="http://www.topografix.com/GPX/1/1" xmlns:xsi="http://www.w3.org/2001/XMLSchema-instance" xsi:schemaLocation="http://www.topografix.com/GPX/1/1 http://www.topografix.com/GPX/1/1/gpx.xsd" version="1.1" creator="VisuGPX - https://www.visugpx.com">
  <metadata>
    <name>GTA32-La Bollène-Vésubie / Moulinet</name>
  </metadata>
  <trk>
    <name><![CDATA[GTA32-La Bollène-Vésubie / Moulinet]]></name>
    <trkseg>
      <trkpt lat="43.98472" lon="7.31987">
        <ele>534.63</ele>
        <time>2017-07-30T05:14:24Z</time>
      </trkpt>
      <trkpt lat="43.98471" lon="7.31991">
        <ele>535.11</ele>
        <time>2017-07-30T05:14:49Z</time>
      </trkpt>
      <trkpt lat="43.98465" lon="7.31998">
        <ele>535.59</ele>
        <time>2017-07-30T05:15:02Z</time>
      </trkpt>
      <trkpt lat="43.98459" lon="7.32012">
        <ele>537.03</ele>
        <time>2017-07-30T05:15:17Z</time>
      </trkpt>
      <trkpt lat="43.98452" lon="7.32024">
        <ele>538.48</ele>
        <time>2017-07-30T05:15:31Z</time>
      </trkpt>
      <trkpt lat="43.98448" lon="7.32012">
        <ele>539.92</ele>
        <time>2017-07-30T05:15:44Z</time>
      </trkpt>
      <trkpt lat="43.98449" lon="7.31999">
        <ele>541.36</ele>
        <time>2017-07-30T05:15:57Z</time>
      </trkpt>
      <trkpt lat="43.98444" lon="7.31991">
        <ele>542.8</ele>
        <time>2017-07-30T05:16:12Z</time>
      </trkpt>
      <trkpt lat="43.98441" lon="7.32005">
        <ele>543.76</ele>
        <time>2017-07-30T05:16:26Z</time>
      </trkpt>
      <trkpt lat="43.98439" lon="7.32022">
        <ele>545.2</ele>
        <time>2017-07-30T05:16:44Z</time>
      </trkpt>
      <trkpt lat="43.98436" lon="7.32037">
        <ele>547.13</ele>
        <time>2017-07-30T05:16:58Z</time>
      </trkpt>
      <trkpt lat="43.98434" lon="7.32038">
        <ele>547.61</ele>
        <time>2017-07-30T05:17:12Z</time>
      </trkpt>
      <trkpt lat="43.98431" lon="7.32046">
        <ele>549.05</ele>
        <time>2017-07-30T05:17:26Z</time>
      </trkpt>
      <trkpt lat="43.98423" lon="7.32054">
        <ele>549.53</ele>
        <time>2017-07-30T05:17:41Z</time>
      </trkpt>
      <trkpt lat="43.98422" lon="7.32055">
        <ele>550.97</ele>
        <time>2017-07-30T05:17:43Z</time>
      </trkpt>
      <trkpt lat="43.98414" lon="7.32059">
        <ele>552.9</ele>
        <time>2017-07-30T05:17:59Z</time>
      </trkpt>
      <trkpt lat="43.98411" lon="7.32059">
        <ele>553.38</ele>
        <time>2017-07-30T05:18:13Z</time>
      </trkpt>
      <trkpt lat="43.98407" lon="7.32071">
        <ele>554.82</ele>
        <time>2017-07-30T05:18:28Z</time>
      </trkpt>
      <trkpt lat="43.98404" lon="7.3208">
        <ele>555.3</ele>
        <time>2017-07-30T05:18:42Z</time>
      </trkpt>
      <trkpt lat="43.98408" lon="7.32098">
        <ele>555.3</ele>
        <time>2017-07-30T05:18:59Z</time>
      </trkpt>
      <trkpt lat="43.98416" lon="7.32112">
        <ele>554.34</ele>
        <time>2017-07-30T05:19:13Z</time>
      </trkpt>
      <trkpt lat="43.98417" lon="7.32129">
        <ele>554.34</ele>
        <time>2017-07-30T05:19:29Z</time>
      </trkpt>
      <trkpt lat="43.98415" lon="7.32136">
        <ele>553.86</ele>
        <time>2017-07-30T05:19:35Z</time>
      </trkpt>
      <trkpt lat="43.9841" lon="7.32155">
        <ele>555.3</ele>
        <time>2017-07-30T05:19:50Z</time>
      </trkpt>
      <trkpt lat="43.984" lon="7.32167">
        <ele>556.74</ele>
        <time>2017-07-30T05:20:04Z</time>
      </trkpt>
      <trkpt lat="43.9839" lon="7.3218">
        <ele>558.66</ele>
        <time>2017-07-30T05:20:19Z</time>
      </trkpt>
      <trkpt lat="43.98384" lon="7.32195">
        <ele>559.62</ele>
        <time>2017-07-30T05:20:35Z</time>
      </trkpt>
      <trkpt lat="43.98379" lon="7.32212">
        <ele>560.59</ele>
        <time>2017-07-30T05:20:51Z</time>
      </trkpt>
      <trkpt lat="43.98377" lon="7.32227">
        <ele>562.03</ele>
        <time>2017-07-30T05:21:07Z</time>
      </trkpt>
      <trkpt lat="43.98371" lon="7.3224">
        <ele>562.51</ele>
        <time>2017-07-30T05:21:22Z</time>
      </trkpt>
      <trkpt lat="43.98367" lon="7.32255">
        <ele>563.95</ele>
        <time>2017-07-30T05:21:38Z</time>
      </trkpt>
      <trkpt lat="43.98367" lon="7.32267">
        <ele>564.91</ele>
        <time>2017-07-30T05:21:52Z</time>
      </trkpt>
      <trkpt lat="43.98371" lon="7.32283">
        <ele>566.35</ele>
        <time>2017-07-30T05:22:08Z</time>
      </trkpt>
      <trkpt lat="43.98377" lon="7.32295">
        <ele>567.8</ele>
        <time>2017-07-30T05:22:24Z</time>
      </trkpt>
      <trkpt lat="43.98375" lon="7.32297">
        <ele>568.28</ele>
        <time>2017-07-30T05:22:38Z</time>
      </trkpt>
      <trkpt lat="43.98374" lon="7.32298">
        <ele>568.28</ele>
        <time>2017-07-30T05:23:04Z</time>
      </trkpt>
      <trkpt lat="43.98377" lon="7.32295">
        <ele>568.28</ele>
        <time>2017-07-30T05:23:22Z</time>
      </trkpt>
      <trkpt lat="43.98375" lon="7.32292">
        <ele>566.83</ele>
        <time>2017-07-30T05:23:48Z</time>
      </trkpt>
      <trkpt lat="43.98369" lon="7.3229">
        <ele>567.8</ele>
        <time>2017-07-30T05:24:04Z</time>
      </trkpt>
      <trkpt lat="43.98363" lon="7.32282">
        <ele>569.72</ele>
        <time>2017-07-30T05:24:20Z</time>
      </trkpt>
      <trkpt lat="43.98356" lon="7.32276">
        <ele>571.64</ele>
        <time>2017-07-30T05:24:36Z</time>
      </trkpt>
      <trkpt lat="43.98347" lon="7.32265">
        <ele>573.08</ele>
        <time>2017-07-30T05:24:56Z</time>
      </trkpt>
      <trkpt lat="43.98338" lon="7.32254">
        <ele>574.53</ele>
        <time>2017-07-30T05:25:12Z</time>
      </trkpt>
      <trkpt lat="43.98331" lon="7.32248">
        <ele>575.97</ele>
        <time>2017-07-30T05:25:27Z</time>
      </trkpt>
      <trkpt lat="43.98325" lon="7.32238">
        <ele>577.41</ele>
        <time>2017-07-30T05:25:42Z</time>
      </trkpt>
      <trkpt lat="43.98318" lon="7.32226">
        <ele>578.37</ele>
        <time>2017-07-30T05:25:59Z</time>
      </trkpt>
      <trkpt lat="43.98306" lon="7.32214">
        <ele>580.77</ele>
        <time>2017-07-30T05:26:18Z</time>
      </trkpt>
      <trkpt lat="43.983" lon="7.32207">
        <ele>581.73</ele>
        <time>2017-07-30T05:26:34Z</time>
      </trkpt>
      <trkpt lat="43.98295" lon="7.32205">
        <ele>583.18</ele>
        <time>2017-07-30T05:26:52Z</time>
      </trkpt>
      <trkpt lat="43.98288" lon="7.32204">
        <ele>585.58</ele>
        <time>2017-07-30T05:27:07Z</time>
      </trkpt>
      <trkpt lat="43.98279" lon="7.32204">
        <ele>587.02</ele>
        <time>2017-07-30T05:27:22Z</time>
      </trkpt>
      <trkpt lat="43.98274" lon="7.32208">
        <ele>588.95</ele>
        <time>2017-07-30T05:27:37Z</time>
      </trkpt>
      <trkpt lat="43.98275" lon="7.32217">
        <ele>590.39</ele>
        <time>2017-07-30T05:27:53Z</time>
      </trkpt>
      <trkpt lat="43.98283" lon="7.32225">
        <ele>591.35</ele>
        <time>2017-07-30T05:28:11Z</time>
      </trkpt>
      <trkpt lat="43.9829" lon="7.32238">
        <ele>592.79</ele>
        <time>2017-07-30T05:28:27Z</time>
      </trkpt>
      <trkpt lat="43.98289" lon="7.32247">
        <ele>594.71</ele>
        <time>2017-07-30T05:28:42Z</time>
      </trkpt>
      <trkpt lat="43.98288" lon="7.32257">
        <ele>596.64</ele>
        <time>2017-07-30T05:28:58Z</time>
      </trkpt>
      <trkpt lat="43.98281" lon="7.32265">
        <ele>599.04</ele>
        <time>2017-07-30T05:29:15Z</time>
      </trkpt>
      <trkpt lat="43.9828" lon="7.32267">
        <ele>600.48</ele>
        <time>2017-07-30T05:29:31Z</time>
      </trkpt>
      <trkpt lat="43.98279" lon="7.32272">
        <ele>602.4</ele>
        <time>2017-07-30T05:29:47Z</time>
      </trkpt>
      <trkpt lat="43.98278" lon="7.32281">
        <ele>603.85</ele>
        <time>2017-07-30T05:30:02Z</time>
      </trkpt>
      <trkpt lat="43.98274" lon="7.32291">
        <ele>605.77</ele>
        <time>2017-07-30T05:30:18Z</time>
      </trkpt>
      <trkpt lat="43.98273" lon="7.32299">
        <ele>606.73</ele>
        <time>2017-07-30T05:30:31Z</time>
      </trkpt>
      <trkpt lat="43.98271" lon="7.32303">
        <ele>607.69</ele>
        <time>2017-07-30T05:30:41Z</time>
      </trkpt>
      <trkpt lat="43.98271" lon="7.32311">
        <ele>609.61</ele>
        <time>2017-07-30T05:30:55Z</time>
      </trkpt>
      <trkpt lat="43.98271" lon="7.32321">
        <ele>611.06</ele>
        <time>2017-07-30T05:31:11Z</time>
      </trkpt>
      <trkpt lat="43.98267" lon="7.32319">
        <ele>612.98</ele>
        <time>2017-07-30T05:31:24Z</time>
      </trkpt>
      <trkpt lat="43.98264" lon="7.32305">
        <ele>614.9</ele>
        <time>2017-07-30T05:31:42Z</time>
      </trkpt>
      <trkpt lat="43.9826" lon="7.32306">
        <ele>615.86</ele>
        <time>2017-07-30T05:31:53Z</time>
      </trkpt>
      <trkpt lat="43.98257" lon="7.32314">
        <ele>617.3</ele>
        <time>2017-07-30T05:32:06Z</time>
      </trkpt>
      <trkpt lat="43.98254" lon="7.32321">
        <ele>619.23</ele>
        <time>2017-07-30T05:32:20Z</time>
      </trkpt>
      <trkpt lat="43.98254" lon="7.32321">
        <ele>621.15</ele>
        <time>2017-07-30T05:32:36Z</time>
      </trkpt>
      <trkpt lat="43.98251" lon="7.32308">
        <ele>623.07</ele>
        <time>2017-07-30T05:32:55Z</time>
      </trkpt>
      <trkpt lat="43.98241" lon="7.323">
        <ele>624.99</ele>
        <time>2017-07-30T05:33:13Z</time>
      </trkpt>
      <trkpt lat="43.98234" lon="7.323">
        <ele>626.92</ele>
        <time>2017-07-30T05:33:29Z</time>
      </trkpt>
      <trkpt lat="43.98228" lon="7.32301">
        <ele>628.84</ele>
        <time>2017-07-30T05:33:47Z</time>
      </trkpt>
      <trkpt lat="43.9822" lon="7.32301">
        <ele>630.76</ele>
        <time>2017-07-30T05:34:05Z</time>
      </trkpt>
      <trkpt lat="43.98218" lon="7.32309">
        <ele>632.68</ele>
        <time>2017-07-30T05:34:22Z</time>
      </trkpt>
      <trkpt lat="43.98222" lon="7.32319">
        <ele>633.65</ele>
        <time>2017-07-30T05:34:37Z</time>
      </trkpt>
      <trkpt lat="43.9823" lon="7.32331">
        <ele>634.61</ele>
        <time>2017-07-30T05:34:54Z</time>
      </trkpt>
      <trkpt lat="43.98231" lon="7.3234">
        <ele>635.57</ele>
        <time>2017-07-30T05:35:09Z</time>
      </trkpt>
      <trkpt lat="43.98229" lon="7.32336">
        <ele>636.53</ele>
        <time>2017-07-30T05:35:23Z</time>
      </trkpt>
      <trkpt lat="43.9822" lon="7.32328">
        <ele>637.97</ele>
        <time>2017-07-30T05:35:42Z</time>
      </trkpt>
      <trkpt lat="43.98213" lon="7.32319">
        <ele>638.93</ele>
        <time>2017-07-30T05:35:57Z</time>
      </trkpt>
      <trkpt lat="43.98206" lon="7.32311">
        <ele>639.41</ele>
        <time>2017-07-30T05:36:13Z</time>
      </trkpt>
      <trkpt lat="43.98197" lon="7.32307">
        <ele>640.86</ele>
        <time>2017-07-30T05:36:29Z</time>
      </trkpt>
      <trkpt lat="43.98187" lon="7.32304">
        <ele>642.3</ele>
        <time>2017-07-30T05:36:44Z</time>
      </trkpt>
      <trkpt lat="43.98175" lon="7.32305">
        <ele>643.26</ele>
        <time>2017-07-30T05:37:01Z</time>
      </trkpt>
      <trkpt lat="43.98168" lon="7.32301">
        <ele>643.74</ele>
        <time>2017-07-30T05:37:17Z</time>
      </trkpt>
      <trkpt lat="43.9816" lon="7.32303">
        <ele>643.74</ele>
        <time>2017-07-30T05:37:37Z</time>
      </trkpt>
      <trkpt lat="43.98154" lon="7.32303">
        <ele>644.22</ele>
        <time>2017-07-30T05:37:53Z</time>
      </trkpt>
      <trkpt lat="43.9815" lon="7.32305">
        <ele>646.14</ele>
        <time>2017-07-30T05:38:07Z</time>
      </trkpt>
      <trkpt lat="43.98153" lon="7.323">
        <ele>646.14</ele>
        <time>2017-07-30T05:38:23Z</time>
      </trkpt>
      <trkpt lat="43.98155" lon="7.32304">
        <ele>646.62</ele>
        <time>2017-07-30T05:38:38Z</time>
      </trkpt>
      <trkpt lat="43.98164" lon="7.32315">
        <ele>648.55</ele>
        <time>2017-07-30T05:38:55Z</time>
      </trkpt>
      <trkpt lat="43.98169" lon="7.32329">
        <ele>649.99</ele>
        <time>2017-07-30T05:39:12Z</time>
      </trkpt>
      <trkpt lat="43.98175" lon="7.32338">
        <ele>651.43</ele>
        <time>2017-07-30T05:39:28Z</time>
      </trkpt>
      <trkpt lat="43.98185" lon="7.32346">
        <ele>652.87</ele>
        <time>2017-07-30T05:39:46Z</time>
      </trkpt>
      <trkpt lat="43.98193" lon="7.32358">
        <ele>654.31</ele>
        <time>2017-07-30T05:40:04Z</time>
      </trkpt>
      <trkpt lat="43.98197" lon="7.3237">
        <ele>655.76</ele>
        <time>2017-07-30T05:40:22Z</time>
      </trkpt>
      <trkpt lat="43.98194" lon="7.32363">
        <ele>657.68</ele>
        <time>2017-07-30T05:40:42Z</time>
      </trkpt>
      <trkpt lat="43.98188" lon="7.32358">
        <ele>658.64</ele>
        <time>2017-07-30T05:40:58Z</time>
      </trkpt>
      <trkpt lat="43.98176" lon="7.32355">
        <ele>659.6</ele>
        <time>2017-07-30T05:41:14Z</time>
      </trkpt>
      <trkpt lat="43.98165" lon="7.32356">
        <ele>660.56</ele>
        <time>2017-07-30T05:41:30Z</time>
      </trkpt>
      <trkpt lat="43.98151" lon="7.32359">
        <ele>661.04</ele>
        <time>2017-07-30T05:41:46Z</time>
      </trkpt>
      <trkpt lat="43.98138" lon="7.32363">
        <ele>661.04</ele>
        <time>2017-07-30T05:42:01Z</time>
      </trkpt>
      <trkpt lat="43.98128" lon="7.32368">
        <ele>661.52</ele>
        <time>2017-07-30T05:42:15Z</time>
      </trkpt>
      <trkpt lat="43.98128" lon="7.32375">
        <ele>663.45</ele>
        <time>2017-07-30T05:42:30Z</time>
      </trkpt>
      <trkpt lat="43.98136" lon="7.32377">
        <ele>664.41</ele>
        <time>2017-07-30T05:42:44Z</time>
      </trkpt>
      <trkpt lat="43.98145" lon="7.32378">
        <ele>665.85</ele>
        <time>2017-07-30T05:43:00Z</time>
      </trkpt>
      <trkpt lat="43.98153" lon="7.32383">
        <ele>666.81</ele>
        <time>2017-07-30T05:43:15Z</time>
      </trkpt>
      <trkpt lat="43.98165" lon="7.32389">
        <ele>668.25</ele>
        <time>2017-07-30T05:43:32Z</time>
      </trkpt>
      <trkpt lat="43.98176" lon="7.32397">
        <ele>669.7</ele>
        <time>2017-07-30T05:43:49Z</time>
      </trkpt>
      <trkpt lat="43.98188" lon="7.32405">
        <ele>671.62</ele>
        <time>2017-07-30T05:44:06Z</time>
      </trkpt>
      <trkpt lat="43.98195" lon="7.32412">
        <ele>672.58</ele>
        <time>2017-07-30T05:44:18Z</time>
      </trkpt>
      <trkpt lat="43.98198" lon="7.32417">
        <ele>672.58</ele>
        <time>2017-07-30T05:44:31Z</time>
      </trkpt>
      <trkpt lat="43.98191" lon="7.32421">
        <ele>674.98</ele>
        <time>2017-07-30T05:44:46Z</time>
      </trkpt>
      <trkpt lat="43.98181" lon="7.32421">
        <ele>675.94</ele>
        <time>2017-07-30T05:45:01Z</time>
      </trkpt>
      <trkpt lat="43.98171" lon="7.32421">
        <ele>677.39</ele>
        <time>2017-07-30T05:45:16Z</time>
      </trkpt>
      <trkpt lat="43.98164" lon="7.32422">
        <ele>678.83</ele>
        <time>2017-07-30T05:45:31Z</time>
      </trkpt>
      <trkpt lat="43.98154" lon="7.32422">
        <ele>679.31</ele>
        <time>2017-07-30T05:45:46Z</time>
      </trkpt>
      <trkpt lat="43.98146" lon="7.32428">
        <ele>680.75</ele>
        <time>2017-07-30T05:46:01Z</time>
      </trkpt>
      <trkpt lat="43.98138" lon="7.32435">
        <ele>681.71</ele>
        <time>2017-07-30T05:46:15Z</time>
      </trkpt>
      <trkpt lat="43.98134" lon="7.32442">
        <ele>682.67</ele>
        <time>2017-07-30T05:46:31Z</time>
      </trkpt>
      <trkpt lat="43.98135" lon="7.32442">
        <ele>683.15</ele>
        <time>2017-07-30T05:46:46Z</time>
      </trkpt>
      <trkpt lat="43.98125" lon="7.32449">
        <ele>684.12</ele>
        <time>2017-07-30T05:47:02Z</time>
      </trkpt>
      <trkpt lat="43.98116" lon="7.32459">
        <ele>685.56</ele>
        <time>2017-07-30T05:47:18Z</time>
      </trkpt>
      <trkpt lat="43.98109" lon="7.32468">
        <ele>686.52</ele>
        <time>2017-07-30T05:47:32Z</time>
      </trkpt>
      <trkpt lat="43.98106" lon="7.32473">
        <ele>688.44</ele>
        <time>2017-07-30T05:47:48Z</time>
      </trkpt>
      <trkpt lat="43.98111" lon="7.32471">
        <ele>690.36</ele>
        <time>2017-07-30T05:48:02Z</time>
      </trkpt>
      <trkpt lat="43.98118" lon="7.32471">
        <ele>691.81</ele>
        <time>2017-07-30T05:48:17Z</time>
      </trkpt>
      <trkpt lat="43.98129" lon="7.32472">
        <ele>693.25</ele>
        <time>2017-07-30T05:48:33Z</time>
      </trkpt>
      <trkpt lat="43.98136" lon="7.32472">
        <ele>694.69</ele>
        <time>2017-07-30T05:48:46Z</time>
      </trkpt>
      <trkpt lat="43.98143" lon="7.32476">
        <ele>697.09</ele>
        <time>2017-07-30T05:48:59Z</time>
      </trkpt>
      <trkpt lat="43.98152" lon="7.3248">
        <ele>698.53</ele>
        <time>2017-07-30T05:49:14Z</time>
      </trkpt>
      <trkpt lat="43.98158" lon="7.32483">
        <ele>699.98</ele>
        <time>2017-07-30T05:49:29Z</time>
      </trkpt>
      <trkpt lat="43.98164" lon="7.32488">
        <ele>702.38</ele>
        <time>2017-07-30T05:49:49Z</time>
      </trkpt>
      <trkpt lat="43.98172" lon="7.32493">
        <ele>701.9</ele>
        <time>2017-07-30T05:50:04Z</time>
      </trkpt>
      <trkpt lat="43.98179" lon="7.32502">
        <ele>703.34</ele>
        <time>2017-07-30T05:50:20Z</time>
      </trkpt>
      <trkpt lat="43.98185" lon="7.32514">
        <ele>704.78</ele>
        <time>2017-07-30T05:50:37Z</time>
      </trkpt>
      <trkpt lat="43.98188" lon="7.32526">
        <ele>706.23</ele>
        <time>2017-07-30T05:50:53Z</time>
      </trkpt>
      <trkpt lat="43.98186" lon="7.32526">
        <ele>708.15</ele>
        <time>2017-07-30T05:51:07Z</time>
      </trkpt>
      <trkpt lat="43.98177" lon="7.32524">
        <ele>709.59</ele>
        <time>2017-07-30T05:51:23Z</time>
      </trkpt>
      <trkpt lat="43.98167" lon="7.32524">
        <ele>711.03</ele>
        <time>2017-07-30T05:51:40Z</time>
      </trkpt>
      <trkpt lat="43.98157" lon="7.32529">
        <ele>712.95</ele>
        <time>2017-07-30T05:51:59Z</time>
      </trkpt>
      <trkpt lat="43.98147" lon="7.32534">
        <ele>714.4</ele>
        <time>2017-07-30T05:52:16Z</time>
      </trkpt>
      <trkpt lat="43.98138" lon="7.32541">
        <ele>715.84</ele>
        <time>2017-07-30T05:52:31Z</time>
      </trkpt>
      <trkpt lat="43.98129" lon="7.32546">
        <ele>717.28</ele>
        <time>2017-07-30T05:52:47Z</time>
      </trkpt>
      <trkpt lat="43.9812" lon="7.32553">
        <ele>718.72</ele>
        <time>2017-07-30T05:53:01Z</time>
      </trkpt>
      <trkpt lat="43.98112" lon="7.32559">
        <ele>719.68</ele>
        <time>2017-07-30T05:53:16Z</time>
      </trkpt>
      <trkpt lat="43.98105" lon="7.32567">
        <ele>720.65</ele>
        <time>2017-07-30T05:53:30Z</time>
      </trkpt>
      <trkpt lat="43.98095" lon="7.3257">
        <ele>722.57</ele>
        <time>2017-07-30T05:53:44Z</time>
      </trkpt>
      <trkpt lat="43.98088" lon="7.32573">
        <ele>724.01</ele>
        <time>2017-07-30T05:53:58Z</time>
      </trkpt>
      <trkpt lat="43.98077" lon="7.32578">
        <ele>725.45</ele>
        <time>2017-07-30T05:54:15Z</time>
      </trkpt>
      <trkpt lat="43.98066" lon="7.32584">
        <ele>726.41</ele>
        <time>2017-07-30T05:54:31Z</time>
      </trkpt>
      <trkpt lat="43.98059" lon="7.3259">
        <ele>727.86</ele>
        <time>2017-07-30T05:54:45Z</time>
      </trkpt>
      <trkpt lat="43.98048" lon="7.32599">
        <ele>729.3</ele>
        <time>2017-07-30T05:55:02Z</time>
      </trkpt>
      <trkpt lat="43.98041" lon="7.32606">
        <ele>730.74</ele>
        <time>2017-07-30T05:55:16Z</time>
      </trkpt>
      <trkpt lat="43.98032" lon="7.32608">
        <ele>732.18</ele>
        <time>2017-07-30T05:55:31Z</time>
      </trkpt>
      <trkpt lat="43.98034" lon="7.32609">
        <ele>733.14</ele>
        <time>2017-07-30T05:55:45Z</time>
      </trkpt>
      <trkpt lat="43.98043" lon="7.32607">
        <ele>734.1</ele>
        <time>2017-07-30T05:56:00Z</time>
      </trkpt>
      <trkpt lat="43.98051" lon="7.32607">
        <ele>736.03</ele>
        <time>2017-07-30T05:56:12Z</time>
      </trkpt>
      <trkpt lat="43.98061" lon="7.32606">
        <ele>736.99</ele>
        <time>2017-07-30T05:56:26Z</time>
      </trkpt>
      <trkpt lat="43.98071" lon="7.32608">
        <ele>738.43</ele>
        <time>2017-07-30T05:56:40Z</time>
      </trkpt>
      <trkpt lat="43.98079" lon="7.32611">
        <ele>739.87</ele>
        <time>2017-07-30T05:56:53Z</time>
      </trkpt>
      <trkpt lat="43.98087" lon="7.32615">
        <ele>741.79</ele>
        <time>2017-07-30T05:57:09Z</time>
      </trkpt>
      <trkpt lat="43.98095" lon="7.32614">
        <ele>742.76</ele>
        <time>2017-07-30T05:57:23Z</time>
      </trkpt>
      <trkpt lat="43.98101" lon="7.32618">
        <ele>744.68</ele>
        <time>2017-07-30T05:57:37Z</time>
      </trkpt>
      <trkpt lat="43.98109" lon="7.32621">
        <ele>746.6</ele>
        <time>2017-07-30T05:57:52Z</time>
      </trkpt>
      <trkpt lat="43.98117" lon="7.32624">
        <ele>748.04</ele>
        <time>2017-07-30T05:58:06Z</time>
      </trkpt>
      <trkpt lat="43.98127" lon="7.32628">
        <ele>749.97</ele>
        <time>2017-07-30T05:58:22Z</time>
      </trkpt>
      <trkpt lat="43.98137" lon="7.32628">
        <ele>751.89</ele>
        <time>2017-07-30T05:58:38Z</time>
      </trkpt>
      <trkpt lat="43.98146" lon="7.32634">
        <ele>753.33</ele>
        <time>2017-07-30T05:58:52Z</time>
      </trkpt>
      <trkpt lat="43.98159" lon="7.32645">
        <ele>754.77</ele>
        <time>2017-07-30T05:59:07Z</time>
      </trkpt>
      <trkpt lat="43.98164" lon="7.32658">
        <ele>756.69</ele>
        <time>2017-07-30T05:59:25Z</time>
      </trkpt>
      <trkpt lat="43.98169" lon="7.32668">
        <ele>758.62</ele>
        <time>2017-07-30T05:59:42Z</time>
      </trkpt>
      <trkpt lat="43.98175" lon="7.32681">
        <ele>760.06</ele>
        <time>2017-07-30T05:59:59Z</time>
      </trkpt>
      <trkpt lat="43.98178" lon="7.32687">
        <ele>761.5</ele>
        <time>2017-07-30T06:00:16Z</time>
      </trkpt>
      <trkpt lat="43.98178" lon="7.32689">
        <ele>761.5</ele>
        <time>2017-07-30T06:00:33Z</time>
      </trkpt>
      <trkpt lat="43.9818" lon="7.32698">
        <ele>761.98</ele>
        <time>2017-07-30T06:01:02Z</time>
      </trkpt>
      <trkpt lat="43.98177" lon="7.32697">
        <ele>763.9</ele>
        <time>2017-07-30T06:01:15Z</time>
      </trkpt>
      <trkpt lat="43.98167" lon="7.32692">
        <ele>765.35</ele>
        <time>2017-07-30T06:01:31Z</time>
      </trkpt>
      <trkpt lat="43.98157" lon="7.32688">
        <ele>767.27</ele>
        <time>2017-07-30T06:01:47Z</time>
      </trkpt>
      <trkpt lat="43.98147" lon="7.32685">
        <ele>769.67</ele>
        <time>2017-07-30T06:02:02Z</time>
      </trkpt>
      <trkpt lat="43.98136" lon="7.32688">
        <ele>771.6</ele>
        <time>2017-07-30T06:02:22Z</time>
      </trkpt>
      <trkpt lat="43.98128" lon="7.32689">
        <ele>772.56</ele>
        <time>2017-07-30T06:02:35Z</time>
      </trkpt>
      <trkpt lat="43.98119" lon="7.32692">
        <ele>774.48</ele>
        <time>2017-07-30T06:02:50Z</time>
      </trkpt>
      <trkpt lat="43.98111" lon="7.32698">
        <ele>775.44</ele>
        <time>2017-07-30T06:03:08Z</time>
      </trkpt>
      <trkpt lat="43.98107" lon="7.32703">
        <ele>777.36</ele>
        <time>2017-07-30T06:03:28Z</time>
      </trkpt>
      <trkpt lat="43.98111" lon="7.32704">
        <ele>778.81</ele>
        <time>2017-07-30T06:03:41Z</time>
      </trkpt>
      <trkpt lat="43.98117" lon="7.32709">
        <ele>780.73</ele>
        <time>2017-07-30T06:03:55Z</time>
      </trkpt>
      <trkpt lat="43.98124" lon="7.32712">
        <ele>781.69</ele>
        <time>2017-07-30T06:04:09Z</time>
      </trkpt>
      <trkpt lat="43.98129" lon="7.32717">
        <ele>783.13</ele>
        <time>2017-07-30T06:04:22Z</time>
      </trkpt>
      <trkpt lat="43.98133" lon="7.32726">
        <ele>784.57</ele>
        <time>2017-07-30T06:04:37Z</time>
      </trkpt>
      <trkpt lat="43.98139" lon="7.32736">
        <ele>786.5</ele>
        <time>2017-07-30T06:04:52Z</time>
      </trkpt>
      <trkpt lat="43.98145" lon="7.32743">
        <ele>787.46</ele>
        <time>2017-07-30T06:05:05Z</time>
      </trkpt>
      <trkpt lat="43.98149" lon="7.32751">
        <ele>788.9</ele>
        <time>2017-07-30T06:05:16Z</time>
      </trkpt>
      <trkpt lat="43.98155" lon="7.32763">
        <ele>790.82</ele>
        <time>2017-07-30T06:05:34Z</time>
      </trkpt>
      <trkpt lat="43.98166" lon="7.32774">
        <ele>792.74</ele>
        <time>2017-07-30T06:05:51Z</time>
      </trkpt>
      <trkpt lat="43.98174" lon="7.32786">
        <ele>794.19</ele>
        <time>2017-07-30T06:06:07Z</time>
      </trkpt>
      <trkpt lat="43.98179" lon="7.32791">
        <ele>795.15</ele>
        <time>2017-07-30T06:06:24Z</time>
      </trkpt>
      <trkpt lat="43.98183" lon="7.32801">
        <ele>796.59</ele>
        <time>2017-07-30T06:06:38Z</time>
      </trkpt>
      <trkpt lat="43.98191" lon="7.32811">
        <ele>798.03</ele>
        <time>2017-07-30T06:06:51Z</time>
      </trkpt>
      <trkpt lat="43.98192" lon="7.3282">
        <ele>799.95</ele>
        <time>2017-07-30T06:07:06Z</time>
      </trkpt>
      <trkpt lat="43.98195" lon="7.32828">
        <ele>801.88</ele>
        <time>2017-07-30T06:07:21Z</time>
      </trkpt>
      <trkpt lat="43.98201" lon="7.32834">
        <ele>803.8</ele>
        <time>2017-07-30T06:07:35Z</time>
      </trkpt>
      <trkpt lat="43.98203" lon="7.32834">
        <ele>804.28</ele>
        <time>2017-07-30T06:07:53Z</time>
      </trkpt>
      <trkpt lat="43.98208" lon="7.3284">
        <ele>805.72</ele>
        <time>2017-07-30T06:08:11Z</time>
      </trkpt>
      <trkpt lat="43.98213" lon="7.32846">
        <ele>808.13</ele>
        <time>2017-07-30T06:08:25Z</time>
      </trkpt>
      <trkpt lat="43.9822" lon="7.32853">
        <ele>810.05</ele>
        <time>2017-07-30T06:08:40Z</time>
      </trkpt>
      <trkpt lat="43.98226" lon="7.32857">
        <ele>811.97</ele>
        <time>2017-07-30T06:08:52Z</time>
      </trkpt>
      <trkpt lat="43.98233" lon="7.32863">
        <ele>814.37</ele>
        <time>2017-07-30T06:09:08Z</time>
      </trkpt>
      <trkpt lat="43.98238" lon="7.32873">
        <ele>815.82</ele>
        <time>2017-07-30T06:09:22Z</time>
      </trkpt>
      <trkpt lat="43.98244" lon="7.32881">
        <ele>817.74</ele>
        <time>2017-07-30T06:09:36Z</time>
      </trkpt>
      <trkpt lat="43.98243" lon="7.32884">
        <ele>818.22</ele>
        <time>2017-07-30T06:09:52Z</time>
      </trkpt>
      <trkpt lat="43.98243" lon="7.32885">
        <ele>819.18</ele>
        <time>2017-07-30T06:10:13Z</time>
      </trkpt>
      <trkpt lat="43.98233" lon="7.32893">
        <ele>820.62</ele>
        <time>2017-07-30T06:10:29Z</time>
      </trkpt>
      <trkpt lat="43.98229" lon="7.32898">
        <ele>820.62</ele>
        <time>2017-07-30T06:11:00Z</time>
      </trkpt>
      <trkpt lat="43.98222" lon="7.32902">
        <ele>821.58</ele>
        <time>2017-07-30T06:11:18Z</time>
      </trkpt>
      <trkpt lat="43.98214" lon="7.32907">
        <ele>823.03</ele>
        <time>2017-07-30T06:11:33Z</time>
      </trkpt>
      <trkpt lat="43.98205" lon="7.32914">
        <ele>824.95</ele>
        <time>2017-07-30T06:11:48Z</time>
      </trkpt>
      <trkpt lat="43.98209" lon="7.32901">
        <ele>827.35</ele>
        <time>2017-07-30T06:12:02Z</time>
      </trkpt>
      <trkpt lat="43.98205" lon="7.32895">
        <ele>829.76</ele>
        <time>2017-07-30T06:12:18Z</time>
      </trkpt>
      <trkpt lat="43.98195" lon="7.32907">
        <ele>831.2</ele>
        <time>2017-07-30T06:12:35Z</time>
      </trkpt>
      <trkpt lat="43.98199" lon="7.32893">
        <ele>833.12</ele>
        <time>2017-07-30T06:12:52Z</time>
      </trkpt>
      <trkpt lat="43.98188" lon="7.32898">
        <ele>835.52</ele>
        <time>2017-07-30T06:13:09Z</time>
      </trkpt>
      <trkpt lat="43.98184" lon="7.3289">
        <ele>837.45</ele>
        <time>2017-07-30T06:13:23Z</time>
      </trkpt>
      <trkpt lat="43.9818" lon="7.32889">
        <ele>839.37</ele>
        <time>2017-07-30T06:13:37Z</time>
      </trkpt>
      <trkpt lat="43.98173" lon="7.32897">
        <ele>840.81</ele>
        <time>2017-07-30T06:13:50Z</time>
      </trkpt>
      <trkpt lat="43.98166" lon="7.32906">
        <ele>842.25</ele>
        <time>2017-07-30T06:14:05Z</time>
      </trkpt>
      <trkpt lat="43.9817" lon="7.32894">
        <ele>844.18</ele>
        <time>2017-07-30T06:14:20Z</time>
      </trkpt>
      <trkpt lat="43.98161" lon="7.32897">
        <ele>845.62</ele>
        <time>2017-07-30T06:14:36Z</time>
      </trkpt>
      <trkpt lat="43.98157" lon="7.32905">
        <ele>846.58</ele>
        <time>2017-07-30T06:14:50Z</time>
      </trkpt>
      <trkpt lat="43.9815" lon="7.32909">
        <ele>847.06</ele>
        <time>2017-07-30T06:15:03Z</time>
      </trkpt>
      <trkpt lat="43.9814" lon="7.32914">
        <ele>848.5</ele>
        <time>2017-07-30T06:15:18Z</time>
      </trkpt>
      <trkpt lat="43.98132" lon="7.32921">
        <ele>849.94</ele>
        <time>2017-07-30T06:15:31Z</time>
      </trkpt>
      <trkpt lat="43.98123" lon="7.32931">
        <ele>850.9</ele>
        <time>2017-07-30T06:15:44Z</time>
      </trkpt>
      <trkpt lat="43.98115" lon="7.32946">
        <ele>852.83</ele>
        <time>2017-07-30T06:15:59Z</time>
      </trkpt>
      <trkpt lat="43.98113" lon="7.32958">
        <ele>854.27</ele>
        <time>2017-07-30T06:16:10Z</time>
      </trkpt>
      <trkpt lat="43.98107" lon="7.32976">
        <ele>855.71</ele>
        <time>2017-07-30T06:16:26Z</time>
      </trkpt>
      <trkpt lat="43.98101" lon="7.32986">
        <ele>857.15</ele>
        <time>2017-07-30T06:16:40Z</time>
      </trkpt>
      <trkpt lat="43.981" lon="7.32979">
        <ele>858.11</ele>
        <time>2017-07-30T06:16:54Z</time>
      </trkpt>
      <trkpt lat="43.98105" lon="7.32965">
        <ele>859.56</ele>
        <time>2017-07-30T06:17:10Z</time>
      </trkpt>
      <trkpt lat="43.9811" lon="7.32951">
        <ele>859.56</ele>
        <time>2017-07-30T06:17:27Z</time>
      </trkpt>
      <trkpt lat="43.98111" lon="7.32938">
        <ele>861</ele>
        <time>2017-07-30T06:17:43Z</time>
      </trkpt>
      <trkpt lat="43.98118" lon="7.32924">
        <ele>861.96</ele>
        <time>2017-07-30T06:17:56Z</time>
      </trkpt>
      <trkpt lat="43.98121" lon="7.3291">
        <ele>862.44</ele>
        <time>2017-07-30T06:18:10Z</time>
      </trkpt>
      <trkpt lat="43.98125" lon="7.32895">
        <ele>864.36</ele>
        <time>2017-07-30T06:18:25Z</time>
      </trkpt>
      <trkpt lat="43.98119" lon="7.32888">
        <ele>865.32</ele>
        <time>2017-07-30T06:18:39Z</time>
      </trkpt>
      <trkpt lat="43.98113" lon="7.32893">
        <ele>867.25</ele>
        <time>2017-07-30T06:18:53Z</time>
      </trkpt>
      <trkpt lat="43.98105" lon="7.329">
        <ele>868.21</ele>
        <time>2017-07-30T06:19:07Z</time>
      </trkpt>
      <trkpt lat="43.98099" lon="7.32914">
        <ele>870.13</ele>
        <time>2017-07-30T06:19:22Z</time>
      </trkpt>
      <trkpt lat="43.98095" lon="7.32924">
        <ele>871.09</ele>
        <time>2017-07-30T06:19:33Z</time>
      </trkpt>
      <trkpt lat="43.98094" lon="7.32922">
        <ele>873.01</ele>
        <time>2017-07-30T06:19:45Z</time>
      </trkpt>
      <trkpt lat="43.98096" lon="7.32905">
        <ele>874.46</ele>
        <time>2017-07-30T06:19:59Z</time>
      </trkpt>
      <trkpt lat="43.98094" lon="7.329">
        <ele>874.94</ele>
        <time>2017-07-30T06:20:13Z</time>
      </trkpt>
      <trkpt lat="43.98098" lon="7.32903">
        <ele>874.94</ele>
        <time>2017-07-30T06:20:48Z</time>
      </trkpt>
      <trkpt lat="43.98095" lon="7.32907">
        <ele>875.9</ele>
        <time>2017-07-30T06:21:04Z</time>
      </trkpt>
      <trkpt lat="43.98089" lon="7.32922">
        <ele>877.34</ele>
        <time>2017-07-30T06:21:17Z</time>
      </trkpt>
      <trkpt lat="43.98082" lon="7.32933">
        <ele>879.74</ele>
        <time>2017-07-30T06:21:32Z</time>
      </trkpt>
      <trkpt lat="43.98081" lon="7.32935">
        <ele>880.22</ele>
        <time>2017-07-30T06:21:33Z</time>
      </trkpt>
      <trkpt lat="43.98077" lon="7.32951">
        <ele>877.82</ele>
        <time>2017-07-30T06:21:46Z</time>
      </trkpt>
      <trkpt lat="43.98072" lon="7.32964">
        <ele>880.22</ele>
        <time>2017-07-30T06:21:59Z</time>
      </trkpt>
      <trkpt lat="43.98069" lon="7.32971">
        <ele>881.19</ele>
        <time>2017-07-30T06:22:05Z</time>
      </trkpt>
      <trkpt lat="43.98065" lon="7.32989">
        <ele>882.63</ele>
        <time>2017-07-30T06:22:20Z</time>
      </trkpt>
      <trkpt lat="43.98061" lon="7.32996">
        <ele>884.55</ele>
        <time>2017-07-30T06:22:34Z</time>
      </trkpt>
      <trkpt lat="43.98057" lon="7.32988">
        <ele>885.99</ele>
        <time>2017-07-30T06:22:47Z</time>
      </trkpt>
      <trkpt lat="43.98059" lon="7.32975">
        <ele>885.99</ele>
        <time>2017-07-30T06:23:00Z</time>
      </trkpt>
      <trkpt lat="43.98063" lon="7.32956">
        <ele>887.43</ele>
        <time>2017-07-30T06:23:14Z</time>
      </trkpt>
      <trkpt lat="43.98067" lon="7.32937">
        <ele>887.43</ele>
        <time>2017-07-30T06:23:29Z</time>
      </trkpt>
      <trkpt lat="43.98066" lon="7.32934">
        <ele>888.88</ele>
        <time>2017-07-30T06:23:41Z</time>
      </trkpt>
      <trkpt lat="43.98062" lon="7.32943">
        <ele>889.84</ele>
        <time>2017-07-30T06:23:57Z</time>
      </trkpt>
      <trkpt lat="43.98057" lon="7.32955">
        <ele>891.28</ele>
        <time>2017-07-30T06:24:10Z</time>
      </trkpt>
      <trkpt lat="43.98051" lon="7.32969">
        <ele>892.72</ele>
        <time>2017-07-30T06:24:24Z</time>
      </trkpt>
      <trkpt lat="43.98046" lon="7.3298">
        <ele>894.16</ele>
        <time>2017-07-30T06:24:39Z</time>
      </trkpt>
      <trkpt lat="43.98043" lon="7.3298">
        <ele>895.61</ele>
        <time>2017-07-30T06:24:54Z</time>
      </trkpt>
      <trkpt lat="43.98047" lon="7.32968">
        <ele>896.57</ele>
        <time>2017-07-30T06:25:08Z</time>
      </trkpt>
      <trkpt lat="43.98048" lon="7.32953">
        <ele>897.53</ele>
        <time>2017-07-30T06:25:23Z</time>
      </trkpt>
      <trkpt lat="43.98048" lon="7.32949">
        <ele>899.45</ele>
        <time>2017-07-30T06:25:36Z</time>
      </trkpt>
      <trkpt lat="43.98044" lon="7.32955">
        <ele>899.93</ele>
        <time>2017-07-30T06:25:52Z</time>
      </trkpt>
      <trkpt lat="43.98042" lon="7.32959">
        <ele>899.93</ele>
        <time>2017-07-30T06:26:10Z</time>
      </trkpt>
      <trkpt lat="43.98044" lon="7.32965">
        <ele>900.41</ele>
        <time>2017-07-30T06:26:37Z</time>
      </trkpt>
      <trkpt lat="43.98039" lon="7.32968">
        <ele>900.41</ele>
        <time>2017-07-30T06:27:06Z</time>
      </trkpt>
      <trkpt lat="43.98042" lon="7.32969">
        <ele>900.41</ele>
        <time>2017-07-30T06:27:31Z</time>
      </trkpt>
      <trkpt lat="43.98042" lon="7.32967">
        <ele>900.89</ele>
        <time>2017-07-30T06:27:46Z</time>
      </trkpt>
      <trkpt lat="43.9804" lon="7.32977">
        <ele>902.33</ele>
        <time>2017-07-30T06:28:01Z</time>
      </trkpt>
      <trkpt lat="43.98039" lon="7.32991">
        <ele>903.78</ele>
        <time>2017-07-30T06:28:15Z</time>
      </trkpt>
      <trkpt lat="43.98034" lon="7.32999">
        <ele>905.22</ele>
        <time>2017-07-30T06:28:32Z</time>
      </trkpt>
      <trkpt lat="43.98031" lon="7.33013">
        <ele>907.62</ele>
        <time>2017-07-30T06:28:48Z</time>
      </trkpt>
      <trkpt lat="43.98028" lon="7.33026">
        <ele>909.06</ele>
        <time>2017-07-30T06:29:03Z</time>
      </trkpt>
      <trkpt lat="43.98026" lon="7.33031">
        <ele>910.99</ele>
        <time>2017-07-30T06:29:18Z</time>
      </trkpt>
      <trkpt lat="43.98023" lon="7.3302">
        <ele>912.91</ele>
        <time>2017-07-30T06:29:32Z</time>
      </trkpt>
      <trkpt lat="43.98029" lon="7.33002">
        <ele>913.87</ele>
        <time>2017-07-30T06:29:49Z</time>
      </trkpt>
      <trkpt lat="43.98029" lon="7.3299">
        <ele>914.35</ele>
        <time>2017-07-30T06:30:02Z</time>
      </trkpt>
      <trkpt lat="43.98026" lon="7.32974">
        <ele>916.27</ele>
        <time>2017-07-30T06:30:16Z</time>
      </trkpt>
      <trkpt lat="43.98023" lon="7.32972">
        <ele>916.27</ele>
        <time>2017-07-30T06:30:36Z</time>
      </trkpt>
      <trkpt lat="43.98019" lon="7.32966">
        <ele>916.27</ele>
        <time>2017-07-30T06:30:55Z</time>
      </trkpt>
      <trkpt lat="43.98019" lon="7.32968">
        <ele>916.27</ele>
        <time>2017-07-30T06:31:12Z</time>
      </trkpt>
      <trkpt lat="43.98017" lon="7.32972">
        <ele>916.27</ele>
        <time>2017-07-30T06:31:37Z</time>
      </trkpt>
      <trkpt lat="43.98017" lon="7.32972">
        <ele>918.68</ele>
        <time>2017-07-30T06:31:39Z</time>
      </trkpt>
      <trkpt lat="43.98017" lon="7.32972">
        <ele>916.75</ele>
        <time>2017-07-30T06:31:41Z</time>
      </trkpt>
      <trkpt lat="43.98016" lon="7.32977">
        <ele>918.2</ele>
        <time>2017-07-30T06:31:56Z</time>
      </trkpt>
      <trkpt lat="43.98016" lon="7.32978">
        <ele>918.2</ele>
        <time>2017-07-30T06:31:57Z</time>
      </trkpt>
      <trkpt lat="43.98017" lon="7.32992">
        <ele>919.64</ele>
        <time>2017-07-30T06:32:12Z</time>
      </trkpt>
      <trkpt lat="43.98015" lon="7.32983">
        <ele>921.56</ele>
        <time>2017-07-30T06:32:27Z</time>
      </trkpt>
      <trkpt lat="43.9801" lon="7.32983">
        <ele>923.48</ele>
        <time>2017-07-30T06:32:41Z</time>
      </trkpt>
      <trkpt lat="43.98003" lon="7.32989">
        <ele>925.89</ele>
        <time>2017-07-30T06:32:56Z</time>
      </trkpt>
      <trkpt lat="43.98003" lon="7.32998">
        <ele>927.81</ele>
        <time>2017-07-30T06:33:12Z</time>
      </trkpt>
      <trkpt lat="43.98001" lon="7.33009">
        <ele>930.21</ele>
        <time>2017-07-30T06:33:29Z</time>
      </trkpt>
      <trkpt lat="43.97998" lon="7.3301">
        <ele>932.62</ele>
        <time>2017-07-30T06:33:44Z</time>
      </trkpt>
      <trkpt lat="43.97997" lon="7.33017">
        <ele>934.54</ele>
        <time>2017-07-30T06:34:00Z</time>
      </trkpt>
      <trkpt lat="43.97995" lon="7.33021">
        <ele>936.46</ele>
        <time>2017-07-30T06:34:16Z</time>
      </trkpt>
      <trkpt lat="43.97992" lon="7.33015">
        <ele>938.38</ele>
        <time>2017-07-30T06:34:30Z</time>
      </trkpt>
      <trkpt lat="43.97986" lon="7.33023">
        <ele>940.79</ele>
        <time>2017-07-30T06:34:47Z</time>
      </trkpt>
      <trkpt lat="43.97983" lon="7.33026">
        <ele>943.67</ele>
        <time>2017-07-30T06:35:04Z</time>
      </trkpt>
      <trkpt lat="43.97983" lon="7.3303">
        <ele>944.63</ele>
        <time>2017-07-30T06:35:17Z</time>
      </trkpt>
      <trkpt lat="43.97982" lon="7.33032">
        <ele>946.56</ele>
        <time>2017-07-30T06:35:32Z</time>
      </trkpt>
      <trkpt lat="43.97979" lon="7.33034">
        <ele>948.48</ele>
        <time>2017-07-30T06:35:47Z</time>
      </trkpt>
      <trkpt lat="43.97981" lon="7.33043">
        <ele>950.4</ele>
        <time>2017-07-30T06:36:02Z</time>
      </trkpt>
      <trkpt lat="43.97977" lon="7.33043">
        <ele>951.84</ele>
        <time>2017-07-30T06:36:18Z</time>
      </trkpt>
      <trkpt lat="43.97973" lon="7.33042">
        <ele>953.77</ele>
        <time>2017-07-30T06:36:30Z</time>
      </trkpt>
      <trkpt lat="43.97972" lon="7.33052">
        <ele>955.21</ele>
        <time>2017-07-30T06:36:50Z</time>
      </trkpt>
      <trkpt lat="43.97969" lon="7.33053">
        <ele>957.13</ele>
        <time>2017-07-30T06:37:06Z</time>
      </trkpt>
      <trkpt lat="43.97966" lon="7.3305">
        <ele>958.57</ele>
        <time>2017-07-30T06:37:18Z</time>
      </trkpt>
      <trkpt lat="43.97959" lon="7.33054">
        <ele>961.46</ele>
        <time>2017-07-30T06:37:33Z</time>
      </trkpt>
      <trkpt lat="43.97951" lon="7.33057">
        <ele>962.42</ele>
        <time>2017-07-30T06:37:46Z</time>
      </trkpt>
      <trkpt lat="43.97941" lon="7.33059">
        <ele>964.34</ele>
        <time>2017-07-30T06:38:01Z</time>
      </trkpt>
      <trkpt lat="43.97935" lon="7.33064">
        <ele>966.74</ele>
        <time>2017-07-30T06:38:18Z</time>
      </trkpt>
      <trkpt lat="43.97941" lon="7.33063">
        <ele>968.67</ele>
        <time>2017-07-30T06:38:32Z</time>
      </trkpt>
      <trkpt lat="43.97946" lon="7.33066">
        <ele>970.11</ele>
        <time>2017-07-30T06:38:46Z</time>
      </trkpt>
      <trkpt lat="43.97949" lon="7.33071">
        <ele>971.55</ele>
        <time>2017-07-30T06:38:58Z</time>
      </trkpt>
      <trkpt lat="43.97951" lon="7.33076">
        <ele>973.47</ele>
        <time>2017-07-30T06:39:10Z</time>
      </trkpt>
      <trkpt lat="43.97948" lon="7.33077">
        <ele>974.91</ele>
        <time>2017-07-30T06:39:27Z</time>
      </trkpt>
      <trkpt lat="43.97946" lon="7.33082">
        <ele>975.88</ele>
        <time>2017-07-30T06:39:43Z</time>
      </trkpt>
      <trkpt lat="43.97945" lon="7.33091">
        <ele>978.28</ele>
        <time>2017-07-30T06:39:58Z</time>
      </trkpt>
      <trkpt lat="43.97942" lon="7.33093">
        <ele>980.68</ele>
        <time>2017-07-30T06:40:14Z</time>
      </trkpt>
      <trkpt lat="43.97938" lon="7.33089">
        <ele>982.6</ele>
        <time>2017-07-30T06:40:32Z</time>
      </trkpt>
      <trkpt lat="43.9793" lon="7.33089">
        <ele>984.53</ele>
        <time>2017-07-30T06:40:48Z</time>
      </trkpt>
      <trkpt lat="43.97929" lon="7.33096">
        <ele>986.93</ele>
        <time>2017-07-30T06:41:05Z</time>
      </trkpt>
      <trkpt lat="43.97928" lon="7.33109">
        <ele>989.33</ele>
        <time>2017-07-30T06:41:23Z</time>
      </trkpt>
      <trkpt lat="43.97926" lon="7.33113">
        <ele>990.3</ele>
        <time>2017-07-30T06:41:35Z</time>
      </trkpt>
      <trkpt lat="43.97927" lon="7.33115">
        <ele>991.74</ele>
        <time>2017-07-30T06:41:55Z</time>
      </trkpt>
      <trkpt lat="43.97927" lon="7.33117">
        <ele>991.74</ele>
        <time>2017-07-30T06:42:19Z</time>
      </trkpt>
      <trkpt lat="43.97922" lon="7.33132">
        <ele>993.18</ele>
        <time>2017-07-30T06:42:34Z</time>
      </trkpt>
      <trkpt lat="43.9792" lon="7.33145">
        <ele>995.1</ele>
        <time>2017-07-30T06:42:49Z</time>
      </trkpt>
      <trkpt lat="43.97919" lon="7.3315">
        <ele>996.54</ele>
        <time>2017-07-30T06:43:06Z</time>
      </trkpt>
      <trkpt lat="43.97914" lon="7.33163">
        <ele>998.95</ele>
        <time>2017-07-30T06:43:20Z</time>
      </trkpt>
      <trkpt lat="43.9791" lon="7.33171">
        <ele>1000.87</ele>
        <time>2017-07-30T06:43:36Z</time>
      </trkpt>
      <trkpt lat="43.97904" lon="7.33176">
        <ele>1002.79</ele>
        <time>2017-07-30T06:43:49Z</time>
      </trkpt>
      <trkpt lat="43.97899" lon="7.33183">
        <ele>1005.2</ele>
        <time>2017-07-30T06:44:06Z</time>
      </trkpt>
      <trkpt lat="43.97898" lon="7.33193">
        <ele>1007.6</ele>
        <time>2017-07-30T06:44:21Z</time>
      </trkpt>
      <trkpt lat="43.97898" lon="7.33204">
        <ele>1009.52</ele>
        <time>2017-07-30T06:44:36Z</time>
      </trkpt>
      <trkpt lat="43.97893" lon="7.3321">
        <ele>1010.96</ele>
        <time>2017-07-30T06:44:50Z</time>
      </trkpt>
      <trkpt lat="43.97892" lon="7.33214">
        <ele>1010.96</ele>
        <time>2017-07-30T06:45:15Z</time>
      </trkpt>
      <trkpt lat="43.97889" lon="7.33225">
        <ele>1011.93</ele>
        <time>2017-07-30T06:45:31Z</time>
      </trkpt>
      <trkpt lat="43.97887" lon="7.33239">
        <ele>1013.85</ele>
        <time>2017-07-30T06:45:46Z</time>
      </trkpt>
      <trkpt lat="43.97886" lon="7.33248">
        <ele>1016.25</ele>
        <time>2017-07-30T06:46:01Z</time>
      </trkpt>
      <trkpt lat="43.97893" lon="7.33255">
        <ele>1018.65</ele>
        <time>2017-07-30T06:46:15Z</time>
      </trkpt>
      <trkpt lat="43.97895" lon="7.33261">
        <ele>1020.1</ele>
        <time>2017-07-30T06:46:28Z</time>
      </trkpt>
      <trkpt lat="43.97896" lon="7.33274">
        <ele>1022.02</ele>
        <time>2017-07-30T06:46:43Z</time>
      </trkpt>
      <trkpt lat="43.97899" lon="7.33286">
        <ele>1023.46</ele>
        <time>2017-07-30T06:46:57Z</time>
      </trkpt>
      <trkpt lat="43.979" lon="7.333">
        <ele>1024.9</ele>
        <time>2017-07-30T06:47:12Z</time>
      </trkpt>
      <trkpt lat="43.97894" lon="7.3331">
        <ele>1026.83</ele>
        <time>2017-07-30T06:47:31Z</time>
      </trkpt>
      <trkpt lat="43.97891" lon="7.33323">
        <ele>1028.27</ele>
        <time>2017-07-30T06:47:47Z</time>
      </trkpt>
      <trkpt lat="43.97892" lon="7.33342">
        <ele>1030.19</ele>
        <time>2017-07-30T06:48:04Z</time>
      </trkpt>
      <trkpt lat="43.97894" lon="7.33359">
        <ele>1032.11</ele>
        <time>2017-07-30T06:48:21Z</time>
      </trkpt>
      <trkpt lat="43.97896" lon="7.33369">
        <ele>1034.04</ele>
        <time>2017-07-30T06:48:36Z</time>
      </trkpt>
      <trkpt lat="43.97898" lon="7.33382">
        <ele>1035.96</ele>
        <time>2017-07-30T06:48:53Z</time>
      </trkpt>
      <trkpt lat="43.97894" lon="7.33394">
        <ele>1039.32</ele>
        <time>2017-07-30T06:49:09Z</time>
      </trkpt>
      <trkpt lat="43.97888" lon="7.33395">
        <ele>1039.32</ele>
        <time>2017-07-30T06:49:27Z</time>
      </trkpt>
      <trkpt lat="43.97878" lon="7.33393">
        <ele>1039.8</ele>
        <time>2017-07-30T06:49:42Z</time>
      </trkpt>
      <trkpt lat="43.97864" lon="7.33393">
        <ele>1041.25</ele>
        <time>2017-07-30T06:49:59Z</time>
      </trkpt>
      <trkpt lat="43.97854" lon="7.33395">
        <ele>1043.17</ele>
        <time>2017-07-30T06:50:14Z</time>
      </trkpt>
      <trkpt lat="43.97843" lon="7.33397">
        <ele>1045.09</ele>
        <time>2017-07-30T06:50:30Z</time>
      </trkpt>
      <trkpt lat="43.97836" lon="7.33398">
        <ele>1046.53</ele>
        <time>2017-07-30T06:50:42Z</time>
      </trkpt>
      <trkpt lat="43.97825" lon="7.33398">
        <ele>1047.01</ele>
        <time>2017-07-30T06:50:55Z</time>
      </trkpt>
      <trkpt lat="43.97813" lon="7.33405">
        <ele>1048.45</ele>
        <time>2017-07-30T06:51:10Z</time>
      </trkpt>
      <trkpt lat="43.97805" lon="7.33409">
        <ele>1048.94</ele>
        <time>2017-07-30T06:51:22Z</time>
      </trkpt>
      <trkpt lat="43.97793" lon="7.33417">
        <ele>1048.94</ele>
        <time>2017-07-30T06:51:36Z</time>
      </trkpt>
      <trkpt lat="43.97781" lon="7.33422">
        <ele>1049.9</ele>
        <time>2017-07-30T06:51:51Z</time>
      </trkpt>
      <trkpt lat="43.97771" lon="7.33433">
        <ele>1049.9</ele>
        <time>2017-07-30T06:52:06Z</time>
      </trkpt>
      <trkpt lat="43.9777" lon="7.33457">
        <ele>1050.86</ele>
        <time>2017-07-30T06:52:20Z</time>
      </trkpt>
      <trkpt lat="43.97767" lon="7.33473">
        <ele>1052.3</ele>
        <time>2017-07-30T06:52:38Z</time>
      </trkpt>
      <trkpt lat="43.97759" lon="7.33484">
        <ele>1052.3</ele>
        <time>2017-07-30T06:52:53Z</time>
      </trkpt>
      <trkpt lat="43.97749" lon="7.3349">
        <ele>1052.3</ele>
        <time>2017-07-30T06:53:06Z</time>
      </trkpt>
      <trkpt lat="43.97738" lon="7.33497">
        <ele>1052.78</ele>
        <time>2017-07-30T06:53:21Z</time>
      </trkpt>
      <trkpt lat="43.97735" lon="7.33503">
        <ele>1053.26</ele>
        <time>2017-07-30T06:53:36Z</time>
      </trkpt>
      <trkpt lat="43.97733" lon="7.33504">
        <ele>1053.26</ele>
        <time>2017-07-30T06:53:57Z</time>
      </trkpt>
      <trkpt lat="43.97734" lon="7.33505">
        <ele>1053.26</ele>
        <time>2017-07-30T06:54:21Z</time>
      </trkpt>
      <trkpt lat="43.9774" lon="7.33506">
        <ele>1052.78</ele>
        <time>2017-07-30T06:54:42Z</time>
      </trkpt>
      <trkpt lat="43.97735" lon="7.33503">
        <ele>1053.26</ele>
        <time>2017-07-30T06:55:03Z</time>
      </trkpt>
      <trkpt lat="43.97733" lon="7.33503">
        <ele>1052.78</ele>
        <time>2017-07-30T06:55:29Z</time>
      </trkpt>
      <trkpt lat="43.97733" lon="7.33504">
        <ele>1053.26</ele>
        <time>2017-07-30T06:56:02Z</time>
      </trkpt>
      <trkpt lat="43.97734" lon="7.33504">
        <ele>1054.7</ele>
        <time>2017-07-30T06:56:06Z</time>
      </trkpt>
      <trkpt lat="43.97729" lon="7.33509">
        <ele>1053.74</ele>
        <time>2017-07-30T06:56:29Z</time>
      </trkpt>
      <trkpt lat="43.97726" lon="7.33514">
        <ele>1053.74</ele>
        <time>2017-07-30T06:56:48Z</time>
      </trkpt>
      <trkpt lat="43.97716" lon="7.3352">
        <ele>1054.22</ele>
        <time>2017-07-30T06:57:03Z</time>
      </trkpt>
      <trkpt lat="43.97705" lon="7.3352">
        <ele>1054.22</ele>
        <time>2017-07-30T06:57:17Z</time>
      </trkpt>
      <trkpt lat="43.97701" lon="7.3354">
        <ele>1054.22</ele>
        <time>2017-07-30T06:57:30Z</time>
      </trkpt>
      <trkpt lat="43.97695" lon="7.33557">
        <ele>1056.63</ele>
        <time>2017-07-30T06:57:45Z</time>
      </trkpt>
      <trkpt lat="43.97687" lon="7.33562">
        <ele>1056.63</ele>
        <time>2017-07-30T06:57:56Z</time>
      </trkpt>
      <trkpt lat="43.97672" lon="7.33565">
        <ele>1057.11</ele>
        <time>2017-07-30T06:58:14Z</time>
      </trkpt>
      <trkpt lat="43.97666" lon="7.33575">
        <ele>1058.55</ele>
        <time>2017-07-30T06:58:28Z</time>
      </trkpt>
      <trkpt lat="43.97665" lon="7.33589">
        <ele>1059.03</ele>
        <time>2017-07-30T06:58:41Z</time>
      </trkpt>
      <trkpt lat="43.97664" lon="7.33607">
        <ele>1059.51</ele>
        <time>2017-07-30T06:58:55Z</time>
      </trkpt>
      <trkpt lat="43.97663" lon="7.33628">
        <ele>1060.47</ele>
        <time>2017-07-30T06:59:09Z</time>
      </trkpt>
      <trkpt lat="43.97662" lon="7.3365">
        <ele>1061.91</ele>
        <time>2017-07-30T06:59:23Z</time>
      </trkpt>
      <trkpt lat="43.97657" lon="7.33662">
        <ele>1062.87</ele>
        <time>2017-07-30T06:59:36Z</time>
      </trkpt>
      <trkpt lat="43.97651" lon="7.33673">
        <ele>1063.84</ele>
        <time>2017-07-30T06:59:51Z</time>
      </trkpt>
      <trkpt lat="43.97642" lon="7.33679">
        <ele>1065.28</ele>
        <time>2017-07-30T07:00:06Z</time>
      </trkpt>
      <trkpt lat="43.97641" lon="7.33687">
        <ele>1065.28</ele>
        <time>2017-07-30T07:00:19Z</time>
      </trkpt>
      <trkpt lat="43.97641" lon="7.33688">
        <ele>1065.76</ele>
        <time>2017-07-30T07:00:31Z</time>
      </trkpt>
      <trkpt lat="43.9763" lon="7.33694">
        <ele>1065.76</ele>
        <time>2017-07-30T07:00:44Z</time>
      </trkpt>
      <trkpt lat="43.97622" lon="7.3371">
        <ele>1067.2</ele>
        <time>2017-07-30T07:00:58Z</time>
      </trkpt>
      <trkpt lat="43.97616" lon="7.3372">
        <ele>1067.68</ele>
        <time>2017-07-30T07:01:08Z</time>
      </trkpt>
      <trkpt lat="43.97615" lon="7.33722">
        <ele>1067.68</ele>
        <time>2017-07-30T07:01:10Z</time>
      </trkpt>
      <trkpt lat="43.97611" lon="7.33736">
        <ele>1067.68</ele>
        <time>2017-07-30T07:01:24Z</time>
      </trkpt>
      <trkpt lat="43.97602" lon="7.33745">
        <ele>1067.68</ele>
        <time>2017-07-30T07:01:37Z</time>
      </trkpt>
      <trkpt lat="43.97594" lon="7.33757">
        <ele>1068.64</ele>
        <time>2017-07-30T07:01:51Z</time>
      </trkpt>
      <trkpt lat="43.97585" lon="7.33767">
        <ele>1069.6</ele>
        <time>2017-07-30T07:02:05Z</time>
      </trkpt>
      <trkpt lat="43.97573" lon="7.33772">
        <ele>1070.08</ele>
        <time>2017-07-30T07:02:19Z</time>
      </trkpt>
      <trkpt lat="43.97561" lon="7.33779">
        <ele>1070.57</ele>
        <time>2017-07-30T07:02:33Z</time>
      </trkpt>
      <trkpt lat="43.9755" lon="7.33796">
        <ele>1071.05</ele>
        <time>2017-07-30T07:02:48Z</time>
      </trkpt>
      <trkpt lat="43.97541" lon="7.33808">
        <ele>1072.97</ele>
        <time>2017-07-30T07:03:04Z</time>
      </trkpt>
      <trkpt lat="43.97536" lon="7.33815">
        <ele>1074.41</ele>
        <time>2017-07-30T07:03:17Z</time>
      </trkpt>
      <trkpt lat="43.97532" lon="7.33828">
        <ele>1076.33</ele>
        <time>2017-07-30T07:03:33Z</time>
      </trkpt>
      <trkpt lat="43.97524" lon="7.33834">
        <ele>1078.26</ele>
        <time>2017-07-30T07:03:49Z</time>
      </trkpt>
      <trkpt lat="43.97514" lon="7.33834">
        <ele>1080.18</ele>
        <time>2017-07-30T07:04:06Z</time>
      </trkpt>
      <trkpt lat="43.97504" lon="7.33832">
        <ele>1082.58</ele>
        <time>2017-07-30T07:04:22Z</time>
      </trkpt>
      <trkpt lat="43.97497" lon="7.33829">
        <ele>1084.99</ele>
        <time>2017-07-30T07:04:41Z</time>
      </trkpt>
      <trkpt lat="43.9749" lon="7.33834">
        <ele>1087.39</ele>
        <time>2017-07-30T07:04:57Z</time>
      </trkpt>
      <trkpt lat="43.97487" lon="7.33844">
        <ele>1087.39</ele>
        <time>2017-07-30T07:05:16Z</time>
      </trkpt>
      <trkpt lat="43.97482" lon="7.33867">
        <ele>1087.39</ele>
        <time>2017-07-30T07:05:32Z</time>
      </trkpt>
      <trkpt lat="43.97472" lon="7.33878">
        <ele>1087.39</ele>
        <time>2017-07-30T07:05:46Z</time>
      </trkpt>
      <trkpt lat="43.97471" lon="7.33881">
        <ele>1089.31</ele>
        <time>2017-07-30T07:05:49Z</time>
      </trkpt>
      <trkpt lat="43.97466" lon="7.33891">
        <ele>1088.35</ele>
        <time>2017-07-30T07:06:04Z</time>
      </trkpt>
      <trkpt lat="43.9746" lon="7.33901">
        <ele>1088.35</ele>
        <time>2017-07-30T07:06:17Z</time>
      </trkpt>
      <trkpt lat="43.97459" lon="7.33911">
        <ele>1088.35</ele>
        <time>2017-07-30T07:06:25Z</time>
      </trkpt>
      <trkpt lat="43.97463" lon="7.33939">
        <ele>1088.35</ele>
        <time>2017-07-30T07:06:43Z</time>
      </trkpt>
      <trkpt lat="43.97469" lon="7.33956">
        <ele>1090.27</ele>
        <time>2017-07-30T07:06:58Z</time>
      </trkpt>
      <trkpt lat="43.97478" lon="7.33968">
        <ele>1090.75</ele>
        <time>2017-07-30T07:07:11Z</time>
      </trkpt>
      <trkpt lat="43.9749" lon="7.33979">
        <ele>1092.2</ele>
        <time>2017-07-30T07:07:26Z</time>
      </trkpt>
      <trkpt lat="43.975" lon="7.33991">
        <ele>1092.68</ele>
        <time>2017-07-30T07:07:39Z</time>
      </trkpt>
      <trkpt lat="43.97507" lon="7.34006">
        <ele>1093.64</ele>
        <time>2017-07-30T07:07:53Z</time>
      </trkpt>
      <trkpt lat="43.97514" lon="7.34017">
        <ele>1094.6</ele>
        <time>2017-07-30T07:08:05Z</time>
      </trkpt>
      <trkpt lat="43.97522" lon="7.34034">
        <ele>1094.6</ele>
        <time>2017-07-30T07:08:22Z</time>
      </trkpt>
      <trkpt lat="43.9753" lon="7.34046">
        <ele>1095.56</ele>
        <time>2017-07-30T07:08:36Z</time>
      </trkpt>
      <trkpt lat="43.9754" lon="7.34045">
        <ele>1095.56</ele>
        <time>2017-07-30T07:08:50Z</time>
      </trkpt>
      <trkpt lat="43.97539" lon="7.34047">
        <ele>1095.56</ele>
        <time>2017-07-30T07:09:16Z</time>
      </trkpt>
      <trkpt lat="43.9754" lon="7.34057">
        <ele>1096.04</ele>
        <time>2017-07-30T07:09:32Z</time>
      </trkpt>
      <trkpt lat="43.97545" lon="7.34071">
        <ele>1096.52</ele>
        <time>2017-07-30T07:09:45Z</time>
      </trkpt>
      <trkpt lat="43.97552" lon="7.34086">
        <ele>1097.48</ele>
        <time>2017-07-30T07:09:59Z</time>
      </trkpt>
      <trkpt lat="43.97553" lon="7.34096">
        <ele>1097.48</ele>
        <time>2017-07-30T07:10:07Z</time>
      </trkpt>
      <trkpt lat="43.97548" lon="7.34117">
        <ele>1098.44</ele>
        <time>2017-07-30T07:10:24Z</time>
      </trkpt>
      <trkpt lat="43.9754" lon="7.34133">
        <ele>1099.4</ele>
        <time>2017-07-30T07:10:39Z</time>
      </trkpt>
      <trkpt lat="43.9753" lon="7.34152">
        <ele>1100.37</ele>
        <time>2017-07-30T07:10:57Z</time>
      </trkpt>
      <trkpt lat="43.97526" lon="7.34168">
        <ele>1101.81</ele>
        <time>2017-07-30T07:11:11Z</time>
      </trkpt>
      <trkpt lat="43.97518" lon="7.34186">
        <ele>1102.77</ele>
        <time>2017-07-30T07:11:26Z</time>
      </trkpt>
      <trkpt lat="43.97512" lon="7.34196">
        <ele>1103.25</ele>
        <time>2017-07-30T07:11:36Z</time>
      </trkpt>
      <trkpt lat="43.97501" lon="7.34207">
        <ele>1105.17</ele>
        <time>2017-07-30T07:11:52Z</time>
      </trkpt>
      <trkpt lat="43.97487" lon="7.3421">
        <ele>1106.13</ele>
        <time>2017-07-30T07:12:08Z</time>
      </trkpt>
      <trkpt lat="43.97474" lon="7.34218">
        <ele>1107.1</ele>
        <time>2017-07-30T07:12:23Z</time>
      </trkpt>
      <trkpt lat="43.97466" lon="7.34231">
        <ele>1108.54</ele>
        <time>2017-07-30T07:12:38Z</time>
      </trkpt>
      <trkpt lat="43.9746" lon="7.34247">
        <ele>1109.5</ele>
        <time>2017-07-30T07:12:53Z</time>
      </trkpt>
      <trkpt lat="43.97456" lon="7.34266">
        <ele>1110.94</ele>
        <time>2017-07-30T07:13:09Z</time>
      </trkpt>
      <trkpt lat="43.97451" lon="7.34279">
        <ele>1111.9</ele>
        <time>2017-07-30T07:13:21Z</time>
      </trkpt>
      <trkpt lat="43.9744" lon="7.34288">
        <ele>1113.34</ele>
        <time>2017-07-30T07:13:38Z</time>
      </trkpt>
      <trkpt lat="43.97428" lon="7.34287">
        <ele>1115.27</ele>
        <time>2017-07-30T07:13:55Z</time>
      </trkpt>
      <trkpt lat="43.97418" lon="7.3429">
        <ele>1117.19</ele>
        <time>2017-07-30T07:14:11Z</time>
      </trkpt>
      <trkpt lat="43.97409" lon="7.343">
        <ele>1118.15</ele>
        <time>2017-07-30T07:14:26Z</time>
      </trkpt>
      <trkpt lat="43.97404" lon="7.34317">
        <ele>1119.59</ele>
        <time>2017-07-30T07:14:42Z</time>
      </trkpt>
      <trkpt lat="43.97398" lon="7.34328">
        <ele>1120.55</ele>
        <time>2017-07-30T07:14:55Z</time>
      </trkpt>
      <trkpt lat="43.97386" lon="7.34334">
        <ele>1121.52</ele>
        <time>2017-07-30T07:15:11Z</time>
      </trkpt>
      <trkpt lat="43.97373" lon="7.34334">
        <ele>1122.96</ele>
        <time>2017-07-30T07:15:26Z</time>
      </trkpt>
      <trkpt lat="43.9736" lon="7.34338">
        <ele>1124.4</ele>
        <time>2017-07-30T07:15:42Z</time>
      </trkpt>
      <trkpt lat="43.9735" lon="7.3435">
        <ele>1125.36</ele>
        <time>2017-07-30T07:15:58Z</time>
      </trkpt>
      <trkpt lat="43.97346" lon="7.34365">
        <ele>1126.8</ele>
        <time>2017-07-30T07:16:12Z</time>
      </trkpt>
      <trkpt lat="43.97344" lon="7.34384">
        <ele>1128.24</ele>
        <time>2017-07-30T07:16:29Z</time>
      </trkpt>
      <trkpt lat="43.97334" lon="7.34397">
        <ele>1128.73</ele>
        <time>2017-07-30T07:16:44Z</time>
      </trkpt>
      <trkpt lat="43.97321" lon="7.34401">
        <ele>1129.69</ele>
        <time>2017-07-30T07:16:59Z</time>
      </trkpt>
      <trkpt lat="43.9731" lon="7.34409">
        <ele>1130.65</ele>
        <time>2017-07-30T07:17:14Z</time>
      </trkpt>
      <trkpt lat="43.97302" lon="7.34425">
        <ele>1131.13</ele>
        <time>2017-07-30T07:17:28Z</time>
      </trkpt>
      <trkpt lat="43.9729" lon="7.34438">
        <ele>1132.09</ele>
        <time>2017-07-30T07:17:44Z</time>
      </trkpt>
      <trkpt lat="43.97289" lon="7.34441">
        <ele>1133.05</ele>
        <time>2017-07-30T07:17:59Z</time>
      </trkpt>
      <trkpt lat="43.97287" lon="7.34443">
        <ele>1133.53</ele>
        <time>2017-07-30T07:18:21Z</time>
      </trkpt>
      <trkpt lat="43.97286" lon="7.34445">
        <ele>1133.53</ele>
        <time>2017-07-30T07:18:24Z</time>
      </trkpt>
      <trkpt lat="43.97276" lon="7.34456">
        <ele>1134.01</ele>
        <time>2017-07-30T07:18:38Z</time>
      </trkpt>
      <trkpt lat="43.9727" lon="7.34476">
        <ele>1135.45</ele>
        <time>2017-07-30T07:18:54Z</time>
      </trkpt>
      <trkpt lat="43.97264" lon="7.34492">
        <ele>1136.42</ele>
        <time>2017-07-30T07:19:08Z</time>
      </trkpt>
      <trkpt lat="43.9726" lon="7.34505">
        <ele>1137.38</ele>
        <time>2017-07-30T07:19:18Z</time>
      </trkpt>
      <trkpt lat="43.97258" lon="7.34521">
        <ele>1138.34</ele>
        <time>2017-07-30T07:19:34Z</time>
      </trkpt>
      <trkpt lat="43.97253" lon="7.34532">
        <ele>1138.82</ele>
        <time>2017-07-30T07:19:48Z</time>
      </trkpt>
      <trkpt lat="43.97251" lon="7.34544">
        <ele>1139.3</ele>
        <time>2017-07-30T07:20:01Z</time>
      </trkpt>
      <trkpt lat="43.97257" lon="7.34552">
        <ele>1139.3</ele>
        <time>2017-07-30T07:20:13Z</time>
      </trkpt>
      <trkpt lat="43.9727" lon="7.34556">
        <ele>1141.22</ele>
        <time>2017-07-30T07:20:28Z</time>
      </trkpt>
      <trkpt lat="43.97279" lon="7.34568">
        <ele>1142.18</ele>
        <time>2017-07-30T07:20:43Z</time>
      </trkpt>
      <trkpt lat="43.97279" lon="7.34569">
        <ele>1142.18</ele>
        <time>2017-07-30T07:20:44Z</time>
      </trkpt>
      <trkpt lat="43.97289" lon="7.34576">
        <ele>1143.14</ele>
        <time>2017-07-30T07:20:59Z</time>
      </trkpt>
      <trkpt lat="43.97296" lon="7.34579">
        <ele>1143.63</ele>
        <time>2017-07-30T07:21:12Z</time>
      </trkpt>
      <trkpt lat="43.97306" lon="7.34589">
        <ele>1144.59</ele>
        <time>2017-07-30T07:21:25Z</time>
      </trkpt>
      <trkpt lat="43.97308" lon="7.346">
        <ele>1146.03</ele>
        <time>2017-07-30T07:21:37Z</time>
      </trkpt>
      <trkpt lat="43.97322" lon="7.34608">
        <ele>1147.47</ele>
        <time>2017-07-30T07:21:51Z</time>
      </trkpt>
      <trkpt lat="43.97334" lon="7.34609">
        <ele>1147.95</ele>
        <time>2017-07-30T07:22:05Z</time>
      </trkpt>
      <trkpt lat="43.97341" lon="7.34606">
        <ele>1149.39</ele>
        <time>2017-07-30T07:22:14Z</time>
      </trkpt>
      <trkpt lat="43.97352" lon="7.34607">
        <ele>1150.35</ele>
        <time>2017-07-30T07:22:28Z</time>
      </trkpt>
      <trkpt lat="43.97364" lon="7.34615">
        <ele>1151.32</ele>
        <time>2017-07-30T07:22:45Z</time>
      </trkpt>
      <trkpt lat="43.97377" lon="7.34626">
        <ele>1152.28</ele>
        <time>2017-07-30T07:23:01Z</time>
      </trkpt>
      <trkpt lat="43.97379" lon="7.34629">
        <ele>1152.76</ele>
        <time>2017-07-30T07:23:05Z</time>
      </trkpt>
      <trkpt lat="43.97381" lon="7.34631">
        <ele>1152.76</ele>
        <time>2017-07-30T07:23:07Z</time>
      </trkpt>
      <trkpt lat="43.97385" lon="7.34644">
        <ele>1153.72</ele>
        <time>2017-07-30T07:23:19Z</time>
      </trkpt>
      <trkpt lat="43.97391" lon="7.34657">
        <ele>1155.16</ele>
        <time>2017-07-30T07:23:34Z</time>
      </trkpt>
      <trkpt lat="43.97407" lon="7.34663">
        <ele>1156.12</ele>
        <time>2017-07-30T07:23:51Z</time>
      </trkpt>
      <trkpt lat="43.97419" lon="7.34673">
        <ele>1158.05</ele>
        <time>2017-07-30T07:24:07Z</time>
      </trkpt>
      <trkpt lat="43.97429" lon="7.34683">
        <ele>1159.01</ele>
        <time>2017-07-30T07:24:22Z</time>
      </trkpt>
      <trkpt lat="43.97439" lon="7.34691">
        <ele>1159.97</ele>
        <time>2017-07-30T07:24:36Z</time>
      </trkpt>
      <trkpt lat="43.97447" lon="7.34704">
        <ele>1160.93</ele>
        <time>2017-07-30T07:24:51Z</time>
      </trkpt>
      <trkpt lat="43.97456" lon="7.34713">
        <ele>1161.41</ele>
        <time>2017-07-30T07:25:04Z</time>
      </trkpt>
      <trkpt lat="43.97464" lon="7.34716">
        <ele>1162.85</ele>
        <time>2017-07-30T07:25:12Z</time>
      </trkpt>
      <trkpt lat="43.97472" lon="7.34717">
        <ele>1163.33</ele>
        <time>2017-07-30T07:25:21Z</time>
      </trkpt>
      <trkpt lat="43.97486" lon="7.34716">
        <ele>1164.29</ele>
        <time>2017-07-30T07:25:35Z</time>
      </trkpt>
      <trkpt lat="43.97497" lon="7.34725">
        <ele>1165.26</ele>
        <time>2017-07-30T07:25:51Z</time>
      </trkpt>
      <trkpt lat="43.97506" lon="7.34738">
        <ele>1166.22</ele>
        <time>2017-07-30T07:26:07Z</time>
      </trkpt>
      <trkpt lat="43.97517" lon="7.34748">
        <ele>1167.66</ele>
        <time>2017-07-30T07:26:23Z</time>
      </trkpt>
      <trkpt lat="43.97532" lon="7.34754">
        <ele>1168.62</ele>
        <time>2017-07-30T07:26:39Z</time>
      </trkpt>
      <trkpt lat="43.97544" lon="7.34763">
        <ele>1169.58</ele>
        <time>2017-07-30T07:26:54Z</time>
      </trkpt>
      <trkpt lat="43.97543" lon="7.34772">
        <ele>1170.54</ele>
        <time>2017-07-30T07:27:10Z</time>
      </trkpt>
      <trkpt lat="43.97533" lon="7.34781">
        <ele>1171.02</ele>
        <time>2017-07-30T07:27:24Z</time>
      </trkpt>
      <trkpt lat="43.97523" lon="7.34781">
        <ele>1171.5</ele>
        <time>2017-07-30T07:27:37Z</time>
      </trkpt>
      <trkpt lat="43.97505" lon="7.34787">
        <ele>1171.98</ele>
        <time>2017-07-30T07:27:54Z</time>
      </trkpt>
      <trkpt lat="43.9749" lon="7.34795">
        <ele>1172.95</ele>
        <time>2017-07-30T07:28:11Z</time>
      </trkpt>
      <trkpt lat="43.9748" lon="7.34804">
        <ele>1172.95</ele>
        <time>2017-07-30T07:28:26Z</time>
      </trkpt>
      <trkpt lat="43.97468" lon="7.3482">
        <ele>1172.95</ele>
        <time>2017-07-30T07:28:43Z</time>
      </trkpt>
      <trkpt lat="43.97458" lon="7.34835">
        <ele>1173.43</ele>
        <time>2017-07-30T07:28:57Z</time>
      </trkpt>
      <trkpt lat="43.97448" lon="7.34855">
        <ele>1173.43</ele>
        <time>2017-07-30T07:29:12Z</time>
      </trkpt>
      <trkpt lat="43.97443" lon="7.34875">
        <ele>1173.91</ele>
        <time>2017-07-30T07:29:27Z</time>
      </trkpt>
      <trkpt lat="43.97439" lon="7.34893">
        <ele>1173.91</ele>
        <time>2017-07-30T07:29:41Z</time>
      </trkpt>
      <trkpt lat="43.97436" lon="7.34907">
        <ele>1174.39</ele>
        <time>2017-07-30T07:29:50Z</time>
      </trkpt>
      <trkpt lat="43.97432" lon="7.34927">
        <ele>1174.87</ele>
        <time>2017-07-30T07:30:04Z</time>
      </trkpt>
      <trkpt lat="43.97427" lon="7.34944">
        <ele>1175.35</ele>
        <time>2017-07-30T07:30:18Z</time>
      </trkpt>
      <trkpt lat="43.97426" lon="7.34948">
        <ele>1175.35</ele>
        <time>2017-07-30T07:30:23Z</time>
      </trkpt>
      <trkpt lat="43.97417" lon="7.34966">
        <ele>1176.79</ele>
        <time>2017-07-30T07:30:38Z</time>
      </trkpt>
      <trkpt lat="43.97413" lon="7.34986">
        <ele>1177.27</ele>
        <time>2017-07-30T07:30:52Z</time>
      </trkpt>
      <trkpt lat="43.97409" lon="7.35002">
        <ele>1177.75</ele>
        <time>2017-07-30T07:31:05Z</time>
      </trkpt>
      <trkpt lat="43.97409" lon="7.35005">
        <ele>1177.75</ele>
        <time>2017-07-30T07:31:08Z</time>
      </trkpt>
      <trkpt lat="43.97403" lon="7.35023">
        <ele>1177.75</ele>
        <time>2017-07-30T07:31:23Z</time>
      </trkpt>
      <trkpt lat="43.97398" lon="7.35035">
        <ele>1177.75</ele>
        <time>2017-07-30T07:31:32Z</time>
      </trkpt>
      <trkpt lat="43.97389" lon="7.35053">
        <ele>1177.75</ele>
        <time>2017-07-30T07:31:47Z</time>
      </trkpt>
      <trkpt lat="43.97381" lon="7.35065">
        <ele>1177.75</ele>
        <time>2017-07-30T07:32:00Z</time>
      </trkpt>
      <trkpt lat="43.97372" lon="7.35077">
        <ele>1179.19</ele>
        <time>2017-07-30T07:32:13Z</time>
      </trkpt>
      <trkpt lat="43.9736" lon="7.35089">
        <ele>1180.16</ele>
        <time>2017-07-30T07:32:28Z</time>
      </trkpt>
      <trkpt lat="43.97346" lon="7.35094">
        <ele>1180.64</ele>
        <time>2017-07-30T07:32:42Z</time>
      </trkpt>
      <trkpt lat="43.97339" lon="7.35094">
        <ele>1180.64</ele>
        <time>2017-07-30T07:32:49Z</time>
      </trkpt>
      <trkpt lat="43.97327" lon="7.35103">
        <ele>1181.12</ele>
        <time>2017-07-30T07:33:04Z</time>
      </trkpt>
      <trkpt lat="43.97322" lon="7.35118">
        <ele>1182.56</ele>
        <time>2017-07-30T07:33:19Z</time>
      </trkpt>
      <trkpt lat="43.97316" lon="7.35136">
        <ele>1184</ele>
        <time>2017-07-30T07:33:35Z</time>
      </trkpt>
      <trkpt lat="43.97304" lon="7.35145">
        <ele>1184.96</ele>
        <time>2017-07-30T07:33:50Z</time>
      </trkpt>
      <trkpt lat="43.973" lon="7.35147">
        <ele>1185.44</ele>
        <time>2017-07-30T07:33:55Z</time>
      </trkpt>
      <trkpt lat="43.97287" lon="7.35152">
        <ele>1186.4</ele>
        <time>2017-07-30T07:34:09Z</time>
      </trkpt>
      <trkpt lat="43.97276" lon="7.35162">
        <ele>1186.88</ele>
        <time>2017-07-30T07:34:24Z</time>
      </trkpt>
      <trkpt lat="43.97268" lon="7.35172">
        <ele>1187.85</ele>
        <time>2017-07-30T07:34:38Z</time>
      </trkpt>
      <trkpt lat="43.97258" lon="7.35185">
        <ele>1188.81</ele>
        <time>2017-07-30T07:34:52Z</time>
      </trkpt>
      <trkpt lat="43.97252" lon="7.35205">
        <ele>1189.29</ele>
        <time>2017-07-30T07:35:06Z</time>
      </trkpt>
      <trkpt lat="43.97256" lon="7.35221">
        <ele>1190.25</ele>
        <time>2017-07-30T07:35:20Z</time>
      </trkpt>
      <trkpt lat="43.97257" lon="7.35223">
        <ele>1190.25</ele>
        <time>2017-07-30T07:35:23Z</time>
      </trkpt>
      <trkpt lat="43.97267" lon="7.35234">
        <ele>1190.25</ele>
        <time>2017-07-30T07:35:36Z</time>
      </trkpt>
      <trkpt lat="43.97278" lon="7.35243">
        <ele>1190.73</ele>
        <time>2017-07-30T07:35:52Z</time>
      </trkpt>
      <trkpt lat="43.9729" lon="7.35252">
        <ele>1191.21</ele>
        <time>2017-07-30T07:36:07Z</time>
      </trkpt>
      <trkpt lat="43.9729" lon="7.35254">
        <ele>1191.69</ele>
        <time>2017-07-30T07:36:09Z</time>
      </trkpt>
      <trkpt lat="43.97302" lon="7.35265">
        <ele>1192.65</ele>
        <time>2017-07-30T07:36:25Z</time>
      </trkpt>
      <trkpt lat="43.9731" lon="7.35272">
        <ele>1193.13</ele>
        <time>2017-07-30T07:36:37Z</time>
      </trkpt>
      <trkpt lat="43.97321" lon="7.35283">
        <ele>1194.58</ele>
        <time>2017-07-30T07:36:53Z</time>
      </trkpt>
      <trkpt lat="43.97328" lon="7.35297">
        <ele>1196.02</ele>
        <time>2017-07-30T07:37:08Z</time>
      </trkpt>
      <trkpt lat="43.97341" lon="7.35304">
        <ele>1196.5</ele>
        <time>2017-07-30T07:37:21Z</time>
      </trkpt>
      <trkpt lat="43.97353" lon="7.35306">
        <ele>1197.94</ele>
        <time>2017-07-30T07:37:36Z</time>
      </trkpt>
      <trkpt lat="43.97363" lon="7.35316">
        <ele>1198.42</ele>
        <time>2017-07-30T07:37:49Z</time>
      </trkpt>
      <trkpt lat="43.97369" lon="7.35333">
        <ele>1199.38</ele>
        <time>2017-07-30T07:38:06Z</time>
      </trkpt>
      <trkpt lat="43.97376" lon="7.35345">
        <ele>1200.34</ele>
        <time>2017-07-30T07:38:19Z</time>
      </trkpt>
      <trkpt lat="43.97385" lon="7.35356">
        <ele>1200.82</ele>
        <time>2017-07-30T07:38:34Z</time>
      </trkpt>
      <trkpt lat="43.97386" lon="7.35357">
        <ele>1200.82</ele>
        <time>2017-07-30T07:38:36Z</time>
      </trkpt>
      <trkpt lat="43.97397" lon="7.35368">
        <ele>1202.27</ele>
        <time>2017-07-30T07:38:51Z</time>
      </trkpt>
      <trkpt lat="43.97408" lon="7.35375">
        <ele>1203.23</ele>
        <time>2017-07-30T07:39:07Z</time>
      </trkpt>
      <trkpt lat="43.97415" lon="7.35382">
        <ele>1203.71</ele>
        <time>2017-07-30T07:39:20Z</time>
      </trkpt>
      <trkpt lat="43.97413" lon="7.35386">
        <ele>1203.71</ele>
        <time>2017-07-30T07:39:39Z</time>
      </trkpt>
      <trkpt lat="43.97415" lon="7.35384">
        <ele>1204.67</ele>
        <time>2017-07-30T07:39:55Z</time>
      </trkpt>
      <trkpt lat="43.97417" lon="7.35383">
        <ele>1203.23</ele>
        <time>2017-07-30T07:40:25Z</time>
      </trkpt>
      <trkpt lat="43.97417" lon="7.35384">
        <ele>1203.71</ele>
        <time>2017-07-30T07:41:04Z</time>
      </trkpt>
      <trkpt lat="43.97419" lon="7.35379">
        <ele>1204.19</ele>
        <time>2017-07-30T07:41:36Z</time>
      </trkpt>
      <trkpt lat="43.97415" lon="7.35382">
        <ele>1204.19</ele>
        <time>2017-07-30T07:42:22Z</time>
      </trkpt>
      <trkpt lat="43.97416" lon="7.35388">
        <ele>1204.67</ele>
        <time>2017-07-30T07:43:05Z</time>
      </trkpt>
      <trkpt lat="43.97414" lon="7.35388">
        <ele>1206.11</ele>
        <time>2017-07-30T07:43:22Z</time>
      </trkpt>
      <trkpt lat="43.97416" lon="7.35384">
        <ele>1205.15</ele>
        <time>2017-07-30T07:43:45Z</time>
      </trkpt>
      <trkpt lat="43.97417" lon="7.35384">
        <ele>1205.63</ele>
        <time>2017-07-30T07:44:20Z</time>
      </trkpt>
      <trkpt lat="43.97417" lon="7.3538">
        <ele>1205.63</ele>
        <time>2017-07-30T07:44:50Z</time>
      </trkpt>
      <trkpt lat="43.97417" lon="7.3538">
        <ele>1206.11</ele>
        <time>2017-07-30T07:45:23Z</time>
      </trkpt>
      <trkpt lat="43.97417" lon="7.35383">
        <ele>1206.11</ele>
        <time>2017-07-30T07:45:55Z</time>
      </trkpt>
      <trkpt lat="43.97419" lon="7.35383">
        <ele>1206.59</ele>
        <time>2017-07-30T07:46:31Z</time>
      </trkpt>
      <trkpt lat="43.97419" lon="7.35384">
        <ele>1206.59</ele>
        <time>2017-07-30T07:47:03Z</time>
      </trkpt>
      <trkpt lat="43.97418" lon="7.35387">
        <ele>1207.07</ele>
        <time>2017-07-30T07:47:28Z</time>
      </trkpt>
      <trkpt lat="43.97417" lon="7.35389">
        <ele>1207.07</ele>
        <time>2017-07-30T07:48:02Z</time>
      </trkpt>
      <trkpt lat="43.97415" lon="7.35388">
        <ele>1207.07</ele>
        <time>2017-07-30T07:48:30Z</time>
      </trkpt>
      <trkpt lat="43.97416" lon="7.35383">
        <ele>1207.07</ele>
        <time>2017-07-30T07:49:01Z</time>
      </trkpt>
      <trkpt lat="43.9742" lon="7.3538">
        <ele>1207.07</ele>
        <time>2017-07-30T07:49:37Z</time>
      </trkpt>
      <trkpt lat="43.97419" lon="7.35386">
        <ele>1207.55</ele>
        <time>2017-07-30T07:50:13Z</time>
      </trkpt>
      <trkpt lat="43.9742" lon="7.35381">
        <ele>1207.55</ele>
        <time>2017-07-30T07:50:40Z</time>
      </trkpt>
      <trkpt lat="43.97415" lon="7.35383">
        <ele>1208.03</ele>
        <time>2017-07-30T07:51:09Z</time>
      </trkpt>
      <trkpt lat="43.97412" lon="7.35385">
        <ele>1208.03</ele>
        <time>2017-07-30T07:51:35Z</time>
      </trkpt>
      <trkpt lat="43.97414" lon="7.35386">
        <ele>1208.03</ele>
        <time>2017-07-30T07:52:05Z</time>
      </trkpt>
      <trkpt lat="43.97419" lon="7.35383">
        <ele>1208.03</ele>
        <time>2017-07-30T07:52:31Z</time>
      </trkpt>
      <trkpt lat="43.97419" lon="7.35384">
        <ele>1208.51</ele>
        <time>2017-07-30T07:53:11Z</time>
      </trkpt>
      <trkpt lat="43.97415" lon="7.35385">
        <ele>1209.96</ele>
        <time>2017-07-30T07:53:40Z</time>
      </trkpt>
      <trkpt lat="43.97416" lon="7.35387">
        <ele>1209.48</ele>
        <time>2017-07-30T07:53:59Z</time>
      </trkpt>
      <trkpt lat="43.97421" lon="7.35386">
        <ele>1209.48</ele>
        <time>2017-07-30T07:54:15Z</time>
      </trkpt>
      <trkpt lat="43.97421" lon="7.35388">
        <ele>1209.48</ele>
        <time>2017-07-30T07:54:39Z</time>
      </trkpt>
      <trkpt lat="43.97418" lon="7.3539">
        <ele>1210.92</ele>
        <time>2017-07-30T07:54:53Z</time>
      </trkpt>
      <trkpt lat="43.97408" lon="7.35393">
        <ele>1212.84</ele>
        <time>2017-07-30T07:55:10Z</time>
      </trkpt>
      <trkpt lat="43.97399" lon="7.35401">
        <ele>1214.76</ele>
        <time>2017-07-30T07:55:23Z</time>
      </trkpt>
      <trkpt lat="43.97394" lon="7.35409">
        <ele>1216.21</ele>
        <time>2017-07-30T07:55:38Z</time>
      </trkpt>
      <trkpt lat="43.97389" lon="7.35417">
        <ele>1217.65</ele>
        <time>2017-07-30T07:55:52Z</time>
      </trkpt>
      <trkpt lat="43.97385" lon="7.35425">
        <ele>1219.09</ele>
        <time>2017-07-30T07:56:04Z</time>
      </trkpt>
      <trkpt lat="43.97384" lon="7.3544">
        <ele>1219.09</ele>
        <time>2017-07-30T07:56:18Z</time>
      </trkpt>
      <trkpt lat="43.97385" lon="7.35452">
        <ele>1220.05</ele>
        <time>2017-07-30T07:56:30Z</time>
      </trkpt>
      <trkpt lat="43.97385" lon="7.35461">
        <ele>1221.01</ele>
        <time>2017-07-30T07:56:41Z</time>
      </trkpt>
      <trkpt lat="43.97381" lon="7.35471">
        <ele>1221.49</ele>
        <time>2017-07-30T07:56:52Z</time>
      </trkpt>
      <trkpt lat="43.97379" lon="7.35484">
        <ele>1222.45</ele>
        <time>2017-07-30T07:57:04Z</time>
      </trkpt>
      <trkpt lat="43.97376" lon="7.35495">
        <ele>1223.9</ele>
        <time>2017-07-30T07:57:17Z</time>
      </trkpt>
      <trkpt lat="43.97371" lon="7.35507">
        <ele>1224.38</ele>
        <time>2017-07-30T07:57:30Z</time>
      </trkpt>
      <trkpt lat="43.97367" lon="7.35523">
        <ele>1224.86</ele>
        <time>2017-07-30T07:57:45Z</time>
      </trkpt>
      <trkpt lat="43.97364" lon="7.35532">
        <ele>1225.34</ele>
        <time>2017-07-30T07:57:55Z</time>
      </trkpt>
      <trkpt lat="43.97358" lon="7.35545">
        <ele>1225.34</ele>
        <time>2017-07-30T07:58:07Z</time>
      </trkpt>
      <trkpt lat="43.97354" lon="7.35558">
        <ele>1226.3</ele>
        <time>2017-07-30T07:58:20Z</time>
      </trkpt>
      <trkpt lat="43.97349" lon="7.35574">
        <ele>1226.78</ele>
        <time>2017-07-30T07:58:37Z</time>
      </trkpt>
      <trkpt lat="43.97347" lon="7.35589">
        <ele>1227.74</ele>
        <time>2017-07-30T07:58:52Z</time>
      </trkpt>
      <trkpt lat="43.97339" lon="7.35607">
        <ele>1227.74</ele>
        <time>2017-07-30T07:59:05Z</time>
      </trkpt>
      <trkpt lat="43.97334" lon="7.35615">
        <ele>1227.74</ele>
        <time>2017-07-30T07:59:13Z</time>
      </trkpt>
      <trkpt lat="43.97327" lon="7.35628">
        <ele>1228.22</ele>
        <time>2017-07-30T07:59:26Z</time>
      </trkpt>
      <trkpt lat="43.97322" lon="7.35638">
        <ele>1229.66</ele>
        <time>2017-07-30T07:59:39Z</time>
      </trkpt>
      <trkpt lat="43.97314" lon="7.35646">
        <ele>1231.11</ele>
        <time>2017-07-30T07:59:51Z</time>
      </trkpt>
      <trkpt lat="43.97308" lon="7.35656">
        <ele>1231.59</ele>
        <time>2017-07-30T08:00:06Z</time>
      </trkpt>
      <trkpt lat="43.97307" lon="7.3566">
        <ele>1231.59</ele>
        <time>2017-07-30T08:00:24Z</time>
      </trkpt>
      <trkpt lat="43.97302" lon="7.35666">
        <ele>1231.59</ele>
        <time>2017-07-30T08:00:36Z</time>
      </trkpt>
      <trkpt lat="43.97299" lon="7.35669">
        <ele>1233.03</ele>
        <time>2017-07-30T08:00:49Z</time>
      </trkpt>
      <trkpt lat="43.97292" lon="7.35677">
        <ele>1233.99</ele>
        <time>2017-07-30T08:01:02Z</time>
      </trkpt>
      <trkpt lat="43.97288" lon="7.35682">
        <ele>1235.91</ele>
        <time>2017-07-30T08:01:17Z</time>
      </trkpt>
      <trkpt lat="43.97284" lon="7.35679">
        <ele>1236.87</ele>
        <time>2017-07-30T08:01:28Z</time>
      </trkpt>
      <trkpt lat="43.97282" lon="7.35681">
        <ele>1238.32</ele>
        <time>2017-07-30T08:01:41Z</time>
      </trkpt>
      <trkpt lat="43.97278" lon="7.3569">
        <ele>1238.8</ele>
        <time>2017-07-30T08:01:54Z</time>
      </trkpt>
      <trkpt lat="43.97272" lon="7.35697">
        <ele>1241.68</ele>
        <time>2017-07-30T08:02:12Z</time>
      </trkpt>
      <trkpt lat="43.97267" lon="7.35696">
        <ele>1243.12</ele>
        <time>2017-07-30T08:02:25Z</time>
      </trkpt>
      <trkpt lat="43.97262" lon="7.35698">
        <ele>1245.53</ele>
        <time>2017-07-30T08:02:41Z</time>
      </trkpt>
      <trkpt lat="43.97262" lon="7.35702">
        <ele>1246.97</ele>
        <time>2017-07-30T08:02:57Z</time>
      </trkpt>
      <trkpt lat="43.97262" lon="7.35709">
        <ele>1248.89</ele>
        <time>2017-07-30T08:03:11Z</time>
      </trkpt>
      <trkpt lat="43.97264" lon="7.35714">
        <ele>1250.81</ele>
        <time>2017-07-30T08:03:24Z</time>
      </trkpt>
      <trkpt lat="43.97268" lon="7.35716">
        <ele>1252.25</ele>
        <time>2017-07-30T08:03:36Z</time>
      </trkpt>
      <trkpt lat="43.97275" lon="7.35721">
        <ele>1254.18</ele>
        <time>2017-07-30T08:03:51Z</time>
      </trkpt>
      <trkpt lat="43.97278" lon="7.35725">
        <ele>1256.1</ele>
        <time>2017-07-30T08:04:06Z</time>
      </trkpt>
      <trkpt lat="43.97279" lon="7.35729">
        <ele>1255.62</ele>
        <time>2017-07-30T08:04:20Z</time>
      </trkpt>
      <trkpt lat="43.97284" lon="7.35735">
        <ele>1258.02</ele>
        <time>2017-07-30T08:04:34Z</time>
      </trkpt>
      <trkpt lat="43.97295" lon="7.3574">
        <ele>1259.94</ele>
        <time>2017-07-30T08:04:51Z</time>
      </trkpt>
      <trkpt lat="43.97302" lon="7.35744">
        <ele>1262.83</ele>
        <time>2017-07-30T08:05:06Z</time>
      </trkpt>
      <trkpt lat="43.97311" lon="7.35755">
        <ele>1264.27</ele>
        <time>2017-07-30T08:05:21Z</time>
      </trkpt>
      <trkpt lat="43.97314" lon="7.35762">
        <ele>1265.71</ele>
        <time>2017-07-30T08:05:36Z</time>
      </trkpt>
      <trkpt lat="43.9732" lon="7.35772">
        <ele>1267.16</ele>
        <time>2017-07-30T08:05:50Z</time>
      </trkpt>
      <trkpt lat="43.97324" lon="7.35779">
        <ele>1269.08</ele>
        <time>2017-07-30T08:06:04Z</time>
      </trkpt>
      <trkpt lat="43.9733" lon="7.35787">
        <ele>1270.52</ele>
        <time>2017-07-30T08:06:19Z</time>
      </trkpt>
      <trkpt lat="43.97334" lon="7.35799">
        <ele>1272.44</ele>
        <time>2017-07-30T08:06:36Z</time>
      </trkpt>
      <trkpt lat="43.97334" lon="7.35808">
        <ele>1274.85</ele>
        <time>2017-07-30T08:06:51Z</time>
      </trkpt>
      <trkpt lat="43.97332" lon="7.35818">
        <ele>1277.25</ele>
        <time>2017-07-30T08:07:07Z</time>
      </trkpt>
      <trkpt lat="43.97333" lon="7.35826">
        <ele>1279.17</ele>
        <time>2017-07-30T08:07:24Z</time>
      </trkpt>
      <trkpt lat="43.97336" lon="7.35834">
        <ele>1280.61</ele>
        <time>2017-07-30T08:07:39Z</time>
      </trkpt>
      <trkpt lat="43.97332" lon="7.35839">
        <ele>1282.54</ele>
        <time>2017-07-30T08:07:52Z</time>
      </trkpt>
      <trkpt lat="43.97335" lon="7.35842">
        <ele>1283.98</ele>
        <time>2017-07-30T08:08:10Z</time>
      </trkpt>
      <trkpt lat="43.97337" lon="7.35845">
        <ele>1284.94</ele>
        <time>2017-07-30T08:08:27Z</time>
      </trkpt>
      <trkpt lat="43.97344" lon="7.35853">
        <ele>1285.9</ele>
        <time>2017-07-30T08:08:41Z</time>
      </trkpt>
      <trkpt lat="43.97348" lon="7.35861">
        <ele>1287.34</ele>
        <time>2017-07-30T08:08:55Z</time>
      </trkpt>
      <trkpt lat="43.97354" lon="7.35865">
        <ele>1289.75</ele>
        <time>2017-07-30T08:09:11Z</time>
      </trkpt>
      <trkpt lat="43.97359" lon="7.35869">
        <ele>1291.19</ele>
        <time>2017-07-30T08:09:27Z</time>
      </trkpt>
      <trkpt lat="43.97365" lon="7.35871">
        <ele>1292.63</ele>
        <time>2017-07-30T08:09:42Z</time>
      </trkpt>
      <trkpt lat="43.97373" lon="7.35873">
        <ele>1294.55</ele>
        <time>2017-07-30T08:09:57Z</time>
      </trkpt>
      <trkpt lat="43.97376" lon="7.35883">
        <ele>1296.48</ele>
        <time>2017-07-30T08:10:14Z</time>
      </trkpt>
      <trkpt lat="43.97378" lon="7.35896">
        <ele>1297.44</ele>
        <time>2017-07-30T08:10:30Z</time>
      </trkpt>
      <trkpt lat="43.97377" lon="7.35908">
        <ele>1298.88</ele>
        <time>2017-07-30T08:10:45Z</time>
      </trkpt>
      <trkpt lat="43.97374" lon="7.35918">
        <ele>1300.8</ele>
        <time>2017-07-30T08:11:00Z</time>
      </trkpt>
      <trkpt lat="43.97366" lon="7.3592">
        <ele>1303.2</ele>
        <time>2017-07-30T08:11:15Z</time>
      </trkpt>
      <trkpt lat="43.97362" lon="7.35924">
        <ele>1304.65</ele>
        <time>2017-07-30T08:11:27Z</time>
      </trkpt>
      <trkpt lat="43.97355" lon="7.35932">
        <ele>1306.09</ele>
        <time>2017-07-30T08:11:43Z</time>
      </trkpt>
      <trkpt lat="43.97348" lon="7.35935">
        <ele>1307.05</ele>
        <time>2017-07-30T08:12:02Z</time>
      </trkpt>
      <trkpt lat="43.97348" lon="7.35925">
        <ele>1308.97</ele>
        <time>2017-07-30T08:12:19Z</time>
      </trkpt>
      <trkpt lat="43.97346" lon="7.35924">
        <ele>1310.41</ele>
        <time>2017-07-30T08:12:31Z</time>
      </trkpt>
      <trkpt lat="43.97342" lon="7.35925">
        <ele>1313.3</ele>
        <time>2017-07-30T08:12:47Z</time>
      </trkpt>
      <trkpt lat="43.97333" lon="7.35922">
        <ele>1315.22</ele>
        <time>2017-07-30T08:13:04Z</time>
      </trkpt>
      <trkpt lat="43.97329" lon="7.35931">
        <ele>1317.14</ele>
        <time>2017-07-30T08:13:20Z</time>
      </trkpt>
      <trkpt lat="43.97325" lon="7.35931">
        <ele>1318.1</ele>
        <time>2017-07-30T08:13:34Z</time>
      </trkpt>
      <trkpt lat="43.97318" lon="7.35927">
        <ele>1318.1</ele>
        <time>2017-07-30T08:13:53Z</time>
      </trkpt>
      <trkpt lat="43.97315" lon="7.35933">
        <ele>1318.59</ele>
        <time>2017-07-30T08:14:05Z</time>
      </trkpt>
      <trkpt lat="43.97316" lon="7.35936">
        <ele>1319.07</ele>
        <time>2017-07-30T08:14:08Z</time>
      </trkpt>
      <trkpt lat="43.97321" lon="7.35949">
        <ele>1320.03</ele>
        <time>2017-07-30T08:14:21Z</time>
      </trkpt>
      <trkpt lat="43.97331" lon="7.35968">
        <ele>1320.99</ele>
        <time>2017-07-30T08:14:37Z</time>
      </trkpt>
      <trkpt lat="43.9734" lon="7.3599">
        <ele>1321.95</ele>
        <time>2017-07-30T08:14:55Z</time>
      </trkpt>
      <trkpt lat="43.97341" lon="7.36008">
        <ele>1322.43</ele>
        <time>2017-07-30T08:15:10Z</time>
      </trkpt>
      <trkpt lat="43.9734" lon="7.36025">
        <ele>1322.91</ele>
        <time>2017-07-30T08:15:25Z</time>
      </trkpt>
      <trkpt lat="43.97341" lon="7.36043">
        <ele>1323.87</ele>
        <time>2017-07-30T08:15:41Z</time>
      </trkpt>
      <trkpt lat="43.97347" lon="7.36065">
        <ele>1324.83</ele>
        <time>2017-07-30T08:15:58Z</time>
      </trkpt>
      <trkpt lat="43.97356" lon="7.3608">
        <ele>1325.31</ele>
        <time>2017-07-30T08:16:12Z</time>
      </trkpt>
      <trkpt lat="43.97371" lon="7.36088">
        <ele>1326.28</ele>
        <time>2017-07-30T08:16:29Z</time>
      </trkpt>
      <trkpt lat="43.9738" lon="7.36097">
        <ele>1327.24</ele>
        <time>2017-07-30T08:16:44Z</time>
      </trkpt>
      <trkpt lat="43.97391" lon="7.36106">
        <ele>1328.2</ele>
        <time>2017-07-30T08:16:59Z</time>
      </trkpt>
      <trkpt lat="43.97398" lon="7.36113">
        <ele>1328.68</ele>
        <time>2017-07-30T08:17:12Z</time>
      </trkpt>
      <trkpt lat="43.97403" lon="7.36129">
        <ele>1329.64</ele>
        <time>2017-07-30T08:17:28Z</time>
      </trkpt>
      <trkpt lat="43.97411" lon="7.36143">
        <ele>1330.6</ele>
        <time>2017-07-30T08:17:44Z</time>
      </trkpt>
      <trkpt lat="43.97419" lon="7.36151">
        <ele>1332.04</ele>
        <time>2017-07-30T08:17:58Z</time>
      </trkpt>
      <trkpt lat="43.97431" lon="7.36156">
        <ele>1333.49</ele>
        <time>2017-07-30T08:18:13Z</time>
      </trkpt>
      <trkpt lat="43.97445" lon="7.36162">
        <ele>1334.45</ele>
        <time>2017-07-30T08:18:28Z</time>
      </trkpt>
      <trkpt lat="43.97457" lon="7.36167">
        <ele>1335.41</ele>
        <time>2017-07-30T08:18:42Z</time>
      </trkpt>
      <trkpt lat="43.97466" lon="7.36168">
        <ele>1335.41</ele>
        <time>2017-07-30T08:18:57Z</time>
      </trkpt>
      <trkpt lat="43.97475" lon="7.36166">
        <ele>1336.85</ele>
        <time>2017-07-30T08:19:10Z</time>
      </trkpt>
      <trkpt lat="43.97478" lon="7.3616">
        <ele>1337.33</ele>
        <time>2017-07-30T08:19:30Z</time>
      </trkpt>
      <trkpt lat="43.97487" lon="7.36154">
        <ele>1337.33</ele>
        <time>2017-07-30T08:19:49Z</time>
      </trkpt>
      <trkpt lat="43.97497" lon="7.36149">
        <ele>1338.29</ele>
        <time>2017-07-30T08:20:02Z</time>
      </trkpt>
      <trkpt lat="43.97511" lon="7.36147">
        <ele>1339.73</ele>
        <time>2017-07-30T08:20:18Z</time>
      </trkpt>
      <trkpt lat="43.97517" lon="7.36153">
        <ele>1341.18</ele>
        <time>2017-07-30T08:20:31Z</time>
      </trkpt>
      <trkpt lat="43.97519" lon="7.3617">
        <ele>1342.14</ele>
        <time>2017-07-30T08:20:48Z</time>
      </trkpt>
      <trkpt lat="43.97519" lon="7.36186">
        <ele>1343.58</ele>
        <time>2017-07-30T08:21:03Z</time>
      </trkpt>
      <trkpt lat="43.97516" lon="7.36201">
        <ele>1344.54</ele>
        <time>2017-07-30T08:21:17Z</time>
      </trkpt>
      <trkpt lat="43.97514" lon="7.36214">
        <ele>1345.5</ele>
        <time>2017-07-30T08:21:29Z</time>
      </trkpt>
      <trkpt lat="43.97512" lon="7.36227">
        <ele>1346.46</ele>
        <time>2017-07-30T08:21:41Z</time>
      </trkpt>
      <trkpt lat="43.97508" lon="7.36242">
        <ele>1347.43</ele>
        <time>2017-07-30T08:21:55Z</time>
      </trkpt>
      <trkpt lat="43.97504" lon="7.36255">
        <ele>1348.39</ele>
        <time>2017-07-30T08:22:08Z</time>
      </trkpt>
      <trkpt lat="43.97497" lon="7.36259">
        <ele>1349.35</ele>
        <time>2017-07-30T08:22:19Z</time>
      </trkpt>
      <trkpt lat="43.97488" lon="7.3626">
        <ele>1350.31</ele>
        <time>2017-07-30T08:22:33Z</time>
      </trkpt>
      <trkpt lat="43.97486" lon="7.36259">
        <ele>1350.79</ele>
        <time>2017-07-30T08:22:36Z</time>
      </trkpt>
      <trkpt lat="43.97472" lon="7.36263">
        <ele>1351.75</ele>
        <time>2017-07-30T08:22:49Z</time>
      </trkpt>
      <trkpt lat="43.9747" lon="7.36264">
        <ele>1352.23</ele>
        <time>2017-07-30T08:22:53Z</time>
      </trkpt>
      <trkpt lat="43.97458" lon="7.36273">
        <ele>1353.19</ele>
        <time>2017-07-30T08:23:06Z</time>
      </trkpt>
      <trkpt lat="43.97455" lon="7.36274">
        <ele>1353.67</ele>
        <time>2017-07-30T08:23:17Z</time>
      </trkpt>
      <trkpt lat="43.97447" lon="7.36281">
        <ele>1354.15</ele>
        <time>2017-07-30T08:23:27Z</time>
      </trkpt>
      <trkpt lat="43.97438" lon="7.36282">
        <ele>1354.15</ele>
        <time>2017-07-30T08:23:39Z</time>
      </trkpt>
      <trkpt lat="43.97435" lon="7.36282">
        <ele>1355.6</ele>
        <time>2017-07-30T08:23:41Z</time>
      </trkpt>
      <trkpt lat="43.97428" lon="7.36285">
        <ele>1356.08</ele>
        <time>2017-07-30T08:23:54Z</time>
      </trkpt>
      <trkpt lat="43.97425" lon="7.36289">
        <ele>1356.08</ele>
        <time>2017-07-30T08:23:58Z</time>
      </trkpt>
      <trkpt lat="43.97416" lon="7.36302">
        <ele>1357.04</ele>
        <time>2017-07-30T08:24:12Z</time>
      </trkpt>
      <trkpt lat="43.97409" lon="7.36319">
        <ele>1358</ele>
        <time>2017-07-30T08:24:26Z</time>
      </trkpt>
      <trkpt lat="43.97401" lon="7.36333">
        <ele>1358.96</ele>
        <time>2017-07-30T08:24:43Z</time>
      </trkpt>
      <trkpt lat="43.9739" lon="7.36344">
        <ele>1359.44</ele>
        <time>2017-07-30T08:24:58Z</time>
      </trkpt>
      <trkpt lat="43.97379" lon="7.36347">
        <ele>1360.4</ele>
        <time>2017-07-30T08:25:10Z</time>
      </trkpt>
      <trkpt lat="43.97358" lon="7.36345">
        <ele>1362.33</ele>
        <time>2017-07-30T08:25:28Z</time>
      </trkpt>
      <trkpt lat="43.97349" lon="7.36352">
        <ele>1363.29</ele>
        <time>2017-07-30T08:25:41Z</time>
      </trkpt>
      <trkpt lat="43.97342" lon="7.36363">
        <ele>1364.25</ele>
        <time>2017-07-30T08:25:55Z</time>
      </trkpt>
      <trkpt lat="43.97334" lon="7.36373">
        <ele>1364.73</ele>
        <time>2017-07-30T08:26:09Z</time>
      </trkpt>
      <trkpt lat="43.97327" lon="7.36386">
        <ele>1365.21</ele>
        <time>2017-07-30T08:26:22Z</time>
      </trkpt>
      <trkpt lat="43.9732" lon="7.36401">
        <ele>1365.69</ele>
        <time>2017-07-30T08:26:34Z</time>
      </trkpt>
      <trkpt lat="43.97318" lon="7.36418">
        <ele>1367.61</ele>
        <time>2017-07-30T08:26:49Z</time>
      </trkpt>
      <trkpt lat="43.97314" lon="7.36435">
        <ele>1369.05</ele>
        <time>2017-07-30T08:27:05Z</time>
      </trkpt>
      <trkpt lat="43.97308" lon="7.36444">
        <ele>1370.02</ele>
        <time>2017-07-30T08:27:18Z</time>
      </trkpt>
      <trkpt lat="43.97299" lon="7.36452">
        <ele>1370.98</ele>
        <time>2017-07-30T08:27:33Z</time>
      </trkpt>
      <trkpt lat="43.97286" lon="7.36466">
        <ele>1372.42</ele>
        <time>2017-07-30T08:27:48Z</time>
      </trkpt>
      <trkpt lat="43.97279" lon="7.36487">
        <ele>1373.38</ele>
        <time>2017-07-30T08:28:05Z</time>
      </trkpt>
      <trkpt lat="43.97284" lon="7.36504">
        <ele>1374.82</ele>
        <time>2017-07-30T08:28:20Z</time>
      </trkpt>
      <trkpt lat="43.97291" lon="7.36516">
        <ele>1375.78</ele>
        <time>2017-07-30T08:28:34Z</time>
      </trkpt>
      <trkpt lat="43.97298" lon="7.36521">
        <ele>1376.26</ele>
        <time>2017-07-30T08:28:49Z</time>
      </trkpt>
      <trkpt lat="43.973" lon="7.36531">
        <ele>1376.26</ele>
        <time>2017-07-30T08:29:03Z</time>
      </trkpt>
      <trkpt lat="43.97302" lon="7.36545">
        <ele>1377.23</ele>
        <time>2017-07-30T08:29:13Z</time>
      </trkpt>
      <trkpt lat="43.97297" lon="7.36559">
        <ele>1378.19</ele>
        <time>2017-07-30T08:29:27Z</time>
      </trkpt>
      <trkpt lat="43.97287" lon="7.36567">
        <ele>1379.15</ele>
        <time>2017-07-30T08:29:40Z</time>
      </trkpt>
      <trkpt lat="43.97275" lon="7.36576">
        <ele>1380.11</ele>
        <time>2017-07-30T08:29:53Z</time>
      </trkpt>
      <trkpt lat="43.97265" lon="7.36582">
        <ele>1381.07</ele>
        <time>2017-07-30T08:30:06Z</time>
      </trkpt>
      <trkpt lat="43.97257" lon="7.36592">
        <ele>1382.03</ele>
        <time>2017-07-30T08:30:20Z</time>
      </trkpt>
      <trkpt lat="43.97247" lon="7.36605">
        <ele>1382.51</ele>
        <time>2017-07-30T08:30:32Z</time>
      </trkpt>
      <trkpt lat="43.97242" lon="7.36613">
        <ele>1382.99</ele>
        <time>2017-07-30T08:30:41Z</time>
      </trkpt>
      <trkpt lat="43.97234" lon="7.36624">
        <ele>1383.47</ele>
        <time>2017-07-30T08:30:52Z</time>
      </trkpt>
      <trkpt lat="43.97223" lon="7.36636">
        <ele>1384.44</ele>
        <time>2017-07-30T08:31:05Z</time>
      </trkpt>
      <trkpt lat="43.97215" lon="7.36651">
        <ele>1385.88</ele>
        <time>2017-07-30T08:31:21Z</time>
      </trkpt>
      <trkpt lat="43.97208" lon="7.36663">
        <ele>1387.8</ele>
        <time>2017-07-30T08:31:33Z</time>
      </trkpt>
      <trkpt lat="43.97202" lon="7.36675">
        <ele>1388.76</ele>
        <time>2017-07-30T08:31:45Z</time>
      </trkpt>
      <trkpt lat="43.972" lon="7.3668">
        <ele>1388.76</ele>
        <time>2017-07-30T08:31:50Z</time>
      </trkpt>
      <trkpt lat="43.97196" lon="7.36695">
        <ele>1390.2</ele>
        <time>2017-07-30T08:32:05Z</time>
      </trkpt>
      <trkpt lat="43.9719" lon="7.36709">
        <ele>1391.65</ele>
        <time>2017-07-30T08:32:19Z</time>
      </trkpt>
      <trkpt lat="43.97182" lon="7.36724">
        <ele>1392.13</ele>
        <time>2017-07-30T08:32:32Z</time>
      </trkpt>
      <trkpt lat="43.97179" lon="7.36742">
        <ele>1393.09</ele>
        <time>2017-07-30T08:32:47Z</time>
      </trkpt>
      <trkpt lat="43.9718" lon="7.36756">
        <ele>1394.53</ele>
        <time>2017-07-30T08:33:00Z</time>
      </trkpt>
      <trkpt lat="43.97181" lon="7.3677">
        <ele>1395.49</ele>
        <time>2017-07-30T08:33:11Z</time>
      </trkpt>
      <trkpt lat="43.9718" lon="7.36786">
        <ele>1396.45</ele>
        <time>2017-07-30T08:33:25Z</time>
      </trkpt>
      <trkpt lat="43.97178" lon="7.368">
        <ele>1397.89</ele>
        <time>2017-07-30T08:33:38Z</time>
      </trkpt>
      <trkpt lat="43.97177" lon="7.36816">
        <ele>1398.37</ele>
        <time>2017-07-30T08:33:51Z</time>
      </trkpt>
      <trkpt lat="43.97178" lon="7.36831">
        <ele>1399.82</ele>
        <time>2017-07-30T08:34:03Z</time>
      </trkpt>
      <trkpt lat="43.97178" lon="7.36848">
        <ele>1400.78</ele>
        <time>2017-07-30T08:34:19Z</time>
      </trkpt>
      <trkpt lat="43.97177" lon="7.36866">
        <ele>1402.22</ele>
        <time>2017-07-30T08:34:34Z</time>
      </trkpt>
      <trkpt lat="43.97178" lon="7.3688">
        <ele>1402.7</ele>
        <time>2017-07-30T08:34:47Z</time>
      </trkpt>
      <trkpt lat="43.97176" lon="7.36889">
        <ele>1403.18</ele>
        <time>2017-07-30T08:34:54Z</time>
      </trkpt>
      <trkpt lat="43.97175" lon="7.36903">
        <ele>1403.66</ele>
        <time>2017-07-30T08:35:08Z</time>
      </trkpt>
      <trkpt lat="43.97171" lon="7.36921">
        <ele>1405.1</ele>
        <time>2017-07-30T08:35:25Z</time>
      </trkpt>
      <trkpt lat="43.97171" lon="7.36931">
        <ele>1405.1</ele>
        <time>2017-07-30T08:35:38Z</time>
      </trkpt>
      <trkpt lat="43.97174" lon="7.36936">
        <ele>1405.58</ele>
        <time>2017-07-30T08:35:57Z</time>
      </trkpt>
      <trkpt lat="43.97173" lon="7.36937">
        <ele>1406.07</ele>
        <time>2017-07-30T08:36:16Z</time>
      </trkpt>
      <trkpt lat="43.97173" lon="7.36937">
        <ele>1406.07</ele>
        <time>2017-07-30T08:36:39Z</time>
      </trkpt>
      <trkpt lat="43.97174" lon="7.36943">
        <ele>1406.07</ele>
        <time>2017-07-30T08:37:03Z</time>
      </trkpt>
      <trkpt lat="43.97174" lon="7.36943">
        <ele>1406.07</ele>
        <time>2017-07-30T08:37:19Z</time>
      </trkpt>
      <trkpt lat="43.97176" lon="7.36943">
        <ele>1407.03</ele>
        <time>2017-07-30T08:37:40Z</time>
      </trkpt>
      <trkpt lat="43.97178" lon="7.36941">
        <ele>1405.58</ele>
        <time>2017-07-30T08:37:56Z</time>
      </trkpt>
      <trkpt lat="43.97181" lon="7.36941">
        <ele>1406.55</ele>
        <time>2017-07-30T08:38:17Z</time>
      </trkpt>
      <trkpt lat="43.97186" lon="7.36936">
        <ele>1406.55</ele>
        <time>2017-07-30T08:38:45Z</time>
      </trkpt>
      <trkpt lat="43.97184" lon="7.36951">
        <ele>1407.03</ele>
        <time>2017-07-30T08:39:03Z</time>
      </trkpt>
      <trkpt lat="43.97185" lon="7.36966">
        <ele>1408.47</ele>
        <time>2017-07-30T08:39:17Z</time>
      </trkpt>
      <trkpt lat="43.97185" lon="7.36984">
        <ele>1408.95</ele>
        <time>2017-07-30T08:39:33Z</time>
      </trkpt>
      <trkpt lat="43.97185" lon="7.37001">
        <ele>1409.91</ele>
        <time>2017-07-30T08:39:47Z</time>
      </trkpt>
      <trkpt lat="43.9718" lon="7.37015">
        <ele>1411.35</ele>
        <time>2017-07-30T08:40:02Z</time>
      </trkpt>
      <trkpt lat="43.97176" lon="7.37031">
        <ele>1412.31</ele>
        <time>2017-07-30T08:40:18Z</time>
      </trkpt>
      <trkpt lat="43.97173" lon="7.37047">
        <ele>1414.24</ele>
        <time>2017-07-30T08:40:34Z</time>
      </trkpt>
      <trkpt lat="43.97168" lon="7.37063">
        <ele>1415.68</ele>
        <time>2017-07-30T08:40:50Z</time>
      </trkpt>
      <trkpt lat="43.97164" lon="7.37073">
        <ele>1416.64</ele>
        <time>2017-07-30T08:41:03Z</time>
      </trkpt>
      <trkpt lat="43.97159" lon="7.37086">
        <ele>1417.6</ele>
        <time>2017-07-30T08:41:17Z</time>
      </trkpt>
      <trkpt lat="43.97153" lon="7.37102">
        <ele>1418.08</ele>
        <time>2017-07-30T08:41:30Z</time>
      </trkpt>
      <trkpt lat="43.97152" lon="7.37116">
        <ele>1419.04</ele>
        <time>2017-07-30T08:41:45Z</time>
      </trkpt>
      <trkpt lat="43.97155" lon="7.3713">
        <ele>1419.52</ele>
        <time>2017-07-30T08:41:59Z</time>
      </trkpt>
      <trkpt lat="43.97158" lon="7.37141">
        <ele>1420</ele>
        <time>2017-07-30T08:42:11Z</time>
      </trkpt>
      <trkpt lat="43.97168" lon="7.37143">
        <ele>1420.49</ele>
        <time>2017-07-30T08:42:24Z</time>
      </trkpt>
      <trkpt lat="43.97176" lon="7.37136">
        <ele>1421.45</ele>
        <time>2017-07-30T08:42:40Z</time>
      </trkpt>
      <trkpt lat="43.97186" lon="7.37124">
        <ele>1422.41</ele>
        <time>2017-07-30T08:42:56Z</time>
      </trkpt>
      <trkpt lat="43.97198" lon="7.37119">
        <ele>1423.37</ele>
        <time>2017-07-30T08:43:10Z</time>
      </trkpt>
      <trkpt lat="43.97204" lon="7.37112">
        <ele>1423.85</ele>
        <time>2017-07-30T08:43:22Z</time>
      </trkpt>
      <trkpt lat="43.97214" lon="7.37106">
        <ele>1424.33</ele>
        <time>2017-07-30T08:43:35Z</time>
      </trkpt>
      <trkpt lat="43.97222" lon="7.371">
        <ele>1424.81</ele>
        <time>2017-07-30T08:43:50Z</time>
      </trkpt>
      <trkpt lat="43.97221" lon="7.37102">
        <ele>1424.81</ele>
        <time>2017-07-30T08:44:11Z</time>
      </trkpt>
      <trkpt lat="43.97236" lon="7.37103">
        <ele>1426.25</ele>
        <time>2017-07-30T08:44:28Z</time>
      </trkpt>
      <trkpt lat="43.97253" lon="7.37106">
        <ele>1427.21</ele>
        <time>2017-07-30T08:44:45Z</time>
      </trkpt>
      <trkpt lat="43.97262" lon="7.37109">
        <ele>1428.66</ele>
        <time>2017-07-30T08:44:59Z</time>
      </trkpt>
      <trkpt lat="43.97275" lon="7.37112">
        <ele>1429.62</ele>
        <time>2017-07-30T08:45:16Z</time>
      </trkpt>
      <trkpt lat="43.97286" lon="7.37118">
        <ele>1430.58</ele>
        <time>2017-07-30T08:45:31Z</time>
      </trkpt>
      <trkpt lat="43.9729" lon="7.3713">
        <ele>1431.54</ele>
        <time>2017-07-30T08:45:44Z</time>
      </trkpt>
      <trkpt lat="43.97289" lon="7.37141">
        <ele>1432.5</ele>
        <time>2017-07-30T08:45:55Z</time>
      </trkpt>
      <trkpt lat="43.9729" lon="7.37159">
        <ele>1433.46</ele>
        <time>2017-07-30T08:46:11Z</time>
      </trkpt>
      <trkpt lat="43.97291" lon="7.37174">
        <ele>1434.42</ele>
        <time>2017-07-30T08:46:24Z</time>
      </trkpt>
      <trkpt lat="43.97295" lon="7.37193">
        <ele>1435.39</ele>
        <time>2017-07-30T08:46:40Z</time>
      </trkpt>
      <trkpt lat="43.973" lon="7.37209">
        <ele>1436.35</ele>
        <time>2017-07-30T08:46:53Z</time>
      </trkpt>
      <trkpt lat="43.97307" lon="7.37225">
        <ele>1437.31</ele>
        <time>2017-07-30T08:47:08Z</time>
      </trkpt>
      <trkpt lat="43.97315" lon="7.3724">
        <ele>1438.27</ele>
        <time>2017-07-30T08:47:24Z</time>
      </trkpt>
      <trkpt lat="43.97319" lon="7.37254">
        <ele>1439.23</ele>
        <time>2017-07-30T08:47:38Z</time>
      </trkpt>
      <trkpt lat="43.97322" lon="7.37268">
        <ele>1440.19</ele>
        <time>2017-07-30T08:47:50Z</time>
      </trkpt>
      <trkpt lat="43.97323" lon="7.37283">
        <ele>1441.15</ele>
        <time>2017-07-30T08:48:03Z</time>
      </trkpt>
      <trkpt lat="43.97322" lon="7.37299">
        <ele>1442.11</ele>
        <time>2017-07-30T08:48:18Z</time>
      </trkpt>
      <trkpt lat="43.97318" lon="7.37314">
        <ele>1443.56</ele>
        <time>2017-07-30T08:48:32Z</time>
      </trkpt>
      <trkpt lat="43.97316" lon="7.37328">
        <ele>1444.52</ele>
        <time>2017-07-30T08:48:45Z</time>
      </trkpt>
      <trkpt lat="43.97313" lon="7.37342">
        <ele>1445.48</ele>
        <time>2017-07-30T08:48:58Z</time>
      </trkpt>
      <trkpt lat="43.97313" lon="7.37356">
        <ele>1446.44</ele>
        <time>2017-07-30T08:49:11Z</time>
      </trkpt>
      <trkpt lat="43.97313" lon="7.3737">
        <ele>1446.92</ele>
        <time>2017-07-30T08:49:23Z</time>
      </trkpt>
      <trkpt lat="43.97315" lon="7.37386">
        <ele>1448.36</ele>
        <time>2017-07-30T08:49:38Z</time>
      </trkpt>
      <trkpt lat="43.97315" lon="7.37398">
        <ele>1449.32</ele>
        <time>2017-07-30T08:49:50Z</time>
      </trkpt>
      <trkpt lat="43.97313" lon="7.37409">
        <ele>1450.29</ele>
        <time>2017-07-30T08:50:01Z</time>
      </trkpt>
      <trkpt lat="43.97311" lon="7.37425">
        <ele>1450.77</ele>
        <time>2017-07-30T08:50:16Z</time>
      </trkpt>
      <trkpt lat="43.97315" lon="7.37441">
        <ele>1451.73</ele>
        <time>2017-07-30T08:50:30Z</time>
      </trkpt>
      <trkpt lat="43.97334" lon="7.37454">
        <ele>1452.21</ele>
        <time>2017-07-30T08:50:46Z</time>
      </trkpt>
      <trkpt lat="43.97343" lon="7.37462">
        <ele>1453.65</ele>
        <time>2017-07-30T08:51:02Z</time>
      </trkpt>
      <trkpt lat="43.97352" lon="7.37472">
        <ele>1455.09</ele>
        <time>2017-07-30T08:51:17Z</time>
      </trkpt>
      <trkpt lat="43.97353" lon="7.37484">
        <ele>1455.57</ele>
        <time>2017-07-30T08:51:29Z</time>
      </trkpt>
      <trkpt lat="43.97357" lon="7.37499">
        <ele>1456.53</ele>
        <time>2017-07-30T08:51:44Z</time>
      </trkpt>
      <trkpt lat="43.97367" lon="7.3751">
        <ele>1457.5</ele>
        <time>2017-07-30T08:52:01Z</time>
      </trkpt>
      <trkpt lat="43.97375" lon="7.37518">
        <ele>1458.94</ele>
        <time>2017-07-30T08:52:17Z</time>
      </trkpt>
      <trkpt lat="43.9738" lon="7.37531">
        <ele>1459.9</ele>
        <time>2017-07-30T08:52:31Z</time>
      </trkpt>
      <trkpt lat="43.97383" lon="7.37548">
        <ele>1461.34</ele>
        <time>2017-07-30T08:52:47Z</time>
      </trkpt>
      <trkpt lat="43.97384" lon="7.37561">
        <ele>1462.3</ele>
        <time>2017-07-30T08:53:01Z</time>
      </trkpt>
      <trkpt lat="43.97387" lon="7.37577">
        <ele>1463.26</ele>
        <time>2017-07-30T08:53:16Z</time>
      </trkpt>
      <trkpt lat="43.97392" lon="7.3759">
        <ele>1464.23</ele>
        <time>2017-07-30T08:53:30Z</time>
      </trkpt>
      <trkpt lat="43.974" lon="7.37606">
        <ele>1464.71</ele>
        <time>2017-07-30T08:53:46Z</time>
      </trkpt>
      <trkpt lat="43.9741" lon="7.37616">
        <ele>1465.19</ele>
        <time>2017-07-30T08:53:59Z</time>
      </trkpt>
      <trkpt lat="43.97428" lon="7.3762">
        <ele>1466.63</ele>
        <time>2017-07-30T08:54:20Z</time>
      </trkpt>
      <trkpt lat="43.9744" lon="7.3762">
        <ele>1467.59</ele>
        <time>2017-07-30T08:54:34Z</time>
      </trkpt>
      <trkpt lat="43.97447" lon="7.37615">
        <ele>1468.07</ele>
        <time>2017-07-30T08:54:47Z</time>
      </trkpt>
      <trkpt lat="43.97452" lon="7.37609">
        <ele>1468.55</ele>
        <time>2017-07-30T08:54:57Z</time>
      </trkpt>
      <trkpt lat="43.97466" lon="7.376">
        <ele>1469.99</ele>
        <time>2017-07-30T08:55:13Z</time>
      </trkpt>
      <trkpt lat="43.97481" lon="7.3759">
        <ele>1470.47</ele>
        <time>2017-07-30T08:55:33Z</time>
      </trkpt>
      <trkpt lat="43.97496" lon="7.37587">
        <ele>1470.95</ele>
        <time>2017-07-30T08:55:49Z</time>
      </trkpt>
      <trkpt lat="43.97508" lon="7.37596">
        <ele>1472.4</ele>
        <time>2017-07-30T08:56:05Z</time>
      </trkpt>
      <trkpt lat="43.97517" lon="7.37607">
        <ele>1472.88</ele>
        <time>2017-07-30T08:56:20Z</time>
      </trkpt>
      <trkpt lat="43.97519" lon="7.3762">
        <ele>1473.84</ele>
        <time>2017-07-30T08:56:34Z</time>
      </trkpt>
      <trkpt lat="43.97521" lon="7.37633">
        <ele>1474.8</ele>
        <time>2017-07-30T08:56:47Z</time>
      </trkpt>
      <trkpt lat="43.97526" lon="7.3765">
        <ele>1476.24</ele>
        <time>2017-07-30T08:57:02Z</time>
      </trkpt>
      <trkpt lat="43.97526" lon="7.37661">
        <ele>1477.2</ele>
        <time>2017-07-30T08:57:15Z</time>
      </trkpt>
      <trkpt lat="43.97528" lon="7.37676">
        <ele>1478.65</ele>
        <time>2017-07-30T08:57:29Z</time>
      </trkpt>
      <trkpt lat="43.9753" lon="7.37689">
        <ele>1479.61</ele>
        <time>2017-07-30T08:57:41Z</time>
      </trkpt>
      <trkpt lat="43.97533" lon="7.37695">
        <ele>1479.61</ele>
        <time>2017-07-30T08:57:53Z</time>
      </trkpt>
      <trkpt lat="43.97537" lon="7.37706">
        <ele>1480.09</ele>
        <time>2017-07-30T08:58:08Z</time>
      </trkpt>
      <trkpt lat="43.97541" lon="7.37717">
        <ele>1482.01</ele>
        <time>2017-07-30T08:58:20Z</time>
      </trkpt>
      <trkpt lat="43.9755" lon="7.37732">
        <ele>1482.97</ele>
        <time>2017-07-30T08:58:35Z</time>
      </trkpt>
      <trkpt lat="43.97559" lon="7.37745">
        <ele>1483.93</ele>
        <time>2017-07-30T08:58:50Z</time>
      </trkpt>
      <trkpt lat="43.97574" lon="7.37758">
        <ele>1485.85</ele>
        <time>2017-07-30T08:59:07Z</time>
      </trkpt>
      <trkpt lat="43.97583" lon="7.37772">
        <ele>1487.3</ele>
        <time>2017-07-30T08:59:24Z</time>
      </trkpt>
      <trkpt lat="43.97585" lon="7.3779">
        <ele>1488.26</ele>
        <time>2017-07-30T08:59:40Z</time>
      </trkpt>
      <trkpt lat="43.97585" lon="7.37807">
        <ele>1489.7</ele>
        <time>2017-07-30T08:59:54Z</time>
      </trkpt>
      <trkpt lat="43.97582" lon="7.37824">
        <ele>1491.62</ele>
        <time>2017-07-30T09:00:11Z</time>
      </trkpt>
      <trkpt lat="43.97574" lon="7.37833">
        <ele>1492.58</ele>
        <time>2017-07-30T09:00:24Z</time>
      </trkpt>
      <trkpt lat="43.97566" lon="7.37845">
        <ele>1494.03</ele>
        <time>2017-07-30T09:00:37Z</time>
      </trkpt>
      <trkpt lat="43.97563" lon="7.37853">
        <ele>1494.99</ele>
        <time>2017-07-30T09:00:45Z</time>
      </trkpt>
      <trkpt lat="43.97556" lon="7.37867">
        <ele>1496.43</ele>
        <time>2017-07-30T09:01:01Z</time>
      </trkpt>
      <trkpt lat="43.97546" lon="7.37877">
        <ele>1497.39</ele>
        <time>2017-07-30T09:01:15Z</time>
      </trkpt>
      <trkpt lat="43.97536" lon="7.37883">
        <ele>1499.31</ele>
        <time>2017-07-30T09:01:29Z</time>
      </trkpt>
      <trkpt lat="43.97534" lon="7.37885">
        <ele>1499.31</ele>
        <time>2017-07-30T09:01:32Z</time>
      </trkpt>
      <trkpt lat="43.97524" lon="7.37889">
        <ele>1500.27</ele>
        <time>2017-07-30T09:01:44Z</time>
      </trkpt>
      <trkpt lat="43.97509" lon="7.3789">
        <ele>1501.72</ele>
        <time>2017-07-30T09:01:59Z</time>
      </trkpt>
      <trkpt lat="43.97497" lon="7.37891">
        <ele>1502.2</ele>
        <time>2017-07-30T09:02:11Z</time>
      </trkpt>
      <trkpt lat="43.97493" lon="7.37892">
        <ele>1502.2</ele>
        <time>2017-07-30T09:02:14Z</time>
      </trkpt>
      <trkpt lat="43.97485" lon="7.37906">
        <ele>1503.16</ele>
        <time>2017-07-30T09:02:29Z</time>
      </trkpt>
      <trkpt lat="43.9749" lon="7.37919">
        <ele>1503.64</ele>
        <time>2017-07-30T09:02:42Z</time>
      </trkpt>
      <trkpt lat="43.97496" lon="7.37938">
        <ele>1504.6</ele>
        <time>2017-07-30T09:02:57Z</time>
      </trkpt>
      <trkpt lat="43.97502" lon="7.37961">
        <ele>1505.56</ele>
        <time>2017-07-30T09:03:13Z</time>
      </trkpt>
      <trkpt lat="43.97503" lon="7.37978">
        <ele>1506.52</ele>
        <time>2017-07-30T09:03:26Z</time>
      </trkpt>
      <trkpt lat="43.97502" lon="7.37992">
        <ele>1507.48</ele>
        <time>2017-07-30T09:03:38Z</time>
      </trkpt>
      <trkpt lat="43.97499" lon="7.37996">
        <ele>1507.48</ele>
        <time>2017-07-30T09:03:42Z</time>
      </trkpt>
      <trkpt lat="43.97493" lon="7.38019">
        <ele>1509.41</ele>
        <time>2017-07-30T09:03:59Z</time>
      </trkpt>
      <trkpt lat="43.97488" lon="7.38037">
        <ele>1510.85</ele>
        <time>2017-07-30T09:04:14Z</time>
      </trkpt>
      <trkpt lat="43.97491" lon="7.38054">
        <ele>1511.81</ele>
        <time>2017-07-30T09:04:28Z</time>
      </trkpt>
      <trkpt lat="43.97503" lon="7.38066">
        <ele>1512.77</ele>
        <time>2017-07-30T09:04:44Z</time>
      </trkpt>
      <trkpt lat="43.97518" lon="7.38071">
        <ele>1513.25</ele>
        <time>2017-07-30T09:04:59Z</time>
      </trkpt>
      <trkpt lat="43.97537" lon="7.3807">
        <ele>1513.73</ele>
        <time>2017-07-30T09:05:17Z</time>
      </trkpt>
      <trkpt lat="43.97553" lon="7.38074">
        <ele>1514.21</ele>
        <time>2017-07-30T09:05:33Z</time>
      </trkpt>
      <trkpt lat="43.97569" lon="7.38074">
        <ele>1515.18</ele>
        <time>2017-07-30T09:05:51Z</time>
      </trkpt>
      <trkpt lat="43.97578" lon="7.38072">
        <ele>1515.66</ele>
        <time>2017-07-30T09:06:05Z</time>
      </trkpt>
      <trkpt lat="43.9759" lon="7.38078">
        <ele>1516.62</ele>
        <time>2017-07-30T09:06:20Z</time>
      </trkpt>
      <trkpt lat="43.97594" lon="7.38084">
        <ele>1517.1</ele>
        <time>2017-07-30T09:06:26Z</time>
      </trkpt>
      <trkpt lat="43.97602" lon="7.381">
        <ele>1518.06</ele>
        <time>2017-07-30T09:06:41Z</time>
      </trkpt>
      <trkpt lat="43.97602" lon="7.38121">
        <ele>1519.5</ele>
        <time>2017-07-30T09:06:56Z</time>
      </trkpt>
      <trkpt lat="43.97602" lon="7.3814">
        <ele>1521.42</ele>
        <time>2017-07-30T09:07:12Z</time>
      </trkpt>
      <trkpt lat="43.97599" lon="7.38155">
        <ele>1522.39</ele>
        <time>2017-07-30T09:07:25Z</time>
      </trkpt>
      <trkpt lat="43.97597" lon="7.38176">
        <ele>1523.35</ele>
        <time>2017-07-30T09:07:42Z</time>
      </trkpt>
      <trkpt lat="43.97597" lon="7.38182">
        <ele>1523.83</ele>
        <time>2017-07-30T09:07:46Z</time>
      </trkpt>
      <trkpt lat="43.97595" lon="7.38201">
        <ele>1524.79</ele>
        <time>2017-07-30T09:08:01Z</time>
      </trkpt>
      <trkpt lat="43.97593" lon="7.38219">
        <ele>1526.23</ele>
        <time>2017-07-30T09:08:15Z</time>
      </trkpt>
      <trkpt lat="43.9759" lon="7.38237">
        <ele>1526.71</ele>
        <time>2017-07-30T09:08:29Z</time>
      </trkpt>
      <trkpt lat="43.97586" lon="7.38254">
        <ele>1528.15</ele>
        <time>2017-07-30T09:08:44Z</time>
      </trkpt>
      <trkpt lat="43.97585" lon="7.38273">
        <ele>1529.59</ele>
        <time>2017-07-30T09:09:00Z</time>
      </trkpt>
      <trkpt lat="43.97583" lon="7.38291">
        <ele>1530.56</ele>
        <time>2017-07-30T09:09:15Z</time>
      </trkpt>
      <trkpt lat="43.97579" lon="7.38304">
        <ele>1532</ele>
        <time>2017-07-30T09:09:29Z</time>
      </trkpt>
      <trkpt lat="43.97576" lon="7.38318">
        <ele>1532.96</ele>
        <time>2017-07-30T09:09:41Z</time>
      </trkpt>
      <trkpt lat="43.97571" lon="7.38331">
        <ele>1534.4</ele>
        <time>2017-07-30T09:09:54Z</time>
      </trkpt>
      <trkpt lat="43.97565" lon="7.38346">
        <ele>1535.36</ele>
        <time>2017-07-30T09:10:09Z</time>
      </trkpt>
      <trkpt lat="43.97559" lon="7.38356">
        <ele>1536.8</ele>
        <time>2017-07-30T09:10:22Z</time>
      </trkpt>
      <trkpt lat="43.97555" lon="7.38373">
        <ele>1537.77</ele>
        <time>2017-07-30T09:10:35Z</time>
      </trkpt>
      <trkpt lat="43.97549" lon="7.38386">
        <ele>1538.73</ele>
        <time>2017-07-30T09:10:49Z</time>
      </trkpt>
      <trkpt lat="43.97546" lon="7.38404">
        <ele>1540.17</ele>
        <time>2017-07-30T09:11:03Z</time>
      </trkpt>
      <trkpt lat="43.97546" lon="7.38408">
        <ele>1540.17</ele>
        <time>2017-07-30T09:11:06Z</time>
      </trkpt>
      <trkpt lat="43.97544" lon="7.38425">
        <ele>1541.61</ele>
        <time>2017-07-30T09:11:20Z</time>
      </trkpt>
      <trkpt lat="43.97539" lon="7.38435">
        <ele>1542.57</ele>
        <time>2017-07-30T09:11:32Z</time>
      </trkpt>
      <trkpt lat="43.97528" lon="7.3845">
        <ele>1543.05</ele>
        <time>2017-07-30T09:11:46Z</time>
      </trkpt>
      <trkpt lat="43.97524" lon="7.38458">
        <ele>1543.53</ele>
        <time>2017-07-30T09:12:01Z</time>
      </trkpt>
      <trkpt lat="43.97524" lon="7.38461">
        <ele>1543.53</ele>
        <time>2017-07-30T09:12:21Z</time>
      </trkpt>
      <trkpt lat="43.9753" lon="7.38473">
        <ele>1543.53</ele>
        <time>2017-07-30T09:12:37Z</time>
      </trkpt>
      <trkpt lat="43.97533" lon="7.38474">
        <ele>1544.98</ele>
        <time>2017-07-30T09:12:40Z</time>
      </trkpt>
      <trkpt lat="43.97536" lon="7.38476">
        <ele>1544.01</ele>
        <time>2017-07-30T09:12:44Z</time>
      </trkpt>
      <trkpt lat="43.97552" lon="7.38482">
        <ele>1544.5</ele>
        <time>2017-07-30T09:12:59Z</time>
      </trkpt>
      <trkpt lat="43.97559" lon="7.38498">
        <ele>1545.94</ele>
        <time>2017-07-30T09:13:14Z</time>
      </trkpt>
      <trkpt lat="43.97561" lon="7.3851">
        <ele>1546.9</ele>
        <time>2017-07-30T09:13:26Z</time>
      </trkpt>
      <trkpt lat="43.97566" lon="7.38519">
        <ele>1547.86</ele>
        <time>2017-07-30T09:13:34Z</time>
      </trkpt>
      <trkpt lat="43.97579" lon="7.38525">
        <ele>1548.34</ele>
        <time>2017-07-30T09:13:50Z</time>
      </trkpt>
      <trkpt lat="43.97591" lon="7.38531">
        <ele>1549.3</ele>
        <time>2017-07-30T09:14:05Z</time>
      </trkpt>
      <trkpt lat="43.97605" lon="7.38542">
        <ele>1550.74</ele>
        <time>2017-07-30T09:14:20Z</time>
      </trkpt>
      <trkpt lat="43.97612" lon="7.38558">
        <ele>1551.71</ele>
        <time>2017-07-30T09:14:37Z</time>
      </trkpt>
      <trkpt lat="43.97619" lon="7.38571">
        <ele>1553.15</ele>
        <time>2017-07-30T09:14:51Z</time>
      </trkpt>
      <trkpt lat="43.97627" lon="7.38581">
        <ele>1553.63</ele>
        <time>2017-07-30T09:15:03Z</time>
      </trkpt>
      <trkpt lat="43.97629" lon="7.38604">
        <ele>1555.55</ele>
        <time>2017-07-30T09:15:22Z</time>
      </trkpt>
      <trkpt lat="43.97625" lon="7.38618">
        <ele>1556.99</ele>
        <time>2017-07-30T09:15:36Z</time>
      </trkpt>
      <trkpt lat="43.9762" lon="7.38634">
        <ele>1558.92</ele>
        <time>2017-07-30T09:15:50Z</time>
      </trkpt>
      <trkpt lat="43.97621" lon="7.38654">
        <ele>1559.4</ele>
        <time>2017-07-30T09:16:03Z</time>
      </trkpt>
      <trkpt lat="43.97628" lon="7.38667">
        <ele>1560.84</ele>
        <time>2017-07-30T09:16:19Z</time>
      </trkpt>
      <trkpt lat="43.97636" lon="7.38683">
        <ele>1562.76</ele>
        <time>2017-07-30T09:16:36Z</time>
      </trkpt>
      <trkpt lat="43.9764" lon="7.387">
        <ele>1564.2</ele>
        <time>2017-07-30T09:16:52Z</time>
      </trkpt>
      <trkpt lat="43.97644" lon="7.38715">
        <ele>1564.68</ele>
        <time>2017-07-30T09:17:08Z</time>
      </trkpt>
      <trkpt lat="43.97648" lon="7.38731">
        <ele>1566.61</ele>
        <time>2017-07-30T09:17:23Z</time>
      </trkpt>
      <trkpt lat="43.97647" lon="7.38749">
        <ele>1567.09</ele>
        <time>2017-07-30T09:17:36Z</time>
      </trkpt>
      <trkpt lat="43.97647" lon="7.38768">
        <ele>1568.53</ele>
        <time>2017-07-30T09:17:52Z</time>
      </trkpt>
      <trkpt lat="43.97645" lon="7.38786">
        <ele>1569.49</ele>
        <time>2017-07-30T09:18:07Z</time>
      </trkpt>
      <trkpt lat="43.97647" lon="7.38801">
        <ele>1570.93</ele>
        <time>2017-07-30T09:18:21Z</time>
      </trkpt>
      <trkpt lat="43.97646" lon="7.3882">
        <ele>1572.37</ele>
        <time>2017-07-30T09:18:38Z</time>
      </trkpt>
      <trkpt lat="43.97642" lon="7.38834">
        <ele>1573.33</ele>
        <time>2017-07-30T09:18:52Z</time>
      </trkpt>
      <trkpt lat="43.97638" lon="7.38849">
        <ele>1574.3</ele>
        <time>2017-07-30T09:19:06Z</time>
      </trkpt>
      <trkpt lat="43.97638" lon="7.38857">
        <ele>1575.26</ele>
        <time>2017-07-30T09:19:13Z</time>
      </trkpt>
      <trkpt lat="43.97635" lon="7.38877">
        <ele>1577.18</ele>
        <time>2017-07-30T09:19:29Z</time>
      </trkpt>
      <trkpt lat="43.97632" lon="7.3889">
        <ele>1577.66</ele>
        <time>2017-07-30T09:19:42Z</time>
      </trkpt>
      <trkpt lat="43.97627" lon="7.38912">
        <ele>1579.1</ele>
        <time>2017-07-30T09:19:58Z</time>
      </trkpt>
      <trkpt lat="43.97622" lon="7.38916">
        <ele>1580.06</ele>
        <time>2017-07-30T09:20:13Z</time>
      </trkpt>
      <trkpt lat="43.97618" lon="7.38928">
        <ele>1580.54</ele>
        <time>2017-07-30T09:20:28Z</time>
      </trkpt>
      <trkpt lat="43.97612" lon="7.38939">
        <ele>1581.99</ele>
        <time>2017-07-30T09:20:40Z</time>
      </trkpt>
      <trkpt lat="43.97617" lon="7.38956">
        <ele>1582.47</ele>
        <time>2017-07-30T09:20:55Z</time>
      </trkpt>
      <trkpt lat="43.97624" lon="7.38957">
        <ele>1582.47</ele>
        <time>2017-07-30T09:21:09Z</time>
      </trkpt>
      <trkpt lat="43.97636" lon="7.38947">
        <ele>1582.95</ele>
        <time>2017-07-30T09:21:24Z</time>
      </trkpt>
      <trkpt lat="43.97652" lon="7.38939">
        <ele>1582.95</ele>
        <time>2017-07-30T09:21:39Z</time>
      </trkpt>
      <trkpt lat="43.9766" lon="7.38928">
        <ele>1583.43</ele>
        <time>2017-07-30T09:21:53Z</time>
      </trkpt>
      <trkpt lat="43.97667" lon="7.38916">
        <ele>1583.43</ele>
        <time>2017-07-30T09:22:05Z</time>
      </trkpt>
      <trkpt lat="43.97678" lon="7.38899">
        <ele>1583.43</ele>
        <time>2017-07-30T09:22:21Z</time>
      </trkpt>
      <trkpt lat="43.97683" lon="7.38888">
        <ele>1583.43</ele>
        <time>2017-07-30T09:22:37Z</time>
      </trkpt>
      <trkpt lat="43.97681" lon="7.3889">
        <ele>1583.43</ele>
        <time>2017-07-30T09:22:56Z</time>
      </trkpt>
      <trkpt lat="43.97677" lon="7.3889">
        <ele>1583.43</ele>
        <time>2017-07-30T09:23:16Z</time>
      </trkpt>
      <trkpt lat="43.97682" lon="7.38901">
        <ele>1583.43</ele>
        <time>2017-07-30T09:23:34Z</time>
      </trkpt>
      <trkpt lat="43.97693" lon="7.3892">
        <ele>1583.91</ele>
        <time>2017-07-30T09:23:50Z</time>
      </trkpt>
      <trkpt lat="43.97695" lon="7.38933">
        <ele>1584.87</ele>
        <time>2017-07-30T09:24:05Z</time>
      </trkpt>
      <trkpt lat="43.97698" lon="7.38951">
        <ele>1586.31</ele>
        <time>2017-07-30T09:24:22Z</time>
      </trkpt>
      <trkpt lat="43.97698" lon="7.38973">
        <ele>1587.27</ele>
        <time>2017-07-30T09:24:39Z</time>
      </trkpt>
      <trkpt lat="43.97696" lon="7.38992">
        <ele>1589.2</ele>
        <time>2017-07-30T09:24:55Z</time>
      </trkpt>
      <trkpt lat="43.97693" lon="7.39012">
        <ele>1590.16</ele>
        <time>2017-07-30T09:25:11Z</time>
      </trkpt>
      <trkpt lat="43.97691" lon="7.39029">
        <ele>1590.64</ele>
        <time>2017-07-30T09:25:25Z</time>
      </trkpt>
      <trkpt lat="43.97688" lon="7.39048">
        <ele>1591.6</ele>
        <time>2017-07-30T09:25:40Z</time>
      </trkpt>
      <trkpt lat="43.97685" lon="7.39065">
        <ele>1592.56</ele>
        <time>2017-07-30T09:25:54Z</time>
      </trkpt>
      <trkpt lat="43.97683" lon="7.39073">
        <ele>1593.04</ele>
        <time>2017-07-30T09:25:59Z</time>
      </trkpt>
      <trkpt lat="43.97679" lon="7.39095">
        <ele>1594</ele>
        <time>2017-07-30T09:26:16Z</time>
      </trkpt>
      <trkpt lat="43.97675" lon="7.39114">
        <ele>1594.96</ele>
        <time>2017-07-30T09:26:32Z</time>
      </trkpt>
      <trkpt lat="43.97673" lon="7.39129">
        <ele>1595.93</ele>
        <time>2017-07-30T09:26:47Z</time>
      </trkpt>
      <trkpt lat="43.97673" lon="7.39135">
        <ele>1595.93</ele>
        <time>2017-07-30T09:27:00Z</time>
      </trkpt>
      <trkpt lat="43.97679" lon="7.39153">
        <ele>1596.41</ele>
        <time>2017-07-30T09:27:15Z</time>
      </trkpt>
      <trkpt lat="43.97684" lon="7.39171">
        <ele>1596.89</ele>
        <time>2017-07-30T09:27:32Z</time>
      </trkpt>
      <trkpt lat="43.9769" lon="7.39187">
        <ele>1596.89</ele>
        <time>2017-07-30T09:27:48Z</time>
      </trkpt>
      <trkpt lat="43.97692" lon="7.39195">
        <ele>1597.37</ele>
        <time>2017-07-30T09:28:04Z</time>
      </trkpt>
      <trkpt lat="43.97695" lon="7.39195">
        <ele>1597.37</ele>
        <time>2017-07-30T09:28:24Z</time>
      </trkpt>
      <trkpt lat="43.97698" lon="7.39192">
        <ele>1597.37</ele>
        <time>2017-07-30T09:28:46Z</time>
      </trkpt>
      <trkpt lat="43.977" lon="7.39191">
        <ele>1597.85</ele>
        <time>2017-07-30T09:29:04Z</time>
      </trkpt>
      <trkpt lat="43.97696" lon="7.39195">
        <ele>1597.85</ele>
        <time>2017-07-30T09:29:31Z</time>
      </trkpt>
      <trkpt lat="43.97699" lon="7.39192">
        <ele>1597.85</ele>
        <time>2017-07-30T09:29:49Z</time>
      </trkpt>
      <trkpt lat="43.97693" lon="7.39197">
        <ele>1598.33</ele>
        <time>2017-07-30T09:30:06Z</time>
      </trkpt>
      <trkpt lat="43.97692" lon="7.39199">
        <ele>1598.81</ele>
        <time>2017-07-30T09:30:20Z</time>
      </trkpt>
      <trkpt lat="43.97692" lon="7.39205">
        <ele>1597.37</ele>
        <time>2017-07-30T09:30:33Z</time>
      </trkpt>
      <trkpt lat="43.97693" lon="7.39205">
        <ele>1597.37</ele>
        <time>2017-07-30T09:30:56Z</time>
      </trkpt>
      <trkpt lat="43.97694" lon="7.39201">
        <ele>1597.37</ele>
        <time>2017-07-30T09:31:16Z</time>
      </trkpt>
      <trkpt lat="43.97692" lon="7.39201">
        <ele>1597.85</ele>
        <time>2017-07-30T09:31:34Z</time>
      </trkpt>
      <trkpt lat="43.97692" lon="7.392">
        <ele>1597.37</ele>
        <time>2017-07-30T09:32:01Z</time>
      </trkpt>
      <trkpt lat="43.97697" lon="7.39201">
        <ele>1597.85</ele>
        <time>2017-07-30T09:32:29Z</time>
      </trkpt>
      <trkpt lat="43.97692" lon="7.39203">
        <ele>1598.33</ele>
        <time>2017-07-30T09:32:56Z</time>
      </trkpt>
      <trkpt lat="43.97689" lon="7.39203">
        <ele>1598.81</ele>
        <time>2017-07-30T09:33:24Z</time>
      </trkpt>
      <trkpt lat="43.97687" lon="7.39203">
        <ele>1598.81</ele>
        <time>2017-07-30T09:33:54Z</time>
      </trkpt>
      <trkpt lat="43.97687" lon="7.39203">
        <ele>1599.29</ele>
        <time>2017-07-30T09:34:15Z</time>
      </trkpt>
      <trkpt lat="43.97687" lon="7.39203">
        <ele>1595.93</ele>
        <time>2017-07-30T09:34:21Z</time>
      </trkpt>
      <trkpt lat="43.97687" lon="7.39203">
        <ele>1601.21</ele>
        <time>2017-07-30T09:34:22Z</time>
      </trkpt>
      <trkpt lat="43.97693" lon="7.39204">
        <ele>1598.33</ele>
        <time>2017-07-30T09:34:45Z</time>
      </trkpt>
      <trkpt lat="43.97691" lon="7.39203">
        <ele>1598.81</ele>
        <time>2017-07-30T09:35:10Z</time>
      </trkpt>
      <trkpt lat="43.97692" lon="7.39201">
        <ele>1598.81</ele>
        <time>2017-07-30T09:35:31Z</time>
      </trkpt>
      <trkpt lat="43.97692" lon="7.392">
        <ele>1598.81</ele>
        <time>2017-07-30T09:35:50Z</time>
      </trkpt>
      <trkpt lat="43.97689" lon="7.39198">
        <ele>1599.77</ele>
        <time>2017-07-30T09:36:02Z</time>
      </trkpt>
      <trkpt lat="43.97684" lon="7.39202">
        <ele>1600.73</ele>
        <time>2017-07-30T09:36:21Z</time>
      </trkpt>
      <trkpt lat="43.97677" lon="7.39205">
        <ele>1601.69</ele>
        <time>2017-07-30T09:36:34Z</time>
      </trkpt>
      <trkpt lat="43.97675" lon="7.39215">
        <ele>1602.66</ele>
        <time>2017-07-30T09:36:46Z</time>
      </trkpt>
      <trkpt lat="43.97671" lon="7.39219">
        <ele>1604.58</ele>
        <time>2017-07-30T09:37:00Z</time>
      </trkpt>
      <trkpt lat="43.97663" lon="7.39219">
        <ele>1606.98</ele>
        <time>2017-07-30T09:37:16Z</time>
      </trkpt>
      <trkpt lat="43.97658" lon="7.39223">
        <ele>1608.9</ele>
        <time>2017-07-30T09:37:31Z</time>
      </trkpt>
      <trkpt lat="43.97655" lon="7.39223">
        <ele>1609.38</ele>
        <time>2017-07-30T09:37:48Z</time>
      </trkpt>
      <trkpt lat="43.97648" lon="7.39222">
        <ele>1611.31</ele>
        <time>2017-07-30T09:38:03Z</time>
      </trkpt>
      <trkpt lat="43.97641" lon="7.39219">
        <ele>1613.23</ele>
        <time>2017-07-30T09:38:18Z</time>
      </trkpt>
      <trkpt lat="43.97635" lon="7.39222">
        <ele>1615.15</ele>
        <time>2017-07-30T09:38:31Z</time>
      </trkpt>
      <trkpt lat="43.97627" lon="7.39225">
        <ele>1617.07</ele>
        <time>2017-07-30T09:38:47Z</time>
      </trkpt>
      <trkpt lat="43.97622" lon="7.39231">
        <ele>1618.52</ele>
        <time>2017-07-30T09:39:03Z</time>
      </trkpt>
      <trkpt lat="43.97609" lon="7.39232">
        <ele>1620.44</ele>
        <time>2017-07-30T09:39:20Z</time>
      </trkpt>
      <trkpt lat="43.97599" lon="7.39234">
        <ele>1621.4</ele>
        <time>2017-07-30T09:39:33Z</time>
      </trkpt>
      <trkpt lat="43.97591" lon="7.39235">
        <ele>1622.36</ele>
        <time>2017-07-30T09:39:48Z</time>
      </trkpt>
      <trkpt lat="43.97585" lon="7.39233">
        <ele>1622.84</ele>
        <time>2017-07-30T09:39:59Z</time>
      </trkpt>
      <trkpt lat="43.97583" lon="7.39233">
        <ele>1622.84</ele>
        <time>2017-07-30T09:40:02Z</time>
      </trkpt>
      <trkpt lat="43.97568" lon="7.39227">
        <ele>1623.8</ele>
        <time>2017-07-30T09:40:20Z</time>
      </trkpt>
      <trkpt lat="43.97553" lon="7.39221">
        <ele>1624.77</ele>
        <time>2017-07-30T09:40:37Z</time>
      </trkpt>
      <trkpt lat="43.97541" lon="7.39223">
        <ele>1625.25</ele>
        <time>2017-07-30T09:40:51Z</time>
      </trkpt>
      <trkpt lat="43.97528" lon="7.39218">
        <ele>1627.17</ele>
        <time>2017-07-30T09:41:08Z</time>
      </trkpt>
      <trkpt lat="43.97519" lon="7.39214">
        <ele>1628.13</ele>
        <time>2017-07-30T09:41:25Z</time>
      </trkpt>
      <trkpt lat="43.97519" lon="7.39209">
        <ele>1628.13</ele>
        <time>2017-07-30T09:41:45Z</time>
      </trkpt>
      <trkpt lat="43.97514" lon="7.39204">
        <ele>1629.57</ele>
        <time>2017-07-30T09:41:52Z</time>
      </trkpt>
      <trkpt lat="43.97508" lon="7.39191">
        <ele>1630.53</ele>
        <time>2017-07-30T09:42:08Z</time>
      </trkpt>
      <trkpt lat="43.97506" lon="7.39187">
        <ele>1632.46</ele>
        <time>2017-07-30T09:42:14Z</time>
      </trkpt>
      <trkpt lat="43.97498" lon="7.39174">
        <ele>1632.46</ele>
        <time>2017-07-30T09:42:29Z</time>
      </trkpt>
      <trkpt lat="43.97487" lon="7.39165">
        <ele>1632.46</ele>
        <time>2017-07-30T09:42:43Z</time>
      </trkpt>
      <trkpt lat="43.97487" lon="7.39162">
        <ele>1632.46</ele>
        <time>2017-07-30T09:42:45Z</time>
      </trkpt>
      <trkpt lat="43.97488" lon="7.3914">
        <ele>1632.94</ele>
        <time>2017-07-30T09:43:02Z</time>
      </trkpt>
      <trkpt lat="43.97488" lon="7.39121">
        <ele>1634.38</ele>
        <time>2017-07-30T09:43:16Z</time>
      </trkpt>
      <trkpt lat="43.97485" lon="7.39106">
        <ele>1635.82</ele>
        <time>2017-07-30T09:43:30Z</time>
      </trkpt>
      <trkpt lat="43.97479" lon="7.39098">
        <ele>1638.7</ele>
        <time>2017-07-30T09:43:44Z</time>
      </trkpt>
      <trkpt lat="43.97471" lon="7.39093">
        <ele>1640.63</ele>
        <time>2017-07-30T09:44:00Z</time>
      </trkpt>
      <trkpt lat="43.97463" lon="7.39092">
        <ele>1643.03</ele>
        <time>2017-07-30T09:44:13Z</time>
      </trkpt>
      <trkpt lat="43.97462" lon="7.39092">
        <ele>1643.99</ele>
        <time>2017-07-30T09:44:29Z</time>
      </trkpt>
      <trkpt lat="43.97459" lon="7.3909">
        <ele>1645.91</ele>
        <time>2017-07-30T09:44:39Z</time>
      </trkpt>
      <trkpt lat="43.9745" lon="7.39091">
        <ele>1646.88</ele>
        <time>2017-07-30T09:44:55Z</time>
      </trkpt>
      <trkpt lat="43.9744" lon="7.39088">
        <ele>1648.8</ele>
        <time>2017-07-30T09:45:11Z</time>
      </trkpt>
      <trkpt lat="43.97432" lon="7.39086">
        <ele>1650.72</ele>
        <time>2017-07-30T09:45:25Z</time>
      </trkpt>
      <trkpt lat="43.97425" lon="7.39085">
        <ele>1653.12</ele>
        <time>2017-07-30T09:45:39Z</time>
      </trkpt>
      <trkpt lat="43.97417" lon="7.39081">
        <ele>1654.57</ele>
        <time>2017-07-30T09:45:54Z</time>
      </trkpt>
      <trkpt lat="43.97411" lon="7.39078">
        <ele>1656.01</ele>
        <time>2017-07-30T09:46:07Z</time>
      </trkpt>
      <trkpt lat="43.97404" lon="7.39075">
        <ele>1658.41</ele>
        <time>2017-07-30T09:46:23Z</time>
      </trkpt>
      <trkpt lat="43.97397" lon="7.39068">
        <ele>1661.3</ele>
        <time>2017-07-30T09:46:41Z</time>
      </trkpt>
      <trkpt lat="43.97389" lon="7.39062">
        <ele>1663.22</ele>
        <time>2017-07-30T09:46:57Z</time>
      </trkpt>
      <trkpt lat="43.97384" lon="7.3905">
        <ele>1665.14</ele>
        <time>2017-07-30T09:47:15Z</time>
      </trkpt>
      <trkpt lat="43.9738" lon="7.39041">
        <ele>1666.1</ele>
        <time>2017-07-30T09:47:30Z</time>
      </trkpt>
      <trkpt lat="43.97377" lon="7.39036">
        <ele>1667.54</ele>
        <time>2017-07-30T09:47:51Z</time>
      </trkpt>
      <trkpt lat="43.97376" lon="7.39029">
        <ele>1668.99</ele>
        <time>2017-07-30T09:48:11Z</time>
      </trkpt>
      <trkpt lat="43.97372" lon="7.39023">
        <ele>1670.43</ele>
        <time>2017-07-30T09:48:23Z</time>
      </trkpt>
      <trkpt lat="43.97369" lon="7.39015">
        <ele>1671.87</ele>
        <time>2017-07-30T09:48:36Z</time>
      </trkpt>
      <trkpt lat="43.97366" lon="7.39">
        <ele>1673.31</ele>
        <time>2017-07-30T09:48:52Z</time>
      </trkpt>
      <trkpt lat="43.97362" lon="7.38985">
        <ele>1675.72</ele>
        <time>2017-07-30T09:49:09Z</time>
      </trkpt>
      <trkpt lat="43.97356" lon="7.38976">
        <ele>1676.68</ele>
        <time>2017-07-30T09:49:23Z</time>
      </trkpt>
      <trkpt lat="43.97351" lon="7.38966">
        <ele>1678.6</ele>
        <time>2017-07-30T09:49:41Z</time>
      </trkpt>
      <trkpt lat="43.97347" lon="7.38953">
        <ele>1680.52</ele>
        <time>2017-07-30T09:49:56Z</time>
      </trkpt>
      <trkpt lat="43.97341" lon="7.38939">
        <ele>1682.44</ele>
        <time>2017-07-30T09:50:12Z</time>
      </trkpt>
      <trkpt lat="43.97335" lon="7.38927">
        <ele>1683.89</ele>
        <time>2017-07-30T09:50:27Z</time>
      </trkpt>
      <trkpt lat="43.97329" lon="7.38917">
        <ele>1685.33</ele>
        <time>2017-07-30T09:50:42Z</time>
      </trkpt>
      <trkpt lat="43.97321" lon="7.38901">
        <ele>1687.25</ele>
        <time>2017-07-30T09:51:02Z</time>
      </trkpt>
      <trkpt lat="43.97316" lon="7.38886">
        <ele>1688.21</ele>
        <time>2017-07-30T09:51:17Z</time>
      </trkpt>
      <trkpt lat="43.97309" lon="7.38874">
        <ele>1689.65</ele>
        <time>2017-07-30T09:51:32Z</time>
      </trkpt>
      <trkpt lat="43.97304" lon="7.38865">
        <ele>1691.1</ele>
        <time>2017-07-30T09:51:46Z</time>
      </trkpt>
      <trkpt lat="43.97297" lon="7.38851">
        <ele>1693.02</ele>
        <time>2017-07-30T09:52:02Z</time>
      </trkpt>
      <trkpt lat="43.97292" lon="7.3883">
        <ele>1693.5</ele>
        <time>2017-07-30T09:52:19Z</time>
      </trkpt>
      <trkpt lat="43.97292" lon="7.38818">
        <ele>1695.42</ele>
        <time>2017-07-30T09:52:34Z</time>
      </trkpt>
      <trkpt lat="43.97289" lon="7.38805">
        <ele>1697.34</ele>
        <time>2017-07-30T09:52:50Z</time>
      </trkpt>
      <trkpt lat="43.97283" lon="7.3879">
        <ele>1698.79</ele>
        <time>2017-07-30T09:53:07Z</time>
      </trkpt>
      <trkpt lat="43.97276" lon="7.38777">
        <ele>1700.23</ele>
        <time>2017-07-30T09:53:21Z</time>
      </trkpt>
      <trkpt lat="43.97269" lon="7.3877">
        <ele>1701.67</ele>
        <time>2017-07-30T09:53:35Z</time>
      </trkpt>
      <trkpt lat="43.97261" lon="7.38754">
        <ele>1702.15</ele>
        <time>2017-07-30T09:53:51Z</time>
      </trkpt>
      <trkpt lat="43.97253" lon="7.38738">
        <ele>1704.07</ele>
        <time>2017-07-30T09:54:08Z</time>
      </trkpt>
      <trkpt lat="43.97248" lon="7.38725">
        <ele>1705.04</ele>
        <time>2017-07-30T09:54:21Z</time>
      </trkpt>
      <trkpt lat="43.97242" lon="7.38709">
        <ele>1706</ele>
        <time>2017-07-30T09:54:36Z</time>
      </trkpt>
      <trkpt lat="43.97236" lon="7.3869">
        <ele>1707.44</ele>
        <time>2017-07-30T09:54:53Z</time>
      </trkpt>
      <trkpt lat="43.97234" lon="7.38675">
        <ele>1708.88</ele>
        <time>2017-07-30T09:55:09Z</time>
      </trkpt>
      <trkpt lat="43.97236" lon="7.38665">
        <ele>1710.8</ele>
        <time>2017-07-30T09:55:23Z</time>
      </trkpt>
      <trkpt lat="43.97236" lon="7.38651">
        <ele>1711.76</ele>
        <time>2017-07-30T09:55:38Z</time>
      </trkpt>
      <trkpt lat="43.97236" lon="7.38634">
        <ele>1713.21</ele>
        <time>2017-07-30T09:55:52Z</time>
      </trkpt>
      <trkpt lat="43.97233" lon="7.38614">
        <ele>1715.13</ele>
        <time>2017-07-30T09:56:08Z</time>
      </trkpt>
      <trkpt lat="43.9723" lon="7.38599">
        <ele>1716.57</ele>
        <time>2017-07-30T09:56:22Z</time>
      </trkpt>
      <trkpt lat="43.97229" lon="7.38583">
        <ele>1718.49</ele>
        <time>2017-07-30T09:56:36Z</time>
      </trkpt>
      <trkpt lat="43.97227" lon="7.38561">
        <ele>1719.94</ele>
        <time>2017-07-30T09:56:51Z</time>
      </trkpt>
      <trkpt lat="43.97227" lon="7.38546">
        <ele>1721.38</ele>
        <time>2017-07-30T09:57:07Z</time>
      </trkpt>
      <trkpt lat="43.97227" lon="7.38541">
        <ele>1722.34</ele>
        <time>2017-07-30T09:57:13Z</time>
      </trkpt>
      <trkpt lat="43.97222" lon="7.38521">
        <ele>1722.82</ele>
        <time>2017-07-30T09:57:29Z</time>
      </trkpt>
      <trkpt lat="43.9722" lon="7.38505">
        <ele>1723.78</ele>
        <time>2017-07-30T09:57:42Z</time>
      </trkpt>
      <trkpt lat="43.97214" lon="7.38487">
        <ele>1725.22</ele>
        <time>2017-07-30T09:57:58Z</time>
      </trkpt>
      <trkpt lat="43.9721" lon="7.38472">
        <ele>1725.7</ele>
        <time>2017-07-30T09:58:10Z</time>
      </trkpt>
      <trkpt lat="43.97208" lon="7.38453">
        <ele>1727.15</ele>
        <time>2017-07-30T09:58:25Z</time>
      </trkpt>
      <trkpt lat="43.97205" lon="7.38437">
        <ele>1728.11</ele>
        <time>2017-07-30T09:58:40Z</time>
      </trkpt>
      <trkpt lat="43.97202" lon="7.38421">
        <ele>1729.07</ele>
        <time>2017-07-30T09:58:55Z</time>
      </trkpt>
      <trkpt lat="43.97194" lon="7.38402">
        <ele>1730.03</ele>
        <time>2017-07-30T09:59:12Z</time>
      </trkpt>
      <trkpt lat="43.97189" lon="7.38384">
        <ele>1730.99</ele>
        <time>2017-07-30T09:59:25Z</time>
      </trkpt>
      <trkpt lat="43.97182" lon="7.38368">
        <ele>1730.99</ele>
        <time>2017-07-30T09:59:40Z</time>
      </trkpt>
      <trkpt lat="43.97182" lon="7.38367">
        <ele>1730.99</ele>
        <time>2017-07-30T09:59:41Z</time>
      </trkpt>
      <trkpt lat="43.97181" lon="7.38365">
        <ele>1730.99</ele>
        <time>2017-07-30T09:59:43Z</time>
      </trkpt>
      <trkpt lat="43.97174" lon="7.38355">
        <ele>1730.99</ele>
        <time>2017-07-30T09:59:53Z</time>
      </trkpt>
      <trkpt lat="43.97172" lon="7.3835">
        <ele>1730.99</ele>
        <time>2017-07-30T09:59:57Z</time>
      </trkpt>
      <trkpt lat="43.97162" lon="7.38333">
        <ele>1731.47</ele>
        <time>2017-07-30T10:00:13Z</time>
      </trkpt>
      <trkpt lat="43.97161" lon="7.38331">
        <ele>1731.47</ele>
        <time>2017-07-30T10:00:15Z</time>
      </trkpt>
      <trkpt lat="43.97152" lon="7.38315">
        <ele>1732.43</ele>
        <time>2017-07-30T10:00:31Z</time>
      </trkpt>
      <trkpt lat="43.97144" lon="7.38298">
        <ele>1733.39</ele>
        <time>2017-07-30T10:00:47Z</time>
      </trkpt>
      <trkpt lat="43.97134" lon="7.3828">
        <ele>1733.39</ele>
        <time>2017-07-30T10:01:04Z</time>
      </trkpt>
      <trkpt lat="43.97124" lon="7.3826">
        <ele>1733.39</ele>
        <time>2017-07-30T10:01:21Z</time>
      </trkpt>
      <trkpt lat="43.97112" lon="7.38247">
        <ele>1731.47</ele>
        <time>2017-07-30T10:01:37Z</time>
      </trkpt>
      <trkpt lat="43.97103" lon="7.38242">
        <ele>1729.55</ele>
        <time>2017-07-30T10:01:52Z</time>
      </trkpt>
      <trkpt lat="43.97101" lon="7.38242">
        <ele>1729.55</ele>
        <time>2017-07-30T10:01:55Z</time>
      </trkpt>
      <trkpt lat="43.97085" lon="7.38236">
        <ele>1729.55</ele>
        <time>2017-07-30T10:02:15Z</time>
      </trkpt>
      <trkpt lat="43.97071" lon="7.38233">
        <ele>1729.07</ele>
        <time>2017-07-30T10:02:29Z</time>
      </trkpt>
      <trkpt lat="43.97056" lon="7.38231">
        <ele>1728.11</ele>
        <time>2017-07-30T10:02:44Z</time>
      </trkpt>
      <trkpt lat="43.97043" lon="7.38234">
        <ele>1726.67</ele>
        <time>2017-07-30T10:02:58Z</time>
      </trkpt>
      <trkpt lat="43.97032" lon="7.38239">
        <ele>1725.22</ele>
        <time>2017-07-30T10:03:11Z</time>
      </trkpt>
      <trkpt lat="43.97018" lon="7.38242">
        <ele>1723.78</ele>
        <time>2017-07-30T10:03:26Z</time>
      </trkpt>
      <trkpt lat="43.97014" lon="7.38241">
        <ele>1723.78</ele>
        <time>2017-07-30T10:03:30Z</time>
      </trkpt>
      <trkpt lat="43.96995" lon="7.38233">
        <ele>1722.34</ele>
        <time>2017-07-30T10:03:47Z</time>
      </trkpt>
      <trkpt lat="43.96978" lon="7.38232">
        <ele>1721.86</ele>
        <time>2017-07-30T10:04:02Z</time>
      </trkpt>
      <trkpt lat="43.96965" lon="7.38228">
        <ele>1720.9</ele>
        <time>2017-07-30T10:04:16Z</time>
      </trkpt>
      <trkpt lat="43.96951" lon="7.38224">
        <ele>1719.94</ele>
        <time>2017-07-30T10:04:31Z</time>
      </trkpt>
      <trkpt lat="43.96938" lon="7.38222">
        <ele>1718.97</ele>
        <time>2017-07-30T10:04:46Z</time>
      </trkpt>
      <trkpt lat="43.96922" lon="7.38213">
        <ele>1718.01</ele>
        <time>2017-07-30T10:05:01Z</time>
      </trkpt>
      <trkpt lat="43.96908" lon="7.38209">
        <ele>1717.05</ele>
        <time>2017-07-30T10:05:17Z</time>
      </trkpt>
      <trkpt lat="43.96894" lon="7.38205">
        <ele>1716.09</ele>
        <time>2017-07-30T10:05:31Z</time>
      </trkpt>
      <trkpt lat="43.9688" lon="7.38202">
        <ele>1715.13</ele>
        <time>2017-07-30T10:05:45Z</time>
      </trkpt>
      <trkpt lat="43.96865" lon="7.38201">
        <ele>1714.17</ele>
        <time>2017-07-30T10:06:01Z</time>
      </trkpt>
      <trkpt lat="43.96849" lon="7.38198">
        <ele>1713.21</ele>
        <time>2017-07-30T10:06:17Z</time>
      </trkpt>
      <trkpt lat="43.96843" lon="7.38202">
        <ele>1714.65</ele>
        <time>2017-07-30T10:06:30Z</time>
      </trkpt>
      <trkpt lat="43.9684" lon="7.38203">
        <ele>1714.65</ele>
        <time>2017-07-30T10:06:45Z</time>
      </trkpt>
      <trkpt lat="43.9684" lon="7.38202">
        <ele>1714.65</ele>
        <time>2017-07-30T10:07:02Z</time>
      </trkpt>
      <trkpt lat="43.9684" lon="7.38203">
        <ele>1714.65</ele>
        <time>2017-07-30T10:07:21Z</time>
      </trkpt>
      <trkpt lat="43.96841" lon="7.38206">
        <ele>1714.65</ele>
        <time>2017-07-30T10:07:43Z</time>
      </trkpt>
      <trkpt lat="43.96842" lon="7.38206">
        <ele>1714.65</ele>
        <time>2017-07-30T10:07:59Z</time>
      </trkpt>
      <trkpt lat="43.9684" lon="7.38202">
        <ele>1715.13</ele>
        <time>2017-07-30T10:08:18Z</time>
      </trkpt>
      <trkpt lat="43.96841" lon="7.38203">
        <ele>1715.13</ele>
        <time>2017-07-30T10:08:39Z</time>
      </trkpt>
      <trkpt lat="43.96841" lon="7.38203">
        <ele>1714.65</ele>
        <time>2017-07-30T10:08:57Z</time>
      </trkpt>
      <trkpt lat="43.96835" lon="7.38197">
        <ele>1714.65</ele>
        <time>2017-07-30T10:09:11Z</time>
      </trkpt>
      <trkpt lat="43.96832" lon="7.38195">
        <ele>1714.65</ele>
        <time>2017-07-30T10:09:30Z</time>
      </trkpt>
      <trkpt lat="43.96832" lon="7.38196">
        <ele>1714.65</ele>
        <time>2017-07-30T10:09:48Z</time>
      </trkpt>
      <trkpt lat="43.96834" lon="7.38195">
        <ele>1714.65</ele>
        <time>2017-07-30T10:10:12Z</time>
      </trkpt>
      <trkpt lat="43.96832" lon="7.38192">
        <ele>1714.17</ele>
        <time>2017-07-30T10:10:33Z</time>
      </trkpt>
      <trkpt lat="43.96828" lon="7.38188">
        <ele>1714.17</ele>
        <time>2017-07-30T10:11:03Z</time>
      </trkpt>
      <trkpt lat="43.96821" lon="7.38181">
        <ele>1713.69</ele>
        <time>2017-07-30T10:11:19Z</time>
      </trkpt>
      <trkpt lat="43.96811" lon="7.38167">
        <ele>1713.21</ele>
        <time>2017-07-30T10:11:34Z</time>
      </trkpt>
      <trkpt lat="43.9681" lon="7.38163">
        <ele>1712.73</ele>
        <time>2017-07-30T10:11:37Z</time>
      </trkpt>
      <trkpt lat="43.96799" lon="7.38143">
        <ele>1712.25</ele>
        <time>2017-07-30T10:11:55Z</time>
      </trkpt>
      <trkpt lat="43.96793" lon="7.3813">
        <ele>1712.25</ele>
        <time>2017-07-30T10:12:08Z</time>
      </trkpt>
      <trkpt lat="43.96792" lon="7.38119">
        <ele>1711.76</ele>
        <time>2017-07-30T10:12:19Z</time>
      </trkpt>
      <trkpt lat="43.96791" lon="7.38098">
        <ele>1711.28</ele>
        <time>2017-07-30T10:12:35Z</time>
      </trkpt>
      <trkpt lat="43.96789" lon="7.38091">
        <ele>1711.28</ele>
        <time>2017-07-30T10:12:41Z</time>
      </trkpt>
      <trkpt lat="43.96787" lon="7.38084">
        <ele>1712.73</ele>
        <time>2017-07-30T10:12:47Z</time>
      </trkpt>
      <trkpt lat="43.96778" lon="7.38063">
        <ele>1713.21</ele>
        <time>2017-07-30T10:13:04Z</time>
      </trkpt>
      <trkpt lat="43.96772" lon="7.38052">
        <ele>1714.17</ele>
        <time>2017-07-30T10:13:15Z</time>
      </trkpt>
      <trkpt lat="43.9677" lon="7.38049">
        <ele>1714.17</ele>
        <time>2017-07-30T10:13:17Z</time>
      </trkpt>
      <trkpt lat="43.96761" lon="7.38034">
        <ele>1715.13</ele>
        <time>2017-07-30T10:13:35Z</time>
      </trkpt>
      <trkpt lat="43.96754" lon="7.38019">
        <ele>1716.09</ele>
        <time>2017-07-30T10:13:50Z</time>
      </trkpt>
      <trkpt lat="43.96743" lon="7.38006">
        <ele>1716.09</ele>
        <time>2017-07-30T10:14:05Z</time>
      </trkpt>
      <trkpt lat="43.9673" lon="7.38005">
        <ele>1716.09</ele>
        <time>2017-07-30T10:14:22Z</time>
      </trkpt>
      <trkpt lat="43.96718" lon="7.3801">
        <ele>1715.13</ele>
        <time>2017-07-30T10:14:36Z</time>
      </trkpt>
      <trkpt lat="43.96703" lon="7.38016">
        <ele>1712.25</ele>
        <time>2017-07-30T10:14:53Z</time>
      </trkpt>
      <trkpt lat="43.96688" lon="7.38012">
        <ele>1710.32</ele>
        <time>2017-07-30T10:15:09Z</time>
      </trkpt>
      <trkpt lat="43.9668" lon="7.38009">
        <ele>1709.84</ele>
        <time>2017-07-30T10:15:18Z</time>
      </trkpt>
      <trkpt lat="43.96666" lon="7.38008">
        <ele>1708.88</ele>
        <time>2017-07-30T10:15:33Z</time>
      </trkpt>
      <trkpt lat="43.96649" lon="7.38005">
        <ele>1708.88</ele>
        <time>2017-07-30T10:15:49Z</time>
      </trkpt>
      <trkpt lat="43.96636" lon="7.38002">
        <ele>1708.4</ele>
        <time>2017-07-30T10:16:05Z</time>
      </trkpt>
      <trkpt lat="43.96623" lon="7.37996">
        <ele>1706.48</ele>
        <time>2017-07-30T10:16:20Z</time>
      </trkpt>
      <trkpt lat="43.9661" lon="7.3799">
        <ele>1704.55</ele>
        <time>2017-07-30T10:16:35Z</time>
      </trkpt>
      <trkpt lat="43.96598" lon="7.37983">
        <ele>1703.11</ele>
        <time>2017-07-30T10:16:49Z</time>
      </trkpt>
      <trkpt lat="43.96583" lon="7.37975">
        <ele>1702.15</ele>
        <time>2017-07-30T10:17:05Z</time>
      </trkpt>
      <trkpt lat="43.96571" lon="7.3797">
        <ele>1700.71</ele>
        <time>2017-07-30T10:17:19Z</time>
      </trkpt>
      <trkpt lat="43.9656" lon="7.37965">
        <ele>1699.27</ele>
        <time>2017-07-30T10:17:32Z</time>
      </trkpt>
      <trkpt lat="43.96545" lon="7.37953">
        <ele>1698.79</ele>
        <time>2017-07-30T10:17:49Z</time>
      </trkpt>
      <trkpt lat="43.96525" lon="7.37942">
        <ele>1698.31</ele>
        <time>2017-07-30T10:18:08Z</time>
      </trkpt>
      <trkpt lat="43.96512" lon="7.37936">
        <ele>1698.31</ele>
        <time>2017-07-30T10:18:22Z</time>
      </trkpt>
      <trkpt lat="43.96497" lon="7.3793">
        <ele>1698.31</ele>
        <time>2017-07-30T10:18:36Z</time>
      </trkpt>
      <trkpt lat="43.96484" lon="7.37926">
        <ele>1696.38</ele>
        <time>2017-07-30T10:18:50Z</time>
      </trkpt>
      <trkpt lat="43.9647" lon="7.37925">
        <ele>1695.42</ele>
        <time>2017-07-30T10:19:06Z</time>
      </trkpt>
      <trkpt lat="43.9646" lon="7.3792">
        <ele>1694.46</ele>
        <time>2017-07-30T10:19:21Z</time>
      </trkpt>
      <trkpt lat="43.96449" lon="7.37914">
        <ele>1693.5</ele>
        <time>2017-07-30T10:19:35Z</time>
      </trkpt>
      <trkpt lat="43.96438" lon="7.37905">
        <ele>1691.1</ele>
        <time>2017-07-30T10:19:48Z</time>
      </trkpt>
      <trkpt lat="43.96423" lon="7.37895">
        <ele>1689.65</ele>
        <time>2017-07-30T10:20:03Z</time>
      </trkpt>
      <trkpt lat="43.96408" lon="7.37887">
        <ele>1689.17</ele>
        <time>2017-07-30T10:20:19Z</time>
      </trkpt>
      <trkpt lat="43.96394" lon="7.37878">
        <ele>1689.17</ele>
        <time>2017-07-30T10:20:35Z</time>
      </trkpt>
      <trkpt lat="43.9638" lon="7.37869">
        <ele>1688.21</ele>
        <time>2017-07-30T10:20:49Z</time>
      </trkpt>
      <trkpt lat="43.96379" lon="7.37868">
        <ele>1688.21</ele>
        <time>2017-07-30T10:20:50Z</time>
      </trkpt>
      <trkpt lat="43.96367" lon="7.37859">
        <ele>1687.73</ele>
        <time>2017-07-30T10:21:05Z</time>
      </trkpt>
      <trkpt lat="43.96355" lon="7.37851">
        <ele>1686.29</ele>
        <time>2017-07-30T10:21:19Z</time>
      </trkpt>
      <trkpt lat="43.96341" lon="7.37846">
        <ele>1685.81</ele>
        <time>2017-07-30T10:21:34Z</time>
      </trkpt>
      <trkpt lat="43.96325" lon="7.37841">
        <ele>1684.85</ele>
        <time>2017-07-30T10:21:50Z</time>
      </trkpt>
      <trkpt lat="43.9631" lon="7.37838">
        <ele>1683.41</ele>
        <time>2017-07-30T10:22:04Z</time>
      </trkpt>
      <trkpt lat="43.96301" lon="7.37839">
        <ele>1682.93</ele>
        <time>2017-07-30T10:22:17Z</time>
      </trkpt>
      <trkpt lat="43.96284" lon="7.37837">
        <ele>1682.93</ele>
        <time>2017-07-30T10:22:32Z</time>
      </trkpt>
      <trkpt lat="43.96268" lon="7.37837">
        <ele>1682.93</ele>
        <time>2017-07-30T10:22:46Z</time>
      </trkpt>
      <trkpt lat="43.96265" lon="7.37838">
        <ele>1684.37</ele>
        <time>2017-07-30T10:22:49Z</time>
      </trkpt>
      <trkpt lat="43.96249" lon="7.37839">
        <ele>1684.85</ele>
        <time>2017-07-30T10:23:05Z</time>
      </trkpt>
      <trkpt lat="43.96248" lon="7.3784">
        <ele>1683.41</ele>
        <time>2017-07-30T10:23:07Z</time>
      </trkpt>
      <trkpt lat="43.96237" lon="7.3784">
        <ele>1681</ele>
        <time>2017-07-30T10:23:19Z</time>
      </trkpt>
      <trkpt lat="43.96227" lon="7.37838">
        <ele>1678.12</ele>
        <time>2017-07-30T10:23:34Z</time>
      </trkpt>
      <trkpt lat="43.96215" lon="7.37833">
        <ele>1675.23</ele>
        <time>2017-07-30T10:23:49Z</time>
      </trkpt>
      <trkpt lat="43.96206" lon="7.37829">
        <ele>1672.83</ele>
        <time>2017-07-30T10:24:02Z</time>
      </trkpt>
      <trkpt lat="43.96194" lon="7.37827">
        <ele>1670.43</ele>
        <time>2017-07-30T10:24:17Z</time>
      </trkpt>
      <trkpt lat="43.96185" lon="7.37824">
        <ele>1667.06</ele>
        <time>2017-07-30T10:24:30Z</time>
      </trkpt>
      <trkpt lat="43.96172" lon="7.3782">
        <ele>1666.1</ele>
        <time>2017-07-30T10:24:46Z</time>
      </trkpt>
      <trkpt lat="43.96159" lon="7.37817">
        <ele>1664.66</ele>
        <time>2017-07-30T10:25:01Z</time>
      </trkpt>
      <trkpt lat="43.96145" lon="7.37814">
        <ele>1662.74</ele>
        <time>2017-07-30T10:25:17Z</time>
      </trkpt>
      <trkpt lat="43.96132" lon="7.37811">
        <ele>1661.3</ele>
        <time>2017-07-30T10:25:30Z</time>
      </trkpt>
      <trkpt lat="43.96119" lon="7.37809">
        <ele>1659.37</ele>
        <time>2017-07-30T10:25:43Z</time>
      </trkpt>
      <trkpt lat="43.96111" lon="7.37808">
        <ele>1656.97</ele>
        <time>2017-07-30T10:25:58Z</time>
      </trkpt>
      <trkpt lat="43.96103" lon="7.37811">
        <ele>1654.57</ele>
        <time>2017-07-30T10:26:17Z</time>
      </trkpt>
      <trkpt lat="43.96093" lon="7.3781">
        <ele>1652.64</ele>
        <time>2017-07-30T10:26:34Z</time>
      </trkpt>
      <trkpt lat="43.96083" lon="7.37803">
        <ele>1650.24</ele>
        <time>2017-07-30T10:26:49Z</time>
      </trkpt>
      <trkpt lat="43.96086" lon="7.37798">
        <ele>1648.8</ele>
        <time>2017-07-30T10:27:00Z</time>
      </trkpt>
      <trkpt lat="43.9608" lon="7.37796">
        <ele>1646.88</ele>
        <time>2017-07-30T10:27:14Z</time>
      </trkpt>
      <trkpt lat="43.96073" lon="7.37795">
        <ele>1645.43</ele>
        <time>2017-07-30T10:27:26Z</time>
      </trkpt>
      <trkpt lat="43.96062" lon="7.37794">
        <ele>1643.99</ele>
        <time>2017-07-30T10:27:41Z</time>
      </trkpt>
      <trkpt lat="43.9605" lon="7.37796">
        <ele>1642.55</ele>
        <time>2017-07-30T10:27:54Z</time>
      </trkpt>
      <trkpt lat="43.96039" lon="7.37792">
        <ele>1640.15</ele>
        <time>2017-07-30T10:28:08Z</time>
      </trkpt>
      <trkpt lat="43.96031" lon="7.37787">
        <ele>1638.7</ele>
        <time>2017-07-30T10:28:24Z</time>
      </trkpt>
      <trkpt lat="43.96037" lon="7.37781">
        <ele>1637.26</ele>
        <time>2017-07-30T10:28:37Z</time>
      </trkpt>
      <trkpt lat="43.96046" lon="7.37776">
        <ele>1633.9</ele>
        <time>2017-07-30T10:28:54Z</time>
      </trkpt>
      <trkpt lat="43.96038" lon="7.37771">
        <ele>1631.49</ele>
        <time>2017-07-30T10:29:11Z</time>
      </trkpt>
      <trkpt lat="43.96026" lon="7.37766">
        <ele>1629.09</ele>
        <time>2017-07-30T10:29:25Z</time>
      </trkpt>
      <trkpt lat="43.9601" lon="7.37758">
        <ele>1628.13</ele>
        <time>2017-07-30T10:29:41Z</time>
      </trkpt>
      <trkpt lat="43.95997" lon="7.37753">
        <ele>1627.17</ele>
        <time>2017-07-30T10:29:57Z</time>
      </trkpt>
      <trkpt lat="43.95987" lon="7.37748">
        <ele>1624.28</ele>
        <time>2017-07-30T10:30:14Z</time>
      </trkpt>
      <trkpt lat="43.95976" lon="7.37743">
        <ele>1622.84</ele>
        <time>2017-07-30T10:30:24Z</time>
      </trkpt>
      <trkpt lat="43.95968" lon="7.37736">
        <ele>1620.92</ele>
        <time>2017-07-30T10:30:38Z</time>
      </trkpt>
      <trkpt lat="43.95956" lon="7.3773">
        <ele>1618.04</ele>
        <time>2017-07-30T10:30:53Z</time>
      </trkpt>
      <trkpt lat="43.95947" lon="7.37726">
        <ele>1616.11</ele>
        <time>2017-07-30T10:31:04Z</time>
      </trkpt>
      <trkpt lat="43.95935" lon="7.37722">
        <ele>1614.19</ele>
        <time>2017-07-30T10:31:19Z</time>
      </trkpt>
      <trkpt lat="43.9592" lon="7.37718">
        <ele>1613.23</ele>
        <time>2017-07-30T10:31:34Z</time>
      </trkpt>
      <trkpt lat="43.95905" lon="7.37717">
        <ele>1612.27</ele>
        <time>2017-07-30T10:31:49Z</time>
      </trkpt>
      <trkpt lat="43.95894" lon="7.37716">
        <ele>1610.83</ele>
        <time>2017-07-30T10:32:03Z</time>
      </trkpt>
      <trkpt lat="43.95882" lon="7.37717">
        <ele>1609.86</ele>
        <time>2017-07-30T10:32:17Z</time>
      </trkpt>
      <trkpt lat="43.9587" lon="7.37711">
        <ele>1608.9</ele>
        <time>2017-07-30T10:32:32Z</time>
      </trkpt>
      <trkpt lat="43.95859" lon="7.37714">
        <ele>1608.9</ele>
        <time>2017-07-30T10:32:44Z</time>
      </trkpt>
      <trkpt lat="43.95848" lon="7.37714">
        <ele>1608.9</ele>
        <time>2017-07-30T10:32:58Z</time>
      </trkpt>
      <trkpt lat="43.95833" lon="7.37712">
        <ele>1608.42</ele>
        <time>2017-07-30T10:33:12Z</time>
      </trkpt>
      <trkpt lat="43.95824" lon="7.37707">
        <ele>1608.9</ele>
        <time>2017-07-30T10:33:28Z</time>
      </trkpt>
      <trkpt lat="43.95824" lon="7.37708">
        <ele>1607.46</ele>
        <time>2017-07-30T10:33:35Z</time>
      </trkpt>
      <trkpt lat="43.95814" lon="7.37707">
        <ele>1607.46</ele>
        <time>2017-07-30T10:33:48Z</time>
      </trkpt>
      <trkpt lat="43.95806" lon="7.37714">
        <ele>1607.46</ele>
        <time>2017-07-30T10:34:05Z</time>
      </trkpt>
      <trkpt lat="43.95799" lon="7.37724">
        <ele>1607.46</ele>
        <time>2017-07-30T10:34:21Z</time>
      </trkpt>
      <trkpt lat="43.95795" lon="7.3774">
        <ele>1606.98</ele>
        <time>2017-07-30T10:34:36Z</time>
      </trkpt>
      <trkpt lat="43.95791" lon="7.37754">
        <ele>1606.5</ele>
        <time>2017-07-30T10:34:46Z</time>
      </trkpt>
      <trkpt lat="43.95787" lon="7.37767">
        <ele>1606.5</ele>
        <time>2017-07-30T10:35:02Z</time>
      </trkpt>
      <trkpt lat="43.95787" lon="7.37768">
        <ele>1606.5</ele>
        <time>2017-07-30T10:35:15Z</time>
      </trkpt>
      <trkpt lat="43.95788" lon="7.37766">
        <ele>1605.06</ele>
        <time>2017-07-30T10:35:35Z</time>
      </trkpt>
      <trkpt lat="43.95786" lon="7.37769">
        <ele>1606.5</ele>
        <time>2017-07-30T10:35:56Z</time>
      </trkpt>
      <trkpt lat="43.95786" lon="7.37768">
        <ele>1607.46</ele>
        <time>2017-07-30T10:36:19Z</time>
      </trkpt>
      <trkpt lat="43.95787" lon="7.37768">
        <ele>1606.02</ele>
        <time>2017-07-30T10:36:36Z</time>
      </trkpt>
      <trkpt lat="43.95788" lon="7.37768">
        <ele>1606.02</ele>
        <time>2017-07-30T10:37:16Z</time>
      </trkpt>
      <trkpt lat="43.95784" lon="7.37771">
        <ele>1606.02</ele>
        <time>2017-07-30T10:37:52Z</time>
      </trkpt>
      <trkpt lat="43.95783" lon="7.37771">
        <ele>1606.5</ele>
        <time>2017-07-30T10:38:21Z</time>
      </trkpt>
      <trkpt lat="43.95784" lon="7.37772">
        <ele>1606.5</ele>
        <time>2017-07-30T10:38:57Z</time>
      </trkpt>
      <trkpt lat="43.95786" lon="7.37772">
        <ele>1606.98</ele>
        <time>2017-07-30T10:39:31Z</time>
      </trkpt>
      <trkpt lat="43.95782" lon="7.37771">
        <ele>1606.98</ele>
        <time>2017-07-30T10:40:09Z</time>
      </trkpt>
      <trkpt lat="43.95784" lon="7.37768">
        <ele>1606.98</ele>
        <time>2017-07-30T10:40:49Z</time>
      </trkpt>
      <trkpt lat="43.95786" lon="7.37773">
        <ele>1607.46</ele>
        <time>2017-07-30T10:41:34Z</time>
      </trkpt>
      <trkpt lat="43.95784" lon="7.37771">
        <ele>1607.46</ele>
        <time>2017-07-30T10:42:16Z</time>
      </trkpt>
      <trkpt lat="43.95784" lon="7.37766">
        <ele>1607.46</ele>
        <time>2017-07-30T10:43:02Z</time>
      </trkpt>
      <trkpt lat="43.95784" lon="7.37766">
        <ele>1607.94</ele>
        <time>2017-07-30T10:43:42Z</time>
      </trkpt>
      <trkpt lat="43.95787" lon="7.3777">
        <ele>1607.94</ele>
        <time>2017-07-30T10:44:22Z</time>
      </trkpt>
      <trkpt lat="43.95787" lon="7.3777">
        <ele>1607.94</ele>
        <time>2017-07-30T10:44:57Z</time>
      </trkpt>
      <trkpt lat="43.95788" lon="7.37771">
        <ele>1607.94</ele>
        <time>2017-07-30T10:45:40Z</time>
      </trkpt>
      <trkpt lat="43.95786" lon="7.37769">
        <ele>1607.94</ele>
        <time>2017-07-30T10:46:17Z</time>
      </trkpt>
      <trkpt lat="43.95785" lon="7.37764">
        <ele>1607.94</ele>
        <time>2017-07-30T10:46:57Z</time>
      </trkpt>
      <trkpt lat="43.95786" lon="7.37767">
        <ele>1608.42</ele>
        <time>2017-07-30T10:47:32Z</time>
      </trkpt>
      <trkpt lat="43.95784" lon="7.3777">
        <ele>1608.42</ele>
        <time>2017-07-30T10:48:06Z</time>
      </trkpt>
      <trkpt lat="43.95783" lon="7.37769">
        <ele>1608.42</ele>
        <time>2017-07-30T10:48:40Z</time>
      </trkpt>
      <trkpt lat="43.95784" lon="7.37772">
        <ele>1608.9</ele>
        <time>2017-07-30T10:49:16Z</time>
      </trkpt>
      <trkpt lat="43.95787" lon="7.37773">
        <ele>1608.9</ele>
        <time>2017-07-30T10:49:47Z</time>
      </trkpt>
      <trkpt lat="43.95785" lon="7.3777">
        <ele>1608.9</ele>
        <time>2017-07-30T10:50:33Z</time>
      </trkpt>
      <trkpt lat="43.95783" lon="7.37771">
        <ele>1609.38</ele>
        <time>2017-07-30T10:51:13Z</time>
      </trkpt>
      <trkpt lat="43.95786" lon="7.37765">
        <ele>1609.38</ele>
        <time>2017-07-30T10:51:54Z</time>
      </trkpt>
      <trkpt lat="43.95784" lon="7.37767">
        <ele>1609.38</ele>
        <time>2017-07-30T10:52:26Z</time>
      </trkpt>
      <trkpt lat="43.95784" lon="7.37766">
        <ele>1609.38</ele>
        <time>2017-07-30T10:52:58Z</time>
      </trkpt>
      <trkpt lat="43.95784" lon="7.37769">
        <ele>1610.83</ele>
        <time>2017-07-30T10:53:41Z</time>
      </trkpt>
      <trkpt lat="43.95786" lon="7.37768">
        <ele>1610.83</ele>
        <time>2017-07-30T10:54:16Z</time>
      </trkpt>
      <trkpt lat="43.95784" lon="7.37768">
        <ele>1610.83</ele>
        <time>2017-07-30T10:54:44Z</time>
      </trkpt>
      <trkpt lat="43.95783" lon="7.37765">
        <ele>1610.83</ele>
        <time>2017-07-30T10:55:19Z</time>
      </trkpt>
      <trkpt lat="43.95782" lon="7.37767">
        <ele>1610.83</ele>
        <time>2017-07-30T10:55:51Z</time>
      </trkpt>
      <trkpt lat="43.95784" lon="7.37769">
        <ele>1610.83</ele>
        <time>2017-07-30T10:56:33Z</time>
      </trkpt>
      <trkpt lat="43.95786" lon="7.37767">
        <ele>1610.83</ele>
        <time>2017-07-30T10:57:07Z</time>
      </trkpt>
      <trkpt lat="43.95786" lon="7.37768">
        <ele>1611.31</ele>
        <time>2017-07-30T10:57:43Z</time>
      </trkpt>
      <trkpt lat="43.95784" lon="7.37766">
        <ele>1611.31</ele>
        <time>2017-07-30T10:58:21Z</time>
      </trkpt>
      <trkpt lat="43.95786" lon="7.37767">
        <ele>1611.31</ele>
        <time>2017-07-30T10:58:48Z</time>
      </trkpt>
      <trkpt lat="43.95784" lon="7.37766">
        <ele>1611.31</ele>
        <time>2017-07-30T10:59:26Z</time>
      </trkpt>
      <trkpt lat="43.95785" lon="7.37766">
        <ele>1611.31</ele>
        <time>2017-07-30T11:00:03Z</time>
      </trkpt>
      <trkpt lat="43.95786" lon="7.37767">
        <ele>1611.31</ele>
        <time>2017-07-30T11:00:41Z</time>
      </trkpt>
      <trkpt lat="43.95786" lon="7.3777">
        <ele>1611.31</ele>
        <time>2017-07-30T11:01:16Z</time>
      </trkpt>
      <trkpt lat="43.95786" lon="7.37769">
        <ele>1611.31</ele>
        <time>2017-07-30T11:01:52Z</time>
      </trkpt>
      <trkpt lat="43.95785" lon="7.37768">
        <ele>1611.31</ele>
        <time>2017-07-30T11:02:28Z</time>
      </trkpt>
      <trkpt lat="43.95783" lon="7.37765">
        <ele>1611.79</ele>
        <time>2017-07-30T11:03:07Z</time>
      </trkpt>
      <trkpt lat="43.95787" lon="7.37767">
        <ele>1611.79</ele>
        <time>2017-07-30T11:03:44Z</time>
      </trkpt>
      <trkpt lat="43.95785" lon="7.37771">
        <ele>1611.79</ele>
        <time>2017-07-30T11:04:20Z</time>
      </trkpt>
      <trkpt lat="43.95783" lon="7.37773">
        <ele>1612.27</ele>
        <time>2017-07-30T11:04:55Z</time>
      </trkpt>
      <trkpt lat="43.95785" lon="7.37769">
        <ele>1612.75</ele>
        <time>2017-07-30T11:05:33Z</time>
      </trkpt>
      <trkpt lat="43.95785" lon="7.37764">
        <ele>1612.75</ele>
        <time>2017-07-30T11:06:08Z</time>
      </trkpt>
      <trkpt lat="43.95785" lon="7.37767">
        <ele>1612.27</ele>
        <time>2017-07-30T11:06:54Z</time>
      </trkpt>
      <trkpt lat="43.95785" lon="7.37766">
        <ele>1612.27</ele>
        <time>2017-07-30T11:07:30Z</time>
      </trkpt>
      <trkpt lat="43.95787" lon="7.37763">
        <ele>1612.27</ele>
        <time>2017-07-30T11:08:13Z</time>
      </trkpt>
      <trkpt lat="43.95789" lon="7.37769">
        <ele>1612.27</ele>
        <time>2017-07-30T11:08:53Z</time>
      </trkpt>
      <trkpt lat="43.95788" lon="7.37768">
        <ele>1612.75</ele>
        <time>2017-07-30T11:09:28Z</time>
      </trkpt>
      <trkpt lat="43.95788" lon="7.37763">
        <ele>1612.27</ele>
        <time>2017-07-30T11:10:08Z</time>
      </trkpt>
      <trkpt lat="43.95784" lon="7.37765">
        <ele>1612.27</ele>
        <time>2017-07-30T11:10:46Z</time>
      </trkpt>
      <trkpt lat="43.95783" lon="7.37766">
        <ele>1612.27</ele>
        <time>2017-07-30T11:11:18Z</time>
      </trkpt>
      <trkpt lat="43.9578" lon="7.37768">
        <ele>1612.27</ele>
        <time>2017-07-30T11:11:41Z</time>
      </trkpt>
      <trkpt lat="43.95781" lon="7.37767">
        <ele>1612.75</ele>
        <time>2017-07-30T11:12:13Z</time>
      </trkpt>
      <trkpt lat="43.95782" lon="7.37765">
        <ele>1612.75</ele>
        <time>2017-07-30T11:12:47Z</time>
      </trkpt>
      <trkpt lat="43.95784" lon="7.37769">
        <ele>1613.23</ele>
        <time>2017-07-30T11:13:18Z</time>
      </trkpt>
      <trkpt lat="43.95782" lon="7.37765">
        <ele>1613.23</ele>
        <time>2017-07-30T11:13:50Z</time>
      </trkpt>
      <trkpt lat="43.95783" lon="7.37766">
        <ele>1613.23</ele>
        <time>2017-07-30T11:14:28Z</time>
      </trkpt>
      <trkpt lat="43.95786" lon="7.37766">
        <ele>1613.71</ele>
        <time>2017-07-30T11:15:01Z</time>
      </trkpt>
      <trkpt lat="43.95783" lon="7.37766">
        <ele>1613.71</ele>
        <time>2017-07-30T11:15:43Z</time>
      </trkpt>
      <trkpt lat="43.95785" lon="7.37763">
        <ele>1613.71</ele>
        <time>2017-07-30T11:16:24Z</time>
      </trkpt>
      <trkpt lat="43.95787" lon="7.37767">
        <ele>1613.71</ele>
        <time>2017-07-30T11:17:03Z</time>
      </trkpt>
      <trkpt lat="43.95786" lon="7.37771">
        <ele>1613.71</ele>
        <time>2017-07-30T11:17:41Z</time>
      </trkpt>
      <trkpt lat="43.95786" lon="7.37773">
        <ele>1614.19</ele>
        <time>2017-07-30T11:18:23Z</time>
      </trkpt>
      <trkpt lat="43.95783" lon="7.37765">
        <ele>1614.19</ele>
        <time>2017-07-30T11:18:55Z</time>
      </trkpt>
      <trkpt lat="43.95782" lon="7.37765">
        <ele>1614.19</ele>
        <time>2017-07-30T11:19:31Z</time>
      </trkpt>
      <trkpt lat="43.95782" lon="7.37766">
        <ele>1614.19</ele>
        <time>2017-07-30T11:20:09Z</time>
      </trkpt>
      <trkpt lat="43.95783" lon="7.37764">
        <ele>1614.67</ele>
        <time>2017-07-30T11:20:47Z</time>
      </trkpt>
      <trkpt lat="43.95783" lon="7.37763">
        <ele>1614.67</ele>
        <time>2017-07-30T11:21:26Z</time>
      </trkpt>
      <trkpt lat="43.95782" lon="7.37766">
        <ele>1614.67</ele>
        <time>2017-07-30T11:22:05Z</time>
      </trkpt>
      <trkpt lat="43.95784" lon="7.37768">
        <ele>1614.67</ele>
        <time>2017-07-30T11:22:50Z</time>
      </trkpt>
      <trkpt lat="43.95785" lon="7.37768">
        <ele>1614.67</ele>
        <time>2017-07-30T11:23:38Z</time>
      </trkpt>
      <trkpt lat="43.95783" lon="7.3777">
        <ele>1614.19</ele>
        <time>2017-07-30T11:24:22Z</time>
      </trkpt>
      <trkpt lat="43.95782" lon="7.3777">
        <ele>1614.19</ele>
        <time>2017-07-30T11:25:00Z</time>
      </trkpt>
      <trkpt lat="43.95783" lon="7.3777">
        <ele>1614.67</ele>
        <time>2017-07-30T11:25:45Z</time>
      </trkpt>
      <trkpt lat="43.95783" lon="7.37772">
        <ele>1614.67</ele>
        <time>2017-07-30T11:26:24Z</time>
      </trkpt>
      <trkpt lat="43.95783" lon="7.37767">
        <ele>1614.67</ele>
        <time>2017-07-30T11:26:50Z</time>
      </trkpt>
      <trkpt lat="43.95784" lon="7.37768">
        <ele>1614.67</ele>
        <time>2017-07-30T11:27:34Z</time>
      </trkpt>
      <trkpt lat="43.95786" lon="7.37769">
        <ele>1614.67</ele>
        <time>2017-07-30T11:28:18Z</time>
      </trkpt>
      <trkpt lat="43.95786" lon="7.37769">
        <ele>1614.67</ele>
        <time>2017-07-30T11:28:48Z</time>
      </trkpt>
      <trkpt lat="43.95788" lon="7.37767">
        <ele>1614.67</ele>
        <time>2017-07-30T11:29:23Z</time>
      </trkpt>
      <trkpt lat="43.95787" lon="7.37767">
        <ele>1614.19</ele>
        <time>2017-07-30T11:29:55Z</time>
      </trkpt>
      <trkpt lat="43.95784" lon="7.3777">
        <ele>1614.19</ele>
        <time>2017-07-30T11:30:35Z</time>
      </trkpt>
      <trkpt lat="43.95788" lon="7.37768">
        <ele>1614.19</ele>
        <time>2017-07-30T11:31:23Z</time>
      </trkpt>
      <trkpt lat="43.95784" lon="7.37768">
        <ele>1614.19</ele>
        <time>2017-07-30T11:32:08Z</time>
      </trkpt>
      <trkpt lat="43.95784" lon="7.37767">
        <ele>1614.19</ele>
        <time>2017-07-30T11:32:40Z</time>
      </trkpt>
      <trkpt lat="43.95784" lon="7.37767">
        <ele>1614.19</ele>
        <time>2017-07-30T11:33:12Z</time>
      </trkpt>
      <trkpt lat="43.95788" lon="7.37765">
        <ele>1614.19</ele>
        <time>2017-07-30T11:33:52Z</time>
      </trkpt>
      <trkpt lat="43.95789" lon="7.37767">
        <ele>1614.19</ele>
        <time>2017-07-30T11:34:34Z</time>
      </trkpt>
      <trkpt lat="43.95786" lon="7.37771">
        <ele>1614.19</ele>
        <time>2017-07-30T11:35:11Z</time>
      </trkpt>
      <trkpt lat="43.95788" lon="7.3777">
        <ele>1614.19</ele>
        <time>2017-07-30T11:35:48Z</time>
      </trkpt>
      <trkpt lat="43.95786" lon="7.37768">
        <ele>1614.19</ele>
        <time>2017-07-30T11:36:28Z</time>
      </trkpt>
      <trkpt lat="43.95783" lon="7.37765">
        <ele>1614.19</ele>
        <time>2017-07-30T11:37:02Z</time>
      </trkpt>
      <trkpt lat="43.95784" lon="7.37768">
        <ele>1614.19</ele>
        <time>2017-07-30T11:37:33Z</time>
      </trkpt>
      <trkpt lat="43.95784" lon="7.37767">
        <ele>1614.19</ele>
        <time>2017-07-30T11:38:04Z</time>
      </trkpt>
      <trkpt lat="43.95784" lon="7.37765">
        <ele>1614.19</ele>
        <time>2017-07-30T11:38:43Z</time>
      </trkpt>
      <trkpt lat="43.95786" lon="7.37766">
        <ele>1614.19</ele>
        <time>2017-07-30T11:39:17Z</time>
      </trkpt>
      <trkpt lat="43.95784" lon="7.37768">
        <ele>1614.19</ele>
        <time>2017-07-30T11:39:55Z</time>
      </trkpt>
      <trkpt lat="43.95785" lon="7.37767">
        <ele>1614.19</ele>
        <time>2017-07-30T11:40:32Z</time>
      </trkpt>
      <trkpt lat="43.95785" lon="7.37763">
        <ele>1614.19</ele>
        <time>2017-07-30T11:41:00Z</time>
      </trkpt>
      <trkpt lat="43.95787" lon="7.37761">
        <ele>1614.19</ele>
        <time>2017-07-30T11:41:39Z</time>
      </trkpt>
      <trkpt lat="43.95786" lon="7.37768">
        <ele>1613.71</ele>
        <time>2017-07-30T11:42:14Z</time>
      </trkpt>
      <trkpt lat="43.95788" lon="7.37769">
        <ele>1613.71</ele>
        <time>2017-07-30T11:42:41Z</time>
      </trkpt>
      <trkpt lat="43.95787" lon="7.3777">
        <ele>1613.71</ele>
        <time>2017-07-30T11:43:04Z</time>
      </trkpt>
      <trkpt lat="43.95787" lon="7.37771">
        <ele>1613.71</ele>
        <time>2017-07-30T11:43:32Z</time>
      </trkpt>
      <trkpt lat="43.95786" lon="7.37766">
        <ele>1613.71</ele>
        <time>2017-07-30T11:43:55Z</time>
      </trkpt>
      <trkpt lat="43.95786" lon="7.37766">
        <ele>1613.71</ele>
        <time>2017-07-30T11:44:06Z</time>
      </trkpt>
      <trkpt lat="43.95789" lon="7.37769">
        <ele>1613.71</ele>
        <time>2017-07-30T11:44:17Z</time>
      </trkpt>
      <trkpt lat="43.9579" lon="7.37771">
        <ele>1613.71</ele>
        <time>2017-07-30T11:44:42Z</time>
      </trkpt>
      <trkpt lat="43.9579" lon="7.37773">
        <ele>1613.71</ele>
        <time>2017-07-30T11:45:06Z</time>
      </trkpt>
      <trkpt lat="43.9579" lon="7.37772">
        <ele>1614.19</ele>
        <time>2017-07-30T11:45:25Z</time>
      </trkpt>
      <trkpt lat="43.95792" lon="7.37772">
        <ele>1614.19</ele>
        <time>2017-07-30T11:45:51Z</time>
      </trkpt>
      <trkpt lat="43.95794" lon="7.37766">
        <ele>1614.19</ele>
        <time>2017-07-30T11:46:19Z</time>
      </trkpt>
      <trkpt lat="43.95792" lon="7.37769">
        <ele>1614.19</ele>
        <time>2017-07-30T11:46:46Z</time>
      </trkpt>
      <trkpt lat="43.95791" lon="7.3777">
        <ele>1613.71</ele>
        <time>2017-07-30T11:47:15Z</time>
      </trkpt>
      <trkpt lat="43.95791" lon="7.37773">
        <ele>1613.71</ele>
        <time>2017-07-30T11:47:37Z</time>
      </trkpt>
      <trkpt lat="43.95792" lon="7.37769">
        <ele>1613.71</ele>
        <time>2017-07-30T11:48:07Z</time>
      </trkpt>
      <trkpt lat="43.95791" lon="7.37771">
        <ele>1614.19</ele>
        <time>2017-07-30T11:48:37Z</time>
      </trkpt>
      <trkpt lat="43.95792" lon="7.37774">
        <ele>1614.19</ele>
        <time>2017-07-30T11:49:00Z</time>
      </trkpt>
      <trkpt lat="43.9579" lon="7.37777">
        <ele>1614.19</ele>
        <time>2017-07-30T11:49:24Z</time>
      </trkpt>
      <trkpt lat="43.95789" lon="7.37773">
        <ele>1614.67</ele>
        <time>2017-07-30T11:49:45Z</time>
      </trkpt>
      <trkpt lat="43.95787" lon="7.37774">
        <ele>1613.71</ele>
        <time>2017-07-30T11:50:04Z</time>
      </trkpt>
      <trkpt lat="43.95789" lon="7.37757">
        <ele>1613.71</ele>
        <time>2017-07-30T11:50:20Z</time>
      </trkpt>
      <trkpt lat="43.95793" lon="7.37741">
        <ele>1613.71</ele>
        <time>2017-07-30T11:50:35Z</time>
      </trkpt>
      <trkpt lat="43.95785" lon="7.37724">
        <ele>1613.71</ele>
        <time>2017-07-30T11:50:49Z</time>
      </trkpt>
      <trkpt lat="43.95782" lon="7.37718">
        <ele>1613.23</ele>
        <time>2017-07-30T11:51:06Z</time>
      </trkpt>
      <trkpt lat="43.95771" lon="7.3771">
        <ele>1612.27</ele>
        <time>2017-07-30T11:51:21Z</time>
      </trkpt>
      <trkpt lat="43.95761" lon="7.37704">
        <ele>1611.31</ele>
        <time>2017-07-30T11:51:36Z</time>
      </trkpt>
      <trkpt lat="43.95744" lon="7.37692">
        <ele>1610.35</ele>
        <time>2017-07-30T11:51:52Z</time>
      </trkpt>
      <trkpt lat="43.95724" lon="7.37675">
        <ele>1610.35</ele>
        <time>2017-07-30T11:52:08Z</time>
      </trkpt>
      <trkpt lat="43.9571" lon="7.37663">
        <ele>1610.35</ele>
        <time>2017-07-30T11:52:22Z</time>
      </trkpt>
      <trkpt lat="43.9569" lon="7.37658">
        <ele>1609.86</ele>
        <time>2017-07-30T11:52:41Z</time>
      </trkpt>
      <trkpt lat="43.9567" lon="7.37659">
        <ele>1608.9</ele>
        <time>2017-07-30T11:52:58Z</time>
      </trkpt>
      <trkpt lat="43.95652" lon="7.37666">
        <ele>1608.42</ele>
        <time>2017-07-30T11:53:14Z</time>
      </trkpt>
      <trkpt lat="43.95634" lon="7.37679">
        <ele>1607.94</ele>
        <time>2017-07-30T11:53:28Z</time>
      </trkpt>
      <trkpt lat="43.95612" lon="7.3769">
        <ele>1607.46</ele>
        <time>2017-07-30T11:53:46Z</time>
      </trkpt>
      <trkpt lat="43.95589" lon="7.37706">
        <ele>1606.98</ele>
        <time>2017-07-30T11:54:03Z</time>
      </trkpt>
      <trkpt lat="43.95585" lon="7.37708">
        <ele>1606.98</ele>
        <time>2017-07-30T11:54:05Z</time>
      </trkpt>
      <trkpt lat="43.95566" lon="7.37719">
        <ele>1606.98</ele>
        <time>2017-07-30T11:54:21Z</time>
      </trkpt>
      <trkpt lat="43.95547" lon="7.37732">
        <ele>1606.02</ele>
        <time>2017-07-30T11:54:36Z</time>
      </trkpt>
      <trkpt lat="43.95543" lon="7.37735">
        <ele>1605.54</ele>
        <time>2017-07-30T11:54:39Z</time>
      </trkpt>
      <trkpt lat="43.95528" lon="7.37763">
        <ele>1604.1</ele>
        <time>2017-07-30T11:54:57Z</time>
      </trkpt>
      <trkpt lat="43.95521" lon="7.37787">
        <ele>1602.17</ele>
        <time>2017-07-30T11:55:13Z</time>
      </trkpt>
      <trkpt lat="43.95514" lon="7.37814">
        <ele>1601.21</ele>
        <time>2017-07-30T11:55:29Z</time>
      </trkpt>
      <trkpt lat="43.95512" lon="7.37845">
        <ele>1599.29</ele>
        <time>2017-07-30T11:55:45Z</time>
      </trkpt>
      <trkpt lat="43.95507" lon="7.37877">
        <ele>1597.85</ele>
        <time>2017-07-30T11:56:02Z</time>
      </trkpt>
      <trkpt lat="43.95507" lon="7.37883">
        <ele>1597.85</ele>
        <time>2017-07-30T11:56:05Z</time>
      </trkpt>
      <trkpt lat="43.95504" lon="7.37911">
        <ele>1596.41</ele>
        <time>2017-07-30T11:56:22Z</time>
      </trkpt>
      <trkpt lat="43.95502" lon="7.37929">
        <ele>1595.45</ele>
        <time>2017-07-30T11:56:35Z</time>
      </trkpt>
      <trkpt lat="43.95498" lon="7.37955">
        <ele>1594</ele>
        <time>2017-07-30T11:56:50Z</time>
      </trkpt>
      <trkpt lat="43.95492" lon="7.3799">
        <ele>1592.56</ele>
        <time>2017-07-30T11:57:09Z</time>
      </trkpt>
      <trkpt lat="43.95485" lon="7.38018">
        <ele>1590.64</ele>
        <time>2017-07-30T11:57:27Z</time>
      </trkpt>
      <trkpt lat="43.95478" lon="7.38043">
        <ele>1589.2</ele>
        <time>2017-07-30T11:57:45Z</time>
      </trkpt>
      <trkpt lat="43.9547" lon="7.38066">
        <ele>1586.79</ele>
        <time>2017-07-30T11:58:01Z</time>
      </trkpt>
      <trkpt lat="43.95459" lon="7.38091">
        <ele>1584.87</ele>
        <time>2017-07-30T11:58:19Z</time>
      </trkpt>
      <trkpt lat="43.9545" lon="7.38118">
        <ele>1583.43</ele>
        <time>2017-07-30T11:58:36Z</time>
      </trkpt>
      <trkpt lat="43.95442" lon="7.38145">
        <ele>1581.51</ele>
        <time>2017-07-30T11:58:53Z</time>
      </trkpt>
      <trkpt lat="43.95437" lon="7.3817">
        <ele>1579.1</ele>
        <time>2017-07-30T11:59:10Z</time>
      </trkpt>
      <trkpt lat="43.95431" lon="7.38198">
        <ele>1576.7</ele>
        <time>2017-07-30T11:59:28Z</time>
      </trkpt>
      <trkpt lat="43.95426" lon="7.38227">
        <ele>1575.26</ele>
        <time>2017-07-30T11:59:47Z</time>
      </trkpt>
      <trkpt lat="43.95415" lon="7.38256">
        <ele>1573.82</ele>
        <time>2017-07-30T12:00:04Z</time>
      </trkpt>
      <trkpt lat="43.95407" lon="7.38275">
        <ele>1573.33</ele>
        <time>2017-07-30T12:00:18Z</time>
      </trkpt>
      <trkpt lat="43.95393" lon="7.38294">
        <ele>1571.41</ele>
        <time>2017-07-30T12:00:34Z</time>
      </trkpt>
      <trkpt lat="43.95376" lon="7.38309">
        <ele>1569.97</ele>
        <time>2017-07-30T12:00:51Z</time>
      </trkpt>
      <trkpt lat="43.9536" lon="7.38326">
        <ele>1568.05</ele>
        <time>2017-07-30T12:01:08Z</time>
      </trkpt>
      <trkpt lat="43.95345" lon="7.3834">
        <ele>1566.12</ele>
        <time>2017-07-30T12:01:25Z</time>
      </trkpt>
      <trkpt lat="43.95332" lon="7.38361">
        <ele>1563.72</ele>
        <time>2017-07-30T12:01:42Z</time>
      </trkpt>
      <trkpt lat="43.9532" lon="7.38383">
        <ele>1561.8</ele>
        <time>2017-07-30T12:01:59Z</time>
      </trkpt>
      <trkpt lat="43.95309" lon="7.38405">
        <ele>1560.36</ele>
        <time>2017-07-30T12:02:15Z</time>
      </trkpt>
      <trkpt lat="43.95296" lon="7.38432">
        <ele>1558.43</ele>
        <time>2017-07-30T12:02:33Z</time>
      </trkpt>
      <trkpt lat="43.95285" lon="7.38456">
        <ele>1556.99</ele>
        <time>2017-07-30T12:02:50Z</time>
      </trkpt>
      <trkpt lat="43.95278" lon="7.38466">
        <ele>1555.55</ele>
        <time>2017-07-30T12:03:05Z</time>
      </trkpt>
      <trkpt lat="43.95269" lon="7.38478">
        <ele>1553.63</ele>
        <time>2017-07-30T12:03:20Z</time>
      </trkpt>
      <trkpt lat="43.95264" lon="7.3848">
        <ele>1553.63</ele>
        <time>2017-07-30T12:03:24Z</time>
      </trkpt>
      <trkpt lat="43.95256" lon="7.38489">
        <ele>1552.67</ele>
        <time>2017-07-30T12:03:34Z</time>
      </trkpt>
      <trkpt lat="43.95256" lon="7.3851">
        <ele>1551.71</ele>
        <time>2017-07-30T12:03:49Z</time>
      </trkpt>
      <trkpt lat="43.9526" lon="7.38521">
        <ele>1550.74</ele>
        <time>2017-07-30T12:03:58Z</time>
      </trkpt>
      <trkpt lat="43.95266" lon="7.38525">
        <ele>1550.26</ele>
        <time>2017-07-30T12:04:04Z</time>
      </trkpt>
      <trkpt lat="43.95279" lon="7.38525">
        <ele>1548.82</ele>
        <time>2017-07-30T12:04:19Z</time>
      </trkpt>
      <trkpt lat="43.95287" lon="7.38525">
        <ele>1547.38</ele>
        <time>2017-07-30T12:04:32Z</time>
      </trkpt>
      <trkpt lat="43.95303" lon="7.38532">
        <ele>1544.98</ele>
        <time>2017-07-30T12:04:48Z</time>
      </trkpt>
      <trkpt lat="43.9531" lon="7.38533">
        <ele>1544.01</ele>
        <time>2017-07-30T12:04:57Z</time>
      </trkpt>
      <trkpt lat="43.95323" lon="7.38529">
        <ele>1542.57</ele>
        <time>2017-07-30T12:05:13Z</time>
      </trkpt>
      <trkpt lat="43.95324" lon="7.38528">
        <ele>1542.57</ele>
        <time>2017-07-30T12:05:14Z</time>
      </trkpt>
      <trkpt lat="43.9534" lon="7.38515">
        <ele>1540.65</ele>
        <time>2017-07-30T12:05:32Z</time>
      </trkpt>
      <trkpt lat="43.95354" lon="7.38499">
        <ele>1539.21</ele>
        <time>2017-07-30T12:05:48Z</time>
      </trkpt>
      <trkpt lat="43.95368" lon="7.3848">
        <ele>1536.8</ele>
        <time>2017-07-30T12:06:05Z</time>
      </trkpt>
      <trkpt lat="43.95382" lon="7.38464">
        <ele>1534.4</ele>
        <time>2017-07-30T12:06:20Z</time>
      </trkpt>
      <trkpt lat="43.95398" lon="7.38448">
        <ele>1532</ele>
        <time>2017-07-30T12:06:36Z</time>
      </trkpt>
      <trkpt lat="43.95413" lon="7.38432">
        <ele>1529.59</ele>
        <time>2017-07-30T12:06:53Z</time>
      </trkpt>
      <trkpt lat="43.95434" lon="7.38418">
        <ele>1528.63</ele>
        <time>2017-07-30T12:07:10Z</time>
      </trkpt>
      <trkpt lat="43.95453" lon="7.38408">
        <ele>1526.23</ele>
        <time>2017-07-30T12:07:26Z</time>
      </trkpt>
      <trkpt lat="43.95473" lon="7.38392">
        <ele>1523.83</ele>
        <time>2017-07-30T12:07:45Z</time>
      </trkpt>
      <trkpt lat="43.95479" lon="7.38368">
        <ele>1521.42</ele>
        <time>2017-07-30T12:08:03Z</time>
      </trkpt>
      <trkpt lat="43.9548" lon="7.38359">
        <ele>1520.94</ele>
        <time>2017-07-30T12:08:09Z</time>
      </trkpt>
      <trkpt lat="43.95479" lon="7.38331">
        <ele>1518.06</ele>
        <time>2017-07-30T12:08:27Z</time>
      </trkpt>
      <trkpt lat="43.9548" lon="7.38309">
        <ele>1516.62</ele>
        <time>2017-07-30T12:08:41Z</time>
      </trkpt>
      <trkpt lat="43.95482" lon="7.38301">
        <ele>1515.66</ele>
        <time>2017-07-30T12:08:46Z</time>
      </trkpt>
      <trkpt lat="43.95494" lon="7.38282">
        <ele>1514.21</ele>
        <time>2017-07-30T12:09:01Z</time>
      </trkpt>
      <trkpt lat="43.95508" lon="7.38263">
        <ele>1512.29</ele>
        <time>2017-07-30T12:09:18Z</time>
      </trkpt>
      <trkpt lat="43.95515" lon="7.38239">
        <ele>1510.37</ele>
        <time>2017-07-30T12:09:35Z</time>
      </trkpt>
      <trkpt lat="43.95524" lon="7.38216">
        <ele>1507.97</ele>
        <time>2017-07-30T12:09:51Z</time>
      </trkpt>
      <trkpt lat="43.95536" lon="7.38198">
        <ele>1505.56</ele>
        <time>2017-07-30T12:10:05Z</time>
      </trkpt>
      <trkpt lat="43.95543" lon="7.38191">
        <ele>1505.08</ele>
        <time>2017-07-30T12:10:12Z</time>
      </trkpt>
      <trkpt lat="43.95564" lon="7.38177">
        <ele>1502.68</ele>
        <time>2017-07-30T12:10:30Z</time>
      </trkpt>
      <trkpt lat="43.9557" lon="7.3817">
        <ele>1502.2</ele>
        <time>2017-07-30T12:10:36Z</time>
      </trkpt>
      <trkpt lat="43.9558" lon="7.38149">
        <ele>1500.27</ele>
        <time>2017-07-30T12:10:52Z</time>
      </trkpt>
      <trkpt lat="43.95587" lon="7.38124">
        <ele>1497.39</ele>
        <time>2017-07-30T12:11:09Z</time>
      </trkpt>
      <trkpt lat="43.95593" lon="7.38102">
        <ele>1495.47</ele>
        <time>2017-07-30T12:11:26Z</time>
      </trkpt>
      <trkpt lat="43.95597" lon="7.38086">
        <ele>1494.51</ele>
        <time>2017-07-30T12:11:36Z</time>
      </trkpt>
      <trkpt lat="43.956" lon="7.38067">
        <ele>1493.06</ele>
        <time>2017-07-30T12:11:50Z</time>
      </trkpt>
      <trkpt lat="43.95602" lon="7.38064">
        <ele>1493.06</ele>
        <time>2017-07-30T12:12:09Z</time>
      </trkpt>
      <trkpt lat="43.95604" lon="7.38065">
        <ele>1493.06</ele>
        <time>2017-07-30T12:12:27Z</time>
      </trkpt>
      <trkpt lat="43.95608" lon="7.38064">
        <ele>1493.06</ele>
        <time>2017-07-30T12:12:46Z</time>
      </trkpt>
      <trkpt lat="43.95609" lon="7.38065">
        <ele>1492.1</ele>
        <time>2017-07-30T12:13:07Z</time>
      </trkpt>
      <trkpt lat="43.95616" lon="7.38054">
        <ele>1491.14</ele>
        <time>2017-07-30T12:13:21Z</time>
      </trkpt>
      <trkpt lat="43.95618" lon="7.38044">
        <ele>1491.14</ele>
        <time>2017-07-30T12:13:35Z</time>
      </trkpt>
      <trkpt lat="43.9562" lon="7.38047">
        <ele>1490.18</ele>
        <time>2017-07-30T12:13:52Z</time>
      </trkpt>
      <trkpt lat="43.95626" lon="7.38051">
        <ele>1489.7</ele>
        <time>2017-07-30T12:14:19Z</time>
      </trkpt>
      <trkpt lat="43.95628" lon="7.3805">
        <ele>1489.7</ele>
        <time>2017-07-30T12:14:54Z</time>
      </trkpt>
      <trkpt lat="43.95628" lon="7.38053">
        <ele>1489.7</ele>
        <time>2017-07-30T12:15:31Z</time>
      </trkpt>
      <trkpt lat="43.95626" lon="7.38055">
        <ele>1489.7</ele>
        <time>2017-07-30T12:16:11Z</time>
      </trkpt>
      <trkpt lat="43.95628" lon="7.38056">
        <ele>1490.18</ele>
        <time>2017-07-30T12:16:37Z</time>
      </trkpt>
      <trkpt lat="43.95626" lon="7.38054">
        <ele>1490.18</ele>
        <time>2017-07-30T12:17:00Z</time>
      </trkpt>
      <trkpt lat="43.95623" lon="7.38058">
        <ele>1490.18</ele>
        <time>2017-07-30T12:17:26Z</time>
      </trkpt>
      <trkpt lat="43.95617" lon="7.38062">
        <ele>1491.14</ele>
        <time>2017-07-30T12:17:42Z</time>
      </trkpt>
      <trkpt lat="43.95613" lon="7.38074">
        <ele>1491.62</ele>
        <time>2017-07-30T12:17:58Z</time>
      </trkpt>
      <trkpt lat="43.95612" lon="7.38084">
        <ele>1490.66</ele>
        <time>2017-07-30T12:18:09Z</time>
      </trkpt>
      <trkpt lat="43.9561" lon="7.38094">
        <ele>1488.26</ele>
        <time>2017-07-30T12:18:24Z</time>
      </trkpt>
      <trkpt lat="43.95608" lon="7.38106">
        <ele>1486.34</ele>
        <time>2017-07-30T12:18:39Z</time>
      </trkpt>
      <trkpt lat="43.95606" lon="7.38133">
        <ele>1484.41</ele>
        <time>2017-07-30T12:19:01Z</time>
      </trkpt>
      <trkpt lat="43.95606" lon="7.38154">
        <ele>1483.45</ele>
        <time>2017-07-30T12:19:19Z</time>
      </trkpt>
      <trkpt lat="43.95602" lon="7.38171">
        <ele>1482.97</ele>
        <time>2017-07-30T12:19:31Z</time>
      </trkpt>
      <trkpt lat="43.95594" lon="7.38194">
        <ele>1482.49</ele>
        <time>2017-07-30T12:19:47Z</time>
      </trkpt>
      <trkpt lat="43.95585" lon="7.38203">
        <ele>1481.53</ele>
        <time>2017-07-30T12:19:59Z</time>
      </trkpt>
      <trkpt lat="43.95578" lon="7.38206">
        <ele>1480.09</ele>
        <time>2017-07-30T12:20:08Z</time>
      </trkpt>
      <trkpt lat="43.9557" lon="7.38216">
        <ele>1478.16</ele>
        <time>2017-07-30T12:20:17Z</time>
      </trkpt>
      <trkpt lat="43.95564" lon="7.38233">
        <ele>1476.24</ele>
        <time>2017-07-30T12:20:32Z</time>
      </trkpt>
      <trkpt lat="43.95559" lon="7.38255">
        <ele>1473.84</ele>
        <time>2017-07-30T12:20:48Z</time>
      </trkpt>
      <trkpt lat="43.95551" lon="7.38277">
        <ele>1473.36</ele>
        <time>2017-07-30T12:21:02Z</time>
      </trkpt>
      <trkpt lat="43.95545" lon="7.38299">
        <ele>1472.4</ele>
        <time>2017-07-30T12:21:18Z</time>
      </trkpt>
      <trkpt lat="43.95546" lon="7.3833">
        <ele>1472.4</ele>
        <time>2017-07-30T12:21:31Z</time>
      </trkpt>
      <trkpt lat="43.95546" lon="7.38351">
        <ele>1471.92</ele>
        <time>2017-07-30T12:21:44Z</time>
      </trkpt>
      <trkpt lat="43.95551" lon="7.38372">
        <ele>1469.99</ele>
        <time>2017-07-30T12:21:58Z</time>
      </trkpt>
      <trkpt lat="43.95554" lon="7.38392">
        <ele>1468.55</ele>
        <time>2017-07-30T12:22:14Z</time>
      </trkpt>
      <trkpt lat="43.95554" lon="7.38415">
        <ele>1466.63</ele>
        <time>2017-07-30T12:22:28Z</time>
      </trkpt>
      <trkpt lat="43.9555" lon="7.38435">
        <ele>1466.15</ele>
        <time>2017-07-30T12:22:43Z</time>
      </trkpt>
      <trkpt lat="43.9554" lon="7.38447">
        <ele>1465.67</ele>
        <time>2017-07-30T12:22:59Z</time>
      </trkpt>
      <trkpt lat="43.95525" lon="7.38461">
        <ele>1464.71</ele>
        <time>2017-07-30T12:23:16Z</time>
      </trkpt>
      <trkpt lat="43.95515" lon="7.38473">
        <ele>1464.23</ele>
        <time>2017-07-30T12:23:30Z</time>
      </trkpt>
      <trkpt lat="43.95507" lon="7.38487">
        <ele>1464.23</ele>
        <time>2017-07-30T12:23:41Z</time>
      </trkpt>
      <trkpt lat="43.95496" lon="7.38508">
        <ele>1462.78</ele>
        <time>2017-07-30T12:23:57Z</time>
      </trkpt>
      <trkpt lat="43.95483" lon="7.3853">
        <ele>1461.82</ele>
        <time>2017-07-30T12:24:14Z</time>
      </trkpt>
      <trkpt lat="43.95475" lon="7.38546">
        <ele>1459.9</ele>
        <time>2017-07-30T12:24:29Z</time>
      </trkpt>
      <trkpt lat="43.95467" lon="7.38569">
        <ele>1457.98</ele>
        <time>2017-07-30T12:24:45Z</time>
      </trkpt>
      <trkpt lat="43.95459" lon="7.38593">
        <ele>1455.57</ele>
        <time>2017-07-30T12:25:04Z</time>
      </trkpt>
      <trkpt lat="43.95454" lon="7.38617">
        <ele>1453.17</ele>
        <time>2017-07-30T12:25:18Z</time>
      </trkpt>
      <trkpt lat="43.95448" lon="7.38626">
        <ele>1451.25</ele>
        <time>2017-07-30T12:25:31Z</time>
      </trkpt>
      <trkpt lat="43.95437" lon="7.38629">
        <ele>1448.36</ele>
        <time>2017-07-30T12:25:43Z</time>
      </trkpt>
      <trkpt lat="43.95428" lon="7.3863">
        <ele>1447.4</ele>
        <time>2017-07-30T12:25:51Z</time>
      </trkpt>
      <trkpt lat="43.95414" lon="7.38642">
        <ele>1444.52</ele>
        <time>2017-07-30T12:26:08Z</time>
      </trkpt>
      <trkpt lat="43.95403" lon="7.38657">
        <ele>1442.11</ele>
        <time>2017-07-30T12:26:23Z</time>
      </trkpt>
      <trkpt lat="43.95394" lon="7.38678">
        <ele>1438.75</ele>
        <time>2017-07-30T12:26:36Z</time>
      </trkpt>
      <trkpt lat="43.95386" lon="7.38697">
        <ele>1436.83</ele>
        <time>2017-07-30T12:26:52Z</time>
      </trkpt>
      <trkpt lat="43.95385" lon="7.3872">
        <ele>1435.39</ele>
        <time>2017-07-30T12:27:11Z</time>
      </trkpt>
      <trkpt lat="43.9538" lon="7.3874">
        <ele>1433.94</ele>
        <time>2017-07-30T12:27:26Z</time>
      </trkpt>
      <trkpt lat="43.95379" lon="7.3876">
        <ele>1432.5</ele>
        <time>2017-07-30T12:27:40Z</time>
      </trkpt>
      <trkpt lat="43.95375" lon="7.3878">
        <ele>1431.06</ele>
        <time>2017-07-30T12:27:55Z</time>
      </trkpt>
      <trkpt lat="43.95366" lon="7.38792">
        <ele>1429.14</ele>
        <time>2017-07-30T12:28:09Z</time>
      </trkpt>
      <trkpt lat="43.95349" lon="7.38804">
        <ele>1426.73</ele>
        <time>2017-07-30T12:28:27Z</time>
      </trkpt>
      <trkpt lat="43.95339" lon="7.38806">
        <ele>1424.33</ele>
        <time>2017-07-30T12:28:40Z</time>
      </trkpt>
      <trkpt lat="43.95323" lon="7.38807">
        <ele>1422.41</ele>
        <time>2017-07-30T12:28:58Z</time>
      </trkpt>
      <trkpt lat="43.95303" lon="7.38813">
        <ele>1419.52</ele>
        <time>2017-07-30T12:29:14Z</time>
      </trkpt>
      <trkpt lat="43.95289" lon="7.38814">
        <ele>1416.64</ele>
        <time>2017-07-30T12:29:29Z</time>
      </trkpt>
      <trkpt lat="43.95272" lon="7.38817">
        <ele>1414.72</ele>
        <time>2017-07-30T12:29:44Z</time>
      </trkpt>
      <trkpt lat="43.95261" lon="7.38823">
        <ele>1411.83</ele>
        <time>2017-07-30T12:29:58Z</time>
      </trkpt>
      <trkpt lat="43.9525" lon="7.38832">
        <ele>1409.43</ele>
        <time>2017-07-30T12:30:10Z</time>
      </trkpt>
      <trkpt lat="43.9524" lon="7.3884">
        <ele>1407.03</ele>
        <time>2017-07-30T12:30:23Z</time>
      </trkpt>
      <trkpt lat="43.95229" lon="7.38849">
        <ele>1404.14</ele>
        <time>2017-07-30T12:30:38Z</time>
      </trkpt>
      <trkpt lat="43.95219" lon="7.3886">
        <ele>1402.22</ele>
        <time>2017-07-30T12:30:51Z</time>
      </trkpt>
      <trkpt lat="43.95207" lon="7.38872">
        <ele>1398.37</ele>
        <time>2017-07-30T12:31:05Z</time>
      </trkpt>
      <trkpt lat="43.95197" lon="7.38879">
        <ele>1395.97</ele>
        <time>2017-07-30T12:31:19Z</time>
      </trkpt>
      <trkpt lat="43.95183" lon="7.38897">
        <ele>1392.61</ele>
        <time>2017-07-30T12:31:33Z</time>
      </trkpt>
      <trkpt lat="43.95177" lon="7.38911">
        <ele>1390.2</ele>
        <time>2017-07-30T12:31:46Z</time>
      </trkpt>
      <trkpt lat="43.95168" lon="7.38929">
        <ele>1387.8</ele>
        <time>2017-07-30T12:32:01Z</time>
      </trkpt>
      <trkpt lat="43.95161" lon="7.38949">
        <ele>1384.92</ele>
        <time>2017-07-30T12:32:18Z</time>
      </trkpt>
      <trkpt lat="43.95157" lon="7.38957">
        <ele>1382.03</ele>
        <time>2017-07-30T12:32:31Z</time>
      </trkpt>
      <trkpt lat="43.95153" lon="7.38968">
        <ele>1379.15</ele>
        <time>2017-07-30T12:32:45Z</time>
      </trkpt>
      <trkpt lat="43.95145" lon="7.38987">
        <ele>1375.78</ele>
        <time>2017-07-30T12:33:04Z</time>
      </trkpt>
      <trkpt lat="43.95139" lon="7.39015">
        <ele>1372.9</ele>
        <time>2017-07-30T12:33:21Z</time>
      </trkpt>
      <trkpt lat="43.95136" lon="7.39025">
        <ele>1370.5</ele>
        <time>2017-07-30T12:33:33Z</time>
      </trkpt>
      <trkpt lat="43.95132" lon="7.39042">
        <ele>1368.09</ele>
        <time>2017-07-30T12:33:47Z</time>
      </trkpt>
      <trkpt lat="43.95131" lon="7.39052">
        <ele>1365.21</ele>
        <time>2017-07-30T12:34:01Z</time>
      </trkpt>
      <trkpt lat="43.95129" lon="7.39065">
        <ele>1362.81</ele>
        <time>2017-07-30T12:34:15Z</time>
      </trkpt>
      <trkpt lat="43.95127" lon="7.39077">
        <ele>1359.92</ele>
        <time>2017-07-30T12:34:29Z</time>
      </trkpt>
      <trkpt lat="43.95127" lon="7.39091">
        <ele>1358</ele>
        <time>2017-07-30T12:34:42Z</time>
      </trkpt>
      <trkpt lat="43.95121" lon="7.39112">
        <ele>1355.12</ele>
        <time>2017-07-30T12:34:58Z</time>
      </trkpt>
      <trkpt lat="43.95122" lon="7.39128">
        <ele>1352.71</ele>
        <time>2017-07-30T12:35:11Z</time>
      </trkpt>
      <trkpt lat="43.95123" lon="7.39143">
        <ele>1349.83</ele>
        <time>2017-07-30T12:35:24Z</time>
      </trkpt>
      <trkpt lat="43.95124" lon="7.3916">
        <ele>1346.94</ele>
        <time>2017-07-30T12:35:37Z</time>
      </trkpt>
      <trkpt lat="43.95124" lon="7.3917">
        <ele>1344.54</ele>
        <time>2017-07-30T12:35:52Z</time>
      </trkpt>
      <trkpt lat="43.95122" lon="7.39184">
        <ele>1341.66</ele>
        <time>2017-07-30T12:36:07Z</time>
      </trkpt>
      <trkpt lat="43.95121" lon="7.39198">
        <ele>1338.77</ele>
        <time>2017-07-30T12:36:22Z</time>
      </trkpt>
      <trkpt lat="43.9512" lon="7.39213">
        <ele>1335.89</ele>
        <time>2017-07-30T12:36:37Z</time>
      </trkpt>
      <trkpt lat="43.9511" lon="7.39221">
        <ele>1332.52</ele>
        <time>2017-07-30T12:36:52Z</time>
      </trkpt>
      <trkpt lat="43.95108" lon="7.39222">
        <ele>1332.52</ele>
        <time>2017-07-30T12:36:55Z</time>
      </trkpt>
      <trkpt lat="43.95097" lon="7.39228">
        <ele>1330.12</ele>
        <time>2017-07-30T12:37:09Z</time>
      </trkpt>
      <trkpt lat="43.95088" lon="7.39231">
        <ele>1327.24</ele>
        <time>2017-07-30T12:37:23Z</time>
      </trkpt>
      <trkpt lat="43.95077" lon="7.39235">
        <ele>1324.35</ele>
        <time>2017-07-30T12:37:38Z</time>
      </trkpt>
      <trkpt lat="43.95067" lon="7.39241">
        <ele>1321.47</ele>
        <time>2017-07-30T12:37:53Z</time>
      </trkpt>
      <trkpt lat="43.95057" lon="7.39247">
        <ele>1319.55</ele>
        <time>2017-07-30T12:38:06Z</time>
      </trkpt>
      <trkpt lat="43.95047" lon="7.39254">
        <ele>1316.66</ele>
        <time>2017-07-30T12:38:19Z</time>
      </trkpt>
      <trkpt lat="43.95048" lon="7.39262">
        <ele>1315.7</ele>
        <time>2017-07-30T12:38:32Z</time>
      </trkpt>
      <trkpt lat="43.95057" lon="7.39259">
        <ele>1313.78</ele>
        <time>2017-07-30T12:38:48Z</time>
      </trkpt>
      <trkpt lat="43.95054" lon="7.39262">
        <ele>1312.34</ele>
        <time>2017-07-30T12:38:59Z</time>
      </trkpt>
      <trkpt lat="43.95049" lon="7.39267">
        <ele>1309.45</ele>
        <time>2017-07-30T12:39:10Z</time>
      </trkpt>
      <trkpt lat="43.9504" lon="7.39272">
        <ele>1307.05</ele>
        <time>2017-07-30T12:39:24Z</time>
      </trkpt>
      <trkpt lat="43.95029" lon="7.39281">
        <ele>1304.17</ele>
        <time>2017-07-30T12:39:40Z</time>
      </trkpt>
      <trkpt lat="43.95017" lon="7.39288">
        <ele>1301.76</ele>
        <time>2017-07-30T12:39:54Z</time>
      </trkpt>
      <trkpt lat="43.95016" lon="7.3929">
        <ele>1301.28</ele>
        <time>2017-07-30T12:39:56Z</time>
      </trkpt>
      <trkpt lat="43.95009" lon="7.39305">
        <ele>1298.4</ele>
        <time>2017-07-30T12:40:12Z</time>
      </trkpt>
      <trkpt lat="43.95003" lon="7.39315">
        <ele>1295.99</ele>
        <time>2017-07-30T12:40:24Z</time>
      </trkpt>
      <trkpt lat="43.94997" lon="7.39326">
        <ele>1293.59</ele>
        <time>2017-07-30T12:40:38Z</time>
      </trkpt>
      <trkpt lat="43.94993" lon="7.39335">
        <ele>1291.19</ele>
        <time>2017-07-30T12:40:50Z</time>
      </trkpt>
      <trkpt lat="43.94991" lon="7.39348">
        <ele>1287.82</ele>
        <time>2017-07-30T12:41:04Z</time>
      </trkpt>
      <trkpt lat="43.94987" lon="7.39359">
        <ele>1285.42</ele>
        <time>2017-07-30T12:41:18Z</time>
      </trkpt>
      <trkpt lat="43.94983" lon="7.39375">
        <ele>1283.02</ele>
        <time>2017-07-30T12:41:32Z</time>
      </trkpt>
      <trkpt lat="43.94981" lon="7.39388">
        <ele>1280.13</ele>
        <time>2017-07-30T12:41:47Z</time>
      </trkpt>
      <trkpt lat="43.94978" lon="7.39401">
        <ele>1278.21</ele>
        <time>2017-07-30T12:41:59Z</time>
      </trkpt>
      <trkpt lat="43.94973" lon="7.39412">
        <ele>1274.85</ele>
        <time>2017-07-30T12:42:12Z</time>
      </trkpt>
      <trkpt lat="43.94968" lon="7.39425">
        <ele>1272.44</ele>
        <time>2017-07-30T12:42:27Z</time>
      </trkpt>
      <trkpt lat="43.94953" lon="7.39438">
        <ele>1269.08</ele>
        <time>2017-07-30T12:42:45Z</time>
      </trkpt>
      <trkpt lat="43.94949" lon="7.39438">
        <ele>1272.92</ele>
        <time>2017-07-30T12:42:50Z</time>
      </trkpt>
      <trkpt lat="43.94943" lon="7.39444">
        <ele>1270.04</ele>
        <time>2017-07-30T12:43:00Z</time>
      </trkpt>
      <trkpt lat="43.94937" lon="7.39454">
        <ele>1268.12</ele>
        <time>2017-07-30T12:43:14Z</time>
      </trkpt>
      <trkpt lat="43.94931" lon="7.39473">
        <ele>1266.19</ele>
        <time>2017-07-30T12:43:31Z</time>
      </trkpt>
      <trkpt lat="43.94929" lon="7.39493">
        <ele>1265.23</ele>
        <time>2017-07-30T12:43:45Z</time>
      </trkpt>
      <trkpt lat="43.94927" lon="7.39514">
        <ele>1264.27</ele>
        <time>2017-07-30T12:43:59Z</time>
      </trkpt>
      <trkpt lat="43.94926" lon="7.39536">
        <ele>1262.35</ele>
        <time>2017-07-30T12:44:15Z</time>
      </trkpt>
      <trkpt lat="43.94924" lon="7.39555">
        <ele>1259.94</ele>
        <time>2017-07-30T12:44:28Z</time>
      </trkpt>
      <trkpt lat="43.94922" lon="7.39577">
        <ele>1258.02</ele>
        <time>2017-07-30T12:44:43Z</time>
      </trkpt>
      <trkpt lat="43.9492" lon="7.39596">
        <ele>1255.62</ele>
        <time>2017-07-30T12:44:57Z</time>
      </trkpt>
      <trkpt lat="43.94916" lon="7.39614">
        <ele>1253.7</ele>
        <time>2017-07-30T12:45:12Z</time>
      </trkpt>
      <trkpt lat="43.94912" lon="7.39627">
        <ele>1250.81</ele>
        <time>2017-07-30T12:45:28Z</time>
      </trkpt>
      <trkpt lat="43.94906" lon="7.3964">
        <ele>1247.45</ele>
        <time>2017-07-30T12:45:42Z</time>
      </trkpt>
      <trkpt lat="43.94903" lon="7.39655">
        <ele>1244.56</ele>
        <time>2017-07-30T12:45:56Z</time>
      </trkpt>
      <trkpt lat="43.949" lon="7.3967">
        <ele>1242.16</ele>
        <time>2017-07-30T12:46:12Z</time>
      </trkpt>
      <trkpt lat="43.94898" lon="7.39681">
        <ele>1239.76</ele>
        <time>2017-07-30T12:46:25Z</time>
      </trkpt>
      <trkpt lat="43.949" lon="7.39697">
        <ele>1236.87</ele>
        <time>2017-07-30T12:46:40Z</time>
      </trkpt>
      <trkpt lat="43.94905" lon="7.39711">
        <ele>1233.51</ele>
        <time>2017-07-30T12:46:54Z</time>
      </trkpt>
      <trkpt lat="43.94911" lon="7.39726">
        <ele>1231.59</ele>
        <time>2017-07-30T12:47:09Z</time>
      </trkpt>
      <trkpt lat="43.94914" lon="7.39738">
        <ele>1229.18</ele>
        <time>2017-07-30T12:47:22Z</time>
      </trkpt>
      <trkpt lat="43.9492" lon="7.39751">
        <ele>1226.78</ele>
        <time>2017-07-30T12:47:36Z</time>
      </trkpt>
      <trkpt lat="43.94931" lon="7.39762">
        <ele>1223.9</ele>
        <time>2017-07-30T12:47:51Z</time>
      </trkpt>
      <trkpt lat="43.94943" lon="7.39769">
        <ele>1220.53</ele>
        <time>2017-07-30T12:48:06Z</time>
      </trkpt>
      <trkpt lat="43.94955" lon="7.39775">
        <ele>1218.13</ele>
        <time>2017-07-30T12:48:22Z</time>
      </trkpt>
      <trkpt lat="43.94964" lon="7.39779">
        <ele>1215.24</ele>
        <time>2017-07-30T12:48:35Z</time>
      </trkpt>
      <trkpt lat="43.94972" lon="7.39785">
        <ele>1212.84</ele>
        <time>2017-07-30T12:48:50Z</time>
      </trkpt>
      <trkpt lat="43.94984" lon="7.39793">
        <ele>1209.48</ele>
        <time>2017-07-30T12:49:05Z</time>
      </trkpt>
      <trkpt lat="43.94995" lon="7.39803">
        <ele>1206.59</ele>
        <time>2017-07-30T12:49:21Z</time>
      </trkpt>
      <trkpt lat="43.95007" lon="7.39811">
        <ele>1203.23</ele>
        <time>2017-07-30T12:49:36Z</time>
      </trkpt>
      <trkpt lat="43.95017" lon="7.39819">
        <ele>1199.86</ele>
        <time>2017-07-30T12:49:49Z</time>
      </trkpt>
      <trkpt lat="43.95033" lon="7.39822">
        <ele>1197.46</ele>
        <time>2017-07-30T12:50:07Z</time>
      </trkpt>
      <trkpt lat="43.95047" lon="7.39829">
        <ele>1194.58</ele>
        <time>2017-07-30T12:50:22Z</time>
      </trkpt>
      <trkpt lat="43.95058" lon="7.39843">
        <ele>1191.69</ele>
        <time>2017-07-30T12:50:39Z</time>
      </trkpt>
      <trkpt lat="43.95064" lon="7.39858">
        <ele>1189.29</ele>
        <time>2017-07-30T12:50:54Z</time>
      </trkpt>
      <trkpt lat="43.95065" lon="7.3986">
        <ele>1187.85</ele>
        <time>2017-07-30T12:50:58Z</time>
      </trkpt>
      <trkpt lat="43.95069" lon="7.39878">
        <ele>1185.44</ele>
        <time>2017-07-30T12:51:13Z</time>
      </trkpt>
      <trkpt lat="43.95073" lon="7.39897">
        <ele>1183.04</ele>
        <time>2017-07-30T12:51:30Z</time>
      </trkpt>
      <trkpt lat="43.95072" lon="7.39914">
        <ele>1180.16</ele>
        <time>2017-07-30T12:51:45Z</time>
      </trkpt>
      <trkpt lat="43.95069" lon="7.39933">
        <ele>1177.75</ele>
        <time>2017-07-30T12:52:00Z</time>
      </trkpt>
      <trkpt lat="43.95061" lon="7.39947">
        <ele>1176.31</ele>
        <time>2017-07-30T12:52:14Z</time>
      </trkpt>
      <trkpt lat="43.95055" lon="7.39957">
        <ele>1174.87</ele>
        <time>2017-07-30T12:52:26Z</time>
      </trkpt>
      <trkpt lat="43.95038" lon="7.39974">
        <ele>1173.43</ele>
        <time>2017-07-30T12:52:44Z</time>
      </trkpt>
      <trkpt lat="43.95024" lon="7.39975">
        <ele>1173.43</ele>
        <time>2017-07-30T12:52:59Z</time>
      </trkpt>
      <trkpt lat="43.95009" lon="7.39981">
        <ele>1171.5</ele>
        <time>2017-07-30T12:53:14Z</time>
      </trkpt>
      <trkpt lat="43.94994" lon="7.39991">
        <ele>1169.58</ele>
        <time>2017-07-30T12:53:31Z</time>
      </trkpt>
      <trkpt lat="43.94979" lon="7.39999">
        <ele>1169.1</ele>
        <time>2017-07-30T12:53:46Z</time>
      </trkpt>
      <trkpt lat="43.94963" lon="7.40005">
        <ele>1168.14</ele>
        <time>2017-07-30T12:54:01Z</time>
      </trkpt>
      <trkpt lat="43.94959" lon="7.40005">
        <ele>1166.7</ele>
        <time>2017-07-30T12:54:15Z</time>
      </trkpt>
      <trkpt lat="43.94958" lon="7.40006">
        <ele>1165.74</ele>
        <time>2017-07-30T12:54:32Z</time>
      </trkpt>
      <trkpt lat="43.94958" lon="7.40005">
        <ele>1167.18</ele>
        <time>2017-07-30T12:54:42Z</time>
      </trkpt>
      <trkpt lat="43.94956" lon="7.40007">
        <ele>1165.74</ele>
        <time>2017-07-30T12:55:03Z</time>
      </trkpt>
      <trkpt lat="43.94957" lon="7.40017">
        <ele>1165.26</ele>
        <time>2017-07-30T12:55:28Z</time>
      </trkpt>
      <trkpt lat="43.94958" lon="7.40021">
        <ele>1164.77</ele>
        <time>2017-07-30T12:55:59Z</time>
      </trkpt>
      <trkpt lat="43.94958" lon="7.40019">
        <ele>1164.77</ele>
        <time>2017-07-30T12:56:23Z</time>
      </trkpt>
      <trkpt lat="43.94957" lon="7.4002">
        <ele>1165.74</ele>
        <time>2017-07-30T12:56:49Z</time>
      </trkpt>
      <trkpt lat="43.94957" lon="7.40022">
        <ele>1165.26</ele>
        <time>2017-07-30T12:57:11Z</time>
      </trkpt>
      <trkpt lat="43.94959" lon="7.40023">
        <ele>1165.26</ele>
        <time>2017-07-30T12:57:35Z</time>
      </trkpt>
      <trkpt lat="43.94961" lon="7.40022">
        <ele>1163.81</ele>
        <time>2017-07-30T12:58:14Z</time>
      </trkpt>
      <trkpt lat="43.9496" lon="7.40022">
        <ele>1164.77</ele>
        <time>2017-07-30T12:58:43Z</time>
      </trkpt>
      <trkpt lat="43.94961" lon="7.40022">
        <ele>1164.29</ele>
        <time>2017-07-30T12:59:13Z</time>
      </trkpt>
      <trkpt lat="43.9496" lon="7.40018">
        <ele>1164.29</ele>
        <time>2017-07-30T12:59:40Z</time>
      </trkpt>
      <trkpt lat="43.94958" lon="7.40014">
        <ele>1162.85</ele>
        <time>2017-07-30T13:00:11Z</time>
      </trkpt>
      <trkpt lat="43.94957" lon="7.40015">
        <ele>1163.81</ele>
        <time>2017-07-30T13:00:48Z</time>
      </trkpt>
      <trkpt lat="43.94956" lon="7.4002">
        <ele>1163.81</ele>
        <time>2017-07-30T13:01:18Z</time>
      </trkpt>
      <trkpt lat="43.94957" lon="7.4002">
        <ele>1163.81</ele>
        <time>2017-07-30T13:01:55Z</time>
      </trkpt>
      <trkpt lat="43.94956" lon="7.40015">
        <ele>1163.33</ele>
        <time>2017-07-30T13:02:11Z</time>
      </trkpt>
      <trkpt lat="43.94952" lon="7.40013">
        <ele>1163.81</ele>
        <time>2017-07-30T13:02:24Z</time>
      </trkpt>
      <trkpt lat="43.94948" lon="7.40014">
        <ele>1162.37</ele>
        <time>2017-07-30T13:02:39Z</time>
      </trkpt>
      <trkpt lat="43.94945" lon="7.40012">
        <ele>1161.89</ele>
        <time>2017-07-30T13:02:54Z</time>
      </trkpt>
      <trkpt lat="43.94938" lon="7.40015">
        <ele>1159.97</ele>
        <time>2017-07-30T13:03:07Z</time>
      </trkpt>
      <trkpt lat="43.94931" lon="7.40031">
        <ele>1159.49</ele>
        <time>2017-07-30T13:03:23Z</time>
      </trkpt>
      <trkpt lat="43.94927" lon="7.4005">
        <ele>1159.49</ele>
        <time>2017-07-30T13:03:38Z</time>
      </trkpt>
      <trkpt lat="43.9492" lon="7.40069">
        <ele>1158.05</ele>
        <time>2017-07-30T13:03:55Z</time>
      </trkpt>
      <trkpt lat="43.94918" lon="7.40081">
        <ele>1157.56</ele>
        <time>2017-07-30T13:04:05Z</time>
      </trkpt>
      <trkpt lat="43.94912" lon="7.40101">
        <ele>1157.08</ele>
        <time>2017-07-30T13:04:19Z</time>
      </trkpt>
      <trkpt lat="43.94909" lon="7.40118">
        <ele>1155.64</ele>
        <time>2017-07-30T13:04:34Z</time>
      </trkpt>
      <trkpt lat="43.94907" lon="7.40121">
        <ele>1155.16</ele>
        <time>2017-07-30T13:04:52Z</time>
      </trkpt>
      <trkpt lat="43.94908" lon="7.40128">
        <ele>1155.16</ele>
        <time>2017-07-30T13:05:13Z</time>
      </trkpt>
      <trkpt lat="43.94906" lon="7.40129">
        <ele>1155.16</ele>
        <time>2017-07-30T13:05:39Z</time>
      </trkpt>
      <trkpt lat="43.94902" lon="7.40137">
        <ele>1155.16</ele>
        <time>2017-07-30T13:05:59Z</time>
      </trkpt>
      <trkpt lat="43.94897" lon="7.40156">
        <ele>1155.16</ele>
        <time>2017-07-30T13:06:17Z</time>
      </trkpt>
      <trkpt lat="43.94891" lon="7.40182">
        <ele>1154.2</ele>
        <time>2017-07-30T13:06:36Z</time>
      </trkpt>
      <trkpt lat="43.94884" lon="7.402">
        <ele>1153.24</ele>
        <time>2017-07-30T13:06:52Z</time>
      </trkpt>
      <trkpt lat="43.94874" lon="7.40203">
        <ele>1153.24</ele>
        <time>2017-07-30T13:07:02Z</time>
      </trkpt>
      <trkpt lat="43.94859" lon="7.40205">
        <ele>1151.32</ele>
        <time>2017-07-30T13:07:16Z</time>
      </trkpt>
      <trkpt lat="43.94848" lon="7.40208">
        <ele>1148.43</ele>
        <time>2017-07-30T13:07:32Z</time>
      </trkpt>
      <trkpt lat="43.94838" lon="7.40211">
        <ele>1146.51</ele>
        <time>2017-07-30T13:07:44Z</time>
      </trkpt>
      <trkpt lat="43.94834" lon="7.40212">
        <ele>1144.11</ele>
        <time>2017-07-30T13:07:57Z</time>
      </trkpt>
      <trkpt lat="43.94834" lon="7.40226">
        <ele>1143.14</ele>
        <time>2017-07-30T13:08:07Z</time>
      </trkpt>
      <trkpt lat="43.94841" lon="7.40242">
        <ele>1142.18</ele>
        <time>2017-07-30T13:08:21Z</time>
      </trkpt>
      <trkpt lat="43.94843" lon="7.40259">
        <ele>1140.74</ele>
        <time>2017-07-30T13:08:37Z</time>
      </trkpt>
      <trkpt lat="43.94839" lon="7.40274">
        <ele>1138.34</ele>
        <time>2017-07-30T13:08:51Z</time>
      </trkpt>
      <trkpt lat="43.9484" lon="7.40292">
        <ele>1135.45</ele>
        <time>2017-07-30T13:09:06Z</time>
      </trkpt>
      <trkpt lat="43.94838" lon="7.40309">
        <ele>1134.97</ele>
        <time>2017-07-30T13:09:20Z</time>
      </trkpt>
      <trkpt lat="43.94833" lon="7.40325">
        <ele>1134.01</ele>
        <time>2017-07-30T13:09:33Z</time>
      </trkpt>
      <trkpt lat="43.94825" lon="7.40339">
        <ele>1133.05</ele>
        <time>2017-07-30T13:09:49Z</time>
      </trkpt>
      <trkpt lat="43.94818" lon="7.40364">
        <ele>1132.09</ele>
        <time>2017-07-30T13:10:06Z</time>
      </trkpt>
      <trkpt lat="43.94817" lon="7.40384">
        <ele>1131.13</ele>
        <time>2017-07-30T13:10:19Z</time>
      </trkpt>
      <trkpt lat="43.94811" lon="7.40399">
        <ele>1130.65</ele>
        <time>2017-07-30T13:10:34Z</time>
      </trkpt>
      <trkpt lat="43.94804" lon="7.40406">
        <ele>1128.24</ele>
        <time>2017-07-30T13:10:49Z</time>
      </trkpt>
      <trkpt lat="43.94798" lon="7.40421">
        <ele>1126.32</ele>
        <time>2017-07-30T13:11:05Z</time>
      </trkpt>
      <trkpt lat="43.94792" lon="7.40432">
        <ele>1125.84</ele>
        <time>2017-07-30T13:11:20Z</time>
      </trkpt>
      <trkpt lat="43.94779" lon="7.40435">
        <ele>1125.36</ele>
        <time>2017-07-30T13:11:34Z</time>
      </trkpt>
      <trkpt lat="43.94778" lon="7.40435">
        <ele>1125.36</ele>
        <time>2017-07-30T13:11:35Z</time>
      </trkpt>
      <trkpt lat="43.94767" lon="7.40433">
        <ele>1123.92</ele>
        <time>2017-07-30T13:11:47Z</time>
      </trkpt>
      <trkpt lat="43.94759" lon="7.40434">
        <ele>1122.48</ele>
        <time>2017-07-30T13:11:56Z</time>
      </trkpt>
      <trkpt lat="43.94753" lon="7.40437">
        <ele>1121.52</ele>
        <time>2017-07-30T13:12:03Z</time>
      </trkpt>
      <trkpt lat="43.94743" lon="7.40444">
        <ele>1118.63</ele>
        <time>2017-07-30T13:12:17Z</time>
      </trkpt>
      <trkpt lat="43.94738" lon="7.40457">
        <ele>1116.23</ele>
        <time>2017-07-30T13:12:30Z</time>
      </trkpt>
      <trkpt lat="43.94736" lon="7.40468">
        <ele>1113.82</ele>
        <time>2017-07-30T13:12:42Z</time>
      </trkpt>
      <trkpt lat="43.94733" lon="7.40481">
        <ele>1110.46</ele>
        <time>2017-07-30T13:12:56Z</time>
      </trkpt>
      <trkpt lat="43.94728" lon="7.40497">
        <ele>1108.06</ele>
        <time>2017-07-30T13:13:11Z</time>
      </trkpt>
      <trkpt lat="43.94721" lon="7.4051">
        <ele>1106.13</ele>
        <time>2017-07-30T13:13:27Z</time>
      </trkpt>
      <trkpt lat="43.94718" lon="7.40528">
        <ele>1104.21</ele>
        <time>2017-07-30T13:13:41Z</time>
      </trkpt>
      <trkpt lat="43.94717" lon="7.4055">
        <ele>1102.29</ele>
        <time>2017-07-30T13:13:59Z</time>
      </trkpt>
      <trkpt lat="43.94716" lon="7.40569">
        <ele>1098.92</ele>
        <time>2017-07-30T13:14:15Z</time>
      </trkpt>
      <trkpt lat="43.94711" lon="7.40579">
        <ele>1097</ele>
        <time>2017-07-30T13:14:27Z</time>
      </trkpt>
      <trkpt lat="43.94706" lon="7.40591">
        <ele>1094.6</ele>
        <time>2017-07-30T13:14:40Z</time>
      </trkpt>
      <trkpt lat="43.94701" lon="7.406">
        <ele>1092.68</ele>
        <time>2017-07-30T13:14:51Z</time>
      </trkpt>
      <trkpt lat="43.94694" lon="7.40618">
        <ele>1089.79</ele>
        <time>2017-07-30T13:15:08Z</time>
      </trkpt>
      <trkpt lat="43.94688" lon="7.40635">
        <ele>1087.87</ele>
        <time>2017-07-30T13:15:23Z</time>
      </trkpt>
      <trkpt lat="43.94686" lon="7.40648">
        <ele>1085.47</ele>
        <time>2017-07-30T13:15:35Z</time>
      </trkpt>
      <trkpt lat="43.94687" lon="7.40668">
        <ele>1082.58</ele>
        <time>2017-07-30T13:15:51Z</time>
      </trkpt>
      <trkpt lat="43.94692" lon="7.40685">
        <ele>1080.18</ele>
        <time>2017-07-30T13:16:05Z</time>
      </trkpt>
      <trkpt lat="43.94697" lon="7.40703">
        <ele>1077.29</ele>
        <time>2017-07-30T13:16:23Z</time>
      </trkpt>
      <trkpt lat="43.94697" lon="7.40713">
        <ele>1075.37</ele>
        <time>2017-07-30T13:16:35Z</time>
      </trkpt>
      <trkpt lat="43.94697" lon="7.40722">
        <ele>1072.97</ele>
        <time>2017-07-30T13:16:47Z</time>
      </trkpt>
      <trkpt lat="43.94696" lon="7.40733">
        <ele>1071.05</ele>
        <time>2017-07-30T13:17:00Z</time>
      </trkpt>
      <trkpt lat="43.94697" lon="7.40741">
        <ele>1069.12</ele>
        <time>2017-07-30T13:17:08Z</time>
      </trkpt>
      <trkpt lat="43.947" lon="7.40756">
        <ele>1067.2</ele>
        <time>2017-07-30T13:17:22Z</time>
      </trkpt>
      <trkpt lat="43.94705" lon="7.40772">
        <ele>1063.84</ele>
        <time>2017-07-30T13:17:39Z</time>
      </trkpt>
      <trkpt lat="43.9471" lon="7.40779">
        <ele>1061.43</ele>
        <time>2017-07-30T13:17:53Z</time>
      </trkpt>
      <trkpt lat="43.94714" lon="7.40788">
        <ele>1058.55</ele>
        <time>2017-07-30T13:18:09Z</time>
      </trkpt>
      <trkpt lat="43.9472" lon="7.40795">
        <ele>1056.15</ele>
        <time>2017-07-30T13:18:20Z</time>
      </trkpt>
      <trkpt lat="43.94727" lon="7.40804">
        <ele>1054.22</ele>
        <time>2017-07-30T13:18:31Z</time>
      </trkpt>
      <trkpt lat="43.94733" lon="7.40815">
        <ele>1051.34</ele>
        <time>2017-07-30T13:18:46Z</time>
      </trkpt>
      <trkpt lat="43.94733" lon="7.40826">
        <ele>1047.97</ele>
        <time>2017-07-30T13:18:58Z</time>
      </trkpt>
      <trkpt lat="43.94731" lon="7.40836">
        <ele>1046.53</ele>
        <time>2017-07-30T13:19:11Z</time>
      </trkpt>
      <trkpt lat="43.94726" lon="7.40845">
        <ele>1042.21</ele>
        <time>2017-07-30T13:19:23Z</time>
      </trkpt>
      <trkpt lat="43.94723" lon="7.4085">
        <ele>1043.17</ele>
        <time>2017-07-30T13:19:27Z</time>
      </trkpt>
      <trkpt lat="43.94718" lon="7.40861">
        <ele>1042.69</ele>
        <time>2017-07-30T13:19:41Z</time>
      </trkpt>
      <trkpt lat="43.94717" lon="7.40861">
        <ele>1041.73</ele>
        <time>2017-07-30T13:20:00Z</time>
      </trkpt>
      <trkpt lat="43.94714" lon="7.40862">
        <ele>1041.73</ele>
        <time>2017-07-30T13:20:15Z</time>
      </trkpt>
      <trkpt lat="43.94714" lon="7.40862">
        <ele>1041.73</ele>
        <time>2017-07-30T13:20:37Z</time>
      </trkpt>
      <trkpt lat="43.94704" lon="7.40875">
        <ele>1039.8</ele>
        <time>2017-07-30T13:20:52Z</time>
      </trkpt>
      <trkpt lat="43.94703" lon="7.40877">
        <ele>1039.8</ele>
        <time>2017-07-30T13:20:54Z</time>
      </trkpt>
      <trkpt lat="43.94693" lon="7.4089">
        <ele>1036.44</ele>
        <time>2017-07-30T13:21:08Z</time>
      </trkpt>
      <trkpt lat="43.94684" lon="7.40904">
        <ele>1034.04</ele>
        <time>2017-07-30T13:21:23Z</time>
      </trkpt>
      <trkpt lat="43.94677" lon="7.40919">
        <ele>1031.63</ele>
        <time>2017-07-30T13:21:39Z</time>
      </trkpt>
      <trkpt lat="43.94676" lon="7.40921">
        <ele>1030.67</ele>
        <time>2017-07-30T13:21:51Z</time>
      </trkpt>
      <trkpt lat="43.94675" lon="7.40923">
        <ele>1030.19</ele>
        <time>2017-07-30T13:22:17Z</time>
      </trkpt>
      <trkpt lat="43.94675" lon="7.40922">
        <ele>1030.19</ele>
        <time>2017-07-30T13:22:40Z</time>
      </trkpt>
      <trkpt lat="43.94673" lon="7.40929">
        <ele>1029.23</ele>
        <time>2017-07-30T13:22:54Z</time>
      </trkpt>
      <trkpt lat="43.9467" lon="7.40942">
        <ele>1025.86</ele>
        <time>2017-07-30T13:23:06Z</time>
      </trkpt>
      <trkpt lat="43.94664" lon="7.40963">
        <ele>1022.98</ele>
        <time>2017-07-30T13:23:23Z</time>
      </trkpt>
      <trkpt lat="43.94658" lon="7.40984">
        <ele>1019.62</ele>
        <time>2017-07-30T13:23:40Z</time>
      </trkpt>
      <trkpt lat="43.94651" lon="7.41008">
        <ele>1017.21</ele>
        <time>2017-07-30T13:23:58Z</time>
      </trkpt>
      <trkpt lat="43.94648" lon="7.41017">
        <ele>1017.21</ele>
        <time>2017-07-30T13:24:05Z</time>
      </trkpt>
      <trkpt lat="43.94644" lon="7.41036">
        <ele>1015.77</ele>
        <time>2017-07-30T13:24:20Z</time>
      </trkpt>
      <trkpt lat="43.94642" lon="7.41055">
        <ele>1013.37</ele>
        <time>2017-07-30T13:24:36Z</time>
      </trkpt>
      <trkpt lat="43.94639" lon="7.41073">
        <ele>1010.48</ele>
        <time>2017-07-30T13:24:50Z</time>
      </trkpt>
      <trkpt lat="43.94635" lon="7.41091">
        <ele>1008.08</ele>
        <time>2017-07-30T13:25:05Z</time>
      </trkpt>
      <trkpt lat="43.94632" lon="7.41105">
        <ele>1005.2</ele>
        <time>2017-07-30T13:25:19Z</time>
      </trkpt>
      <trkpt lat="43.9463" lon="7.41117">
        <ele>1003.27</ele>
        <time>2017-07-30T13:25:31Z</time>
      </trkpt>
      <trkpt lat="43.94628" lon="7.41132">
        <ele>1000.39</ele>
        <time>2017-07-30T13:25:46Z</time>
      </trkpt>
      <trkpt lat="43.94622" lon="7.41148">
        <ele>996.54</ele>
        <time>2017-07-30T13:26:02Z</time>
      </trkpt>
      <trkpt lat="43.94619" lon="7.41164">
        <ele>994.14</ele>
        <time>2017-07-30T13:26:17Z</time>
      </trkpt>
      <trkpt lat="43.94614" lon="7.41179">
        <ele>992.22</ele>
        <time>2017-07-30T13:26:31Z</time>
      </trkpt>
      <trkpt lat="43.94609" lon="7.41201">
        <ele>990.3</ele>
        <time>2017-07-30T13:26:49Z</time>
      </trkpt>
      <trkpt lat="43.94608" lon="7.41202">
        <ele>990.3</ele>
        <time>2017-07-30T13:26:51Z</time>
      </trkpt>
      <trkpt lat="43.946" lon="7.41203">
        <ele>987.41</ele>
        <time>2017-07-30T13:27:00Z</time>
      </trkpt>
      <trkpt lat="43.94595" lon="7.41201">
        <ele>987.41</ele>
        <time>2017-07-30T13:27:11Z</time>
      </trkpt>
      <trkpt lat="43.94592" lon="7.412">
        <ele>986.45</ele>
        <time>2017-07-30T13:27:24Z</time>
      </trkpt>
      <trkpt lat="43.94592" lon="7.412">
        <ele>985.97</ele>
        <time>2017-07-30T13:27:55Z</time>
      </trkpt>
      <trkpt lat="43.94593" lon="7.41201">
        <ele>985.49</ele>
        <time>2017-07-30T13:28:25Z</time>
      </trkpt>
      <trkpt lat="43.94592" lon="7.41205">
        <ele>985.49</ele>
        <time>2017-07-30T13:28:30Z</time>
      </trkpt>
      <trkpt lat="43.94588" lon="7.41228">
        <ele>984.05</ele>
        <time>2017-07-30T13:28:47Z</time>
      </trkpt>
      <trkpt lat="43.94587" lon="7.41249">
        <ele>983.09</ele>
        <time>2017-07-30T13:29:03Z</time>
      </trkpt>
      <trkpt lat="43.94585" lon="7.41249">
        <ele>981.16</ele>
        <time>2017-07-30T13:29:09Z</time>
      </trkpt>
      <trkpt lat="43.94581" lon="7.41248">
        <ele>979.72</ele>
        <time>2017-07-30T13:29:13Z</time>
      </trkpt>
      <trkpt lat="43.94576" lon="7.41257">
        <ele>978.76</ele>
        <time>2017-07-30T13:29:26Z</time>
      </trkpt>
      <trkpt lat="43.94577" lon="7.41272">
        <ele>975.88</ele>
        <time>2017-07-30T13:29:41Z</time>
      </trkpt>
      <trkpt lat="43.94578" lon="7.41286">
        <ele>972.99</ele>
        <time>2017-07-30T13:29:56Z</time>
      </trkpt>
      <trkpt lat="43.9458" lon="7.41294">
        <ele>972.03</ele>
        <time>2017-07-30T13:30:06Z</time>
      </trkpt>
      <trkpt lat="43.94581" lon="7.41301">
        <ele>970.11</ele>
        <time>2017-07-30T13:30:19Z</time>
      </trkpt>
      <trkpt lat="43.94582" lon="7.41305">
        <ele>967.7</ele>
        <time>2017-07-30T13:30:31Z</time>
      </trkpt>
      <trkpt lat="43.94577" lon="7.41321">
        <ele>965.3</ele>
        <time>2017-07-30T13:30:47Z</time>
      </trkpt>
      <trkpt lat="43.94574" lon="7.41331">
        <ele>963.38</ele>
        <time>2017-07-30T13:31:00Z</time>
      </trkpt>
      <trkpt lat="43.9457" lon="7.4134">
        <ele>960.98</ele>
        <time>2017-07-30T13:31:12Z</time>
      </trkpt>
      <trkpt lat="43.94569" lon="7.41353">
        <ele>958.09</ele>
        <time>2017-07-30T13:31:27Z</time>
      </trkpt>
      <trkpt lat="43.94565" lon="7.41364">
        <ele>955.69</ele>
        <time>2017-07-30T13:31:39Z</time>
      </trkpt>
      <trkpt lat="43.94565" lon="7.41378">
        <ele>952.8</ele>
        <time>2017-07-30T13:31:55Z</time>
      </trkpt>
      <trkpt lat="43.94574" lon="7.41374">
        <ele>950.88</ele>
        <time>2017-07-30T13:32:08Z</time>
      </trkpt>
      <trkpt lat="43.94572" lon="7.41385">
        <ele>948</ele>
        <time>2017-07-30T13:32:21Z</time>
      </trkpt>
      <trkpt lat="43.94566" lon="7.41405">
        <ele>945.59</ele>
        <time>2017-07-30T13:32:39Z</time>
      </trkpt>
      <trkpt lat="43.94556" lon="7.41417">
        <ele>943.19</ele>
        <time>2017-07-30T13:32:55Z</time>
      </trkpt>
      <trkpt lat="43.94561" lon="7.41428">
        <ele>940.31</ele>
        <time>2017-07-30T13:33:11Z</time>
      </trkpt>
      <trkpt lat="43.94563" lon="7.41434">
        <ele>938.86</ele>
        <time>2017-07-30T13:33:22Z</time>
      </trkpt>
      <trkpt lat="43.94563" lon="7.41444">
        <ele>936.94</ele>
        <time>2017-07-30T13:33:36Z</time>
      </trkpt>
      <trkpt lat="43.94569" lon="7.41452">
        <ele>934.54</ele>
        <time>2017-07-30T13:33:48Z</time>
      </trkpt>
      <trkpt lat="43.94569" lon="7.41466">
        <ele>932.62</ele>
        <time>2017-07-30T13:34:01Z</time>
      </trkpt>
      <trkpt lat="43.94568" lon="7.41467">
        <ele>932.62</ele>
        <time>2017-07-30T13:34:02Z</time>
      </trkpt>
      <trkpt lat="43.94563" lon="7.41476">
        <ele>930.21</ele>
        <time>2017-07-30T13:34:18Z</time>
      </trkpt>
      <trkpt lat="43.94557" lon="7.41479">
        <ele>928.29</ele>
        <time>2017-07-30T13:34:29Z</time>
      </trkpt>
      <trkpt lat="43.94554" lon="7.41481">
        <ele>927.33</ele>
        <time>2017-07-30T13:34:34Z</time>
      </trkpt>
      <trkpt lat="43.94547" lon="7.41482">
        <ele>925.89</ele>
        <time>2017-07-30T13:34:46Z</time>
      </trkpt>
      <trkpt lat="43.9454" lon="7.41475">
        <ele>923</ele>
        <time>2017-07-30T13:35:03Z</time>
      </trkpt>
      <trkpt lat="43.94537" lon="7.41465">
        <ele>922.04</ele>
        <time>2017-07-30T13:35:13Z</time>
      </trkpt>
      <trkpt lat="43.94528" lon="7.41455">
        <ele>918.68</ele>
        <time>2017-07-30T13:35:26Z</time>
      </trkpt>
      <trkpt lat="43.94524" lon="7.41452">
        <ele>917.72</ele>
        <time>2017-07-30T13:35:41Z</time>
      </trkpt>
      <trkpt lat="43.94524" lon="7.41453">
        <ele>917.72</ele>
        <time>2017-07-30T13:36:00Z</time>
      </trkpt>
      <trkpt lat="43.94524" lon="7.4145">
        <ele>917.24</ele>
        <time>2017-07-30T13:36:19Z</time>
      </trkpt>
      <trkpt lat="43.94521" lon="7.41454">
        <ele>916.75</ele>
        <time>2017-07-30T13:36:42Z</time>
      </trkpt>
      <trkpt lat="43.9452" lon="7.41452">
        <ele>916.75</ele>
        <time>2017-07-30T13:37:11Z</time>
      </trkpt>
      <trkpt lat="43.94522" lon="7.41454">
        <ele>916.27</ele>
        <time>2017-07-30T13:37:39Z</time>
      </trkpt>
      <trkpt lat="43.94518" lon="7.41447">
        <ele>915.31</ele>
        <time>2017-07-30T13:38:01Z</time>
      </trkpt>
      <trkpt lat="43.94511" lon="7.41445">
        <ele>911.95</ele>
        <time>2017-07-30T13:38:13Z</time>
      </trkpt>
      <trkpt lat="43.94504" lon="7.41443">
        <ele>909.06</ele>
        <time>2017-07-30T13:38:24Z</time>
      </trkpt>
      <trkpt lat="43.94497" lon="7.41435">
        <ele>906.18</ele>
        <time>2017-07-30T13:38:37Z</time>
      </trkpt>
      <trkpt lat="43.94491" lon="7.41423">
        <ele>903.3</ele>
        <time>2017-07-30T13:38:54Z</time>
      </trkpt>
      <trkpt lat="43.94489" lon="7.41424">
        <ele>902.82</ele>
        <time>2017-07-30T13:39:10Z</time>
      </trkpt>
      <trkpt lat="43.94489" lon="7.41423">
        <ele>902.82</ele>
        <time>2017-07-30T13:39:27Z</time>
      </trkpt>
      <trkpt lat="43.94488" lon="7.41423">
        <ele>902.82</ele>
        <time>2017-07-30T13:40:00Z</time>
      </trkpt>
      <trkpt lat="43.9449" lon="7.41424">
        <ele>901.85</ele>
        <time>2017-07-30T13:40:34Z</time>
      </trkpt>
      <trkpt lat="43.94483" lon="7.4142">
        <ele>900.41</ele>
        <time>2017-07-30T13:40:53Z</time>
      </trkpt>
      <trkpt lat="43.94475" lon="7.41411">
        <ele>897.53</ele>
        <time>2017-07-30T13:41:07Z</time>
      </trkpt>
      <trkpt lat="43.94466" lon="7.41404">
        <ele>895.12</ele>
        <time>2017-07-30T13:41:20Z</time>
      </trkpt>
      <trkpt lat="43.94456" lon="7.41395">
        <ele>891.76</ele>
        <time>2017-07-30T13:41:34Z</time>
      </trkpt>
      <trkpt lat="43.94449" lon="7.41386">
        <ele>889.36</ele>
        <time>2017-07-30T13:41:48Z</time>
      </trkpt>
      <trkpt lat="43.94446" lon="7.41382">
        <ele>888.4</ele>
        <time>2017-07-30T13:41:53Z</time>
      </trkpt>
      <trkpt lat="43.94437" lon="7.41375">
        <ele>884.55</ele>
        <time>2017-07-30T13:42:06Z</time>
      </trkpt>
      <trkpt lat="43.9443" lon="7.41369">
        <ele>881.19</ele>
        <time>2017-07-30T13:42:21Z</time>
      </trkpt>
      <trkpt lat="43.94427" lon="7.41362">
        <ele>878.78</ele>
        <time>2017-07-30T13:42:34Z</time>
      </trkpt>
      <trkpt lat="43.94421" lon="7.41363">
        <ele>876.86</ele>
        <time>2017-07-30T13:42:50Z</time>
      </trkpt>
      <trkpt lat="43.94421" lon="7.41367">
        <ele>875.9</ele>
        <time>2017-07-30T13:43:02Z</time>
      </trkpt>
      <trkpt lat="43.94419" lon="7.41371">
        <ele>874.46</ele>
        <time>2017-07-30T13:43:24Z</time>
      </trkpt>
      <trkpt lat="43.94417" lon="7.41371">
        <ele>875.9</ele>
        <time>2017-07-30T13:43:43Z</time>
      </trkpt>
      <trkpt lat="43.94418" lon="7.41369">
        <ele>875.9</ele>
        <time>2017-07-30T13:44:00Z</time>
      </trkpt>
      <trkpt lat="43.94417" lon="7.41368">
        <ele>875.9</ele>
        <time>2017-07-30T13:44:32Z</time>
      </trkpt>
      <trkpt lat="43.94417" lon="7.41368">
        <ele>874.46</ele>
        <time>2017-07-30T13:44:34Z</time>
      </trkpt>
      <trkpt lat="43.94417" lon="7.41369">
        <ele>875.9</ele>
        <time>2017-07-30T13:44:41Z</time>
      </trkpt>
      <trkpt lat="43.94419" lon="7.41371">
        <ele>875.9</ele>
        <time>2017-07-30T13:45:00Z</time>
      </trkpt>
      <trkpt lat="43.9442" lon="7.41369">
        <ele>875.9</ele>
        <time>2017-07-30T13:45:25Z</time>
      </trkpt>
      <trkpt lat="43.94419" lon="7.41367">
        <ele>877.82</ele>
        <time>2017-07-30T13:45:43Z</time>
      </trkpt>
      <trkpt lat="43.94417" lon="7.41366">
        <ele>873.98</ele>
        <time>2017-07-30T13:45:54Z</time>
      </trkpt>
      <trkpt lat="43.94411" lon="7.41369">
        <ele>871.57</ele>
        <time>2017-07-30T13:46:07Z</time>
      </trkpt>
      <trkpt lat="43.94406" lon="7.41372">
        <ele>870.13</ele>
        <time>2017-07-30T13:46:20Z</time>
      </trkpt>
      <trkpt lat="43.94404" lon="7.41374">
        <ele>868.69</ele>
        <time>2017-07-30T13:46:34Z</time>
      </trkpt>
      <trkpt lat="43.944" lon="7.41378">
        <ele>868.21</ele>
        <time>2017-07-30T13:46:46Z</time>
      </trkpt>
      <trkpt lat="43.94392" lon="7.41382">
        <ele>864.84</ele>
        <time>2017-07-30T13:46:59Z</time>
      </trkpt>
      <trkpt lat="43.94385" lon="7.41389">
        <ele>862.92</ele>
        <time>2017-07-30T13:47:12Z</time>
      </trkpt>
      <trkpt lat="43.94379" lon="7.41393">
        <ele>861.48</ele>
        <time>2017-07-30T13:47:24Z</time>
      </trkpt>
      <trkpt lat="43.94368" lon="7.41402">
        <ele>858.11</ele>
        <time>2017-07-30T13:47:39Z</time>
      </trkpt>
      <trkpt lat="43.94355" lon="7.41408">
        <ele>855.23</ele>
        <time>2017-07-30T13:47:55Z</time>
      </trkpt>
      <trkpt lat="43.94341" lon="7.41413">
        <ele>852.35</ele>
        <time>2017-07-30T13:48:13Z</time>
      </trkpt>
      <trkpt lat="43.9433" lon="7.41413">
        <ele>850.9</ele>
        <time>2017-07-30T13:48:25Z</time>
      </trkpt>
      <trkpt lat="43.94316" lon="7.41407">
        <ele>848.02</ele>
        <time>2017-07-30T13:48:40Z</time>
      </trkpt>
      <trkpt lat="43.94298" lon="7.41404">
        <ele>845.14</ele>
        <time>2017-07-30T13:48:58Z</time>
      </trkpt>
      <trkpt lat="43.9428" lon="7.41395">
        <ele>842.73</ele>
        <time>2017-07-30T13:49:17Z</time>
      </trkpt>
      <trkpt lat="43.94274" lon="7.41391">
        <ele>841.77</ele>
        <time>2017-07-30T13:49:24Z</time>
      </trkpt>
      <trkpt lat="43.94257" lon="7.41374">
        <ele>840.33</ele>
        <time>2017-07-30T13:49:44Z</time>
      </trkpt>
      <trkpt lat="43.94247" lon="7.41361">
        <ele>839.37</ele>
        <time>2017-07-30T13:49:57Z</time>
      </trkpt>
      <trkpt lat="43.94236" lon="7.41341">
        <ele>838.41</ele>
        <time>2017-07-30T13:50:16Z</time>
      </trkpt>
      <trkpt lat="43.94226" lon="7.41314">
        <ele>837.93</ele>
        <time>2017-07-30T13:50:37Z</time>
      </trkpt>
      <trkpt lat="43.94225" lon="7.41308">
        <ele>837.93</ele>
        <time>2017-07-30T13:50:41Z</time>
      </trkpt>
      <trkpt lat="43.94224" lon="7.41301">
        <ele>837.45</ele>
        <time>2017-07-30T13:50:46Z</time>
      </trkpt>
      <trkpt lat="43.94225" lon="7.41275">
        <ele>836.48</ele>
        <time>2017-07-30T13:51:03Z</time>
      </trkpt>
      <trkpt lat="43.9422" lon="7.41256">
        <ele>835.52</ele>
        <time>2017-07-30T13:51:18Z</time>
      </trkpt>
      <trkpt lat="43.94213" lon="7.41255">
        <ele>835.04</ele>
        <time>2017-07-30T13:51:24Z</time>
      </trkpt>
      <trkpt lat="43.94197" lon="7.41263">
        <ele>835.04</ele>
        <time>2017-07-30T13:51:41Z</time>
      </trkpt>
      <trkpt lat="43.94195" lon="7.41265">
        <ele>834.08</ele>
        <time>2017-07-30T13:52:07Z</time>
      </trkpt>
      <trkpt lat="43.94196" lon="7.41262">
        <ele>834.56</ele>
        <time>2017-07-30T13:52:32Z</time>
      </trkpt>
      <trkpt lat="43.94197" lon="7.4126">
        <ele>834.56</ele>
        <time>2017-07-30T13:53:00Z</time>
      </trkpt>
      <trkpt lat="43.94198" lon="7.41258">
        <ele>834.56</ele>
        <time>2017-07-30T13:53:24Z</time>
      </trkpt>
      <trkpt lat="43.94198" lon="7.41257">
        <ele>834.56</ele>
        <time>2017-07-30T13:53:48Z</time>
      </trkpt>
      <trkpt lat="43.94199" lon="7.4126">
        <ele>834.56</ele>
        <time>2017-07-30T13:54:18Z</time>
      </trkpt>
      <trkpt lat="43.94198" lon="7.41259">
        <ele>834.08</ele>
        <time>2017-07-30T13:54:53Z</time>
      </trkpt>
      <trkpt lat="43.94199" lon="7.4126">
        <ele>834.08</ele>
        <time>2017-07-30T13:55:23Z</time>
      </trkpt>
      <trkpt lat="43.94198" lon="7.4126">
        <ele>830.72</ele>
        <time>2017-07-30T13:55:24Z</time>
      </trkpt>
      <trkpt lat="43.94198" lon="7.41261">
        <ele>835.04</ele>
        <time>2017-07-30T13:55:25Z</time>
      </trkpt>
      <trkpt lat="43.94199" lon="7.41272">
        <ele>833.12</ele>
        <time>2017-07-30T13:55:39Z</time>
      </trkpt>
      <trkpt lat="43.94199" lon="7.41272">
        <ele>833.12</ele>
        <time>2017-07-30T13:55:40Z</time>
      </trkpt>
      <trkpt lat="43.94197" lon="7.4127">
        <ele>830.72</ele>
        <time>2017-07-30T13:55:58Z</time>
      </trkpt>
      <trkpt lat="43.94195" lon="7.41263">
        <ele>827.83</ele>
        <time>2017-07-30T13:56:10Z</time>
      </trkpt>
      <trkpt lat="43.94193" lon="7.41261">
        <ele>826.87</ele>
        <time>2017-07-30T13:56:28Z</time>
      </trkpt>
      <trkpt lat="43.9419" lon="7.41248">
        <ele>824.95</ele>
        <time>2017-07-30T13:56:42Z</time>
      </trkpt>
      <trkpt lat="43.94187" lon="7.41233">
        <ele>822.06</ele>
        <time>2017-07-30T13:56:58Z</time>
      </trkpt>
      <trkpt lat="43.94176" lon="7.41225">
        <ele>818.7</ele>
        <time>2017-07-30T13:57:15Z</time>
      </trkpt>
      <trkpt lat="43.94173" lon="7.41221">
        <ele>816.78</ele>
        <time>2017-07-30T13:57:28Z</time>
      </trkpt>
      <trkpt lat="43.94166" lon="7.41223">
        <ele>813.41</ele>
        <time>2017-07-30T13:57:45Z</time>
      </trkpt>
      <trkpt lat="43.94164" lon="7.41222">
        <ele>812.93</ele>
        <time>2017-07-30T13:58:02Z</time>
      </trkpt>
      <trkpt lat="43.9416" lon="7.41227">
        <ele>811.01</ele>
        <time>2017-07-30T13:58:20Z</time>
      </trkpt>
      <trkpt lat="43.9416" lon="7.4122">
        <ele>810.53</ele>
        <time>2017-07-30T13:58:36Z</time>
      </trkpt>
      <trkpt lat="43.94162" lon="7.41216">
        <ele>810.53</ele>
        <time>2017-07-30T13:59:02Z</time>
      </trkpt>
      <trkpt lat="43.94159" lon="7.41207">
        <ele>810.05</ele>
        <time>2017-07-30T13:59:20Z</time>
      </trkpt>
      <trkpt lat="43.94155" lon="7.41199">
        <ele>811.97</ele>
        <time>2017-07-30T13:59:39Z</time>
      </trkpt>
      <trkpt lat="43.94154" lon="7.41199">
        <ele>811.49</ele>
        <time>2017-07-30T13:59:56Z</time>
      </trkpt>
      <trkpt lat="43.94154" lon="7.41202">
        <ele>811.49</ele>
        <time>2017-07-30T14:00:12Z</time>
      </trkpt>
      <trkpt lat="43.9415" lon="7.41201">
        <ele>811.49</ele>
        <time>2017-07-30T14:00:28Z</time>
      </trkpt>
      <trkpt lat="43.94142" lon="7.41207">
        <ele>808.61</ele>
        <time>2017-07-30T14:00:43Z</time>
      </trkpt>
      <trkpt lat="43.94138" lon="7.4121">
        <ele>806.2</ele>
        <time>2017-07-30T14:01:04Z</time>
      </trkpt>
      <trkpt lat="43.94133" lon="7.41214">
        <ele>805.24</ele>
        <time>2017-07-30T14:01:19Z</time>
      </trkpt>
      <trkpt lat="43.94126" lon="7.41214">
        <ele>803.32</ele>
        <time>2017-07-30T14:01:35Z</time>
      </trkpt>
      <trkpt lat="43.94126" lon="7.41214">
        <ele>802.84</ele>
        <time>2017-07-30T14:01:57Z</time>
      </trkpt>
      <trkpt lat="43.94125" lon="7.41215">
        <ele>802.84</ele>
        <time>2017-07-30T14:02:18Z</time>
      </trkpt>
      <trkpt lat="43.94116" lon="7.41218">
        <ele>800.44</ele>
        <time>2017-07-30T14:02:33Z</time>
      </trkpt>
      <trkpt lat="43.9411" lon="7.41226">
        <ele>799.95</ele>
        <time>2017-07-30T14:02:48Z</time>
      </trkpt>
      <trkpt lat="43.94111" lon="7.41238">
        <ele>799.47</ele>
        <time>2017-07-30T14:03:03Z</time>
      </trkpt>
      <trkpt lat="43.94108" lon="7.4125">
        <ele>800.44</ele>
        <time>2017-07-30T14:03:17Z</time>
      </trkpt>
      <trkpt lat="43.94109" lon="7.41257">
        <ele>800.92</ele>
        <time>2017-07-30T14:03:28Z</time>
      </trkpt>
      <trkpt lat="43.94109" lon="7.41261">
        <ele>801.4</ele>
        <time>2017-07-30T14:03:42Z</time>
      </trkpt>
      <trkpt lat="43.94101" lon="7.41261">
        <ele>799.95</ele>
        <time>2017-07-30T14:03:56Z</time>
      </trkpt>
      <trkpt lat="43.9409" lon="7.41265">
        <ele>799.47</ele>
        <time>2017-07-30T14:04:12Z</time>
      </trkpt>
      <trkpt lat="43.94077" lon="7.4127">
        <ele>797.55</ele>
        <time>2017-07-30T14:04:29Z</time>
      </trkpt>
      <trkpt lat="43.94075" lon="7.41278">
        <ele>797.55</ele>
        <time>2017-07-30T14:04:47Z</time>
      </trkpt>
      <trkpt lat="43.94075" lon="7.41286">
        <ele>797.55</ele>
        <time>2017-07-30T14:05:01Z</time>
      </trkpt>
      <trkpt lat="43.94074" lon="7.41298">
        <ele>797.07</ele>
        <time>2017-07-30T14:05:20Z</time>
      </trkpt>
      <trkpt lat="43.94075" lon="7.41297">
        <ele>797.07</ele>
        <time>2017-07-30T14:05:33Z</time>
      </trkpt>
      <trkpt lat="43.9408" lon="7.41303">
        <ele>798.03</ele>
        <time>2017-07-30T14:05:51Z</time>
      </trkpt>
      <trkpt lat="43.94084" lon="7.41313">
        <ele>796.59</ele>
        <time>2017-07-30T14:06:02Z</time>
      </trkpt>
      <trkpt lat="43.94089" lon="7.41323">
        <ele>796.59</ele>
        <time>2017-07-30T14:06:17Z</time>
      </trkpt>
      <trkpt lat="43.94094" lon="7.41336">
        <ele>796.11</ele>
        <time>2017-07-30T14:06:34Z</time>
      </trkpt>
      <trkpt lat="43.94096" lon="7.4134">
        <ele>796.11</ele>
        <time>2017-07-30T14:06:52Z</time>
      </trkpt>
      <trkpt lat="43.94096" lon="7.41339">
        <ele>795.63</ele>
        <time>2017-07-30T14:07:19Z</time>
      </trkpt>
      <trkpt lat="43.94097" lon="7.41337">
        <ele>795.15</ele>
        <time>2017-07-30T14:07:49Z</time>
      </trkpt>
      <trkpt lat="43.94101" lon="7.41336">
        <ele>795.15</ele>
        <time>2017-07-30T14:08:15Z</time>
      </trkpt>
      <trkpt lat="43.94095" lon="7.41331">
        <ele>795.15</ele>
        <time>2017-07-30T14:08:52Z</time>
      </trkpt>
      <trkpt lat="43.94096" lon="7.41332">
        <ele>795.15</ele>
        <time>2017-07-30T14:09:29Z</time>
      </trkpt>
      <trkpt lat="43.94096" lon="7.4133">
        <ele>795.15</ele>
        <time>2017-07-30T14:09:48Z</time>
      </trkpt>
      <trkpt lat="43.94095" lon="7.41336">
        <ele>795.15</ele>
        <time>2017-07-30T14:10:11Z</time>
      </trkpt>
      <trkpt lat="43.94096" lon="7.41334">
        <ele>795.15</ele>
        <time>2017-07-30T14:10:43Z</time>
      </trkpt>
      <trkpt lat="43.94098" lon="7.41334">
        <ele>795.15</ele>
        <time>2017-07-30T14:11:12Z</time>
      </trkpt>
      <trkpt lat="43.94097" lon="7.41335">
        <ele>795.15</ele>
        <time>2017-07-30T14:11:46Z</time>
      </trkpt>
      <trkpt lat="43.94093" lon="7.41335">
        <ele>795.15</ele>
        <time>2017-07-30T14:12:11Z</time>
      </trkpt>
      <trkpt lat="43.94093" lon="7.41338">
        <ele>795.15</ele>
        <time>2017-07-30T14:12:37Z</time>
      </trkpt>
      <trkpt lat="43.94097" lon="7.4134">
        <ele>795.15</ele>
        <time>2017-07-30T14:13:15Z</time>
      </trkpt>
      <trkpt lat="43.94098" lon="7.41337">
        <ele>795.15</ele>
        <time>2017-07-30T14:13:42Z</time>
      </trkpt>
      <trkpt lat="43.94094" lon="7.41337">
        <ele>795.15</ele>
        <time>2017-07-30T14:14:12Z</time>
      </trkpt>
      <trkpt lat="43.94096" lon="7.41337">
        <ele>795.15</ele>
        <time>2017-07-30T14:14:41Z</time>
      </trkpt>
      <trkpt lat="43.94097" lon="7.41335">
        <ele>795.15</ele>
        <time>2017-07-30T14:15:08Z</time>
      </trkpt>
      <trkpt lat="43.941" lon="7.41333">
        <ele>795.15</ele>
        <time>2017-07-30T14:15:37Z</time>
      </trkpt>
      <trkpt lat="43.94097" lon="7.41339">
        <ele>795.15</ele>
        <time>2017-07-30T14:16:14Z</time>
      </trkpt>
      <trkpt lat="43.94096" lon="7.41335">
        <ele>795.15</ele>
        <time>2017-07-30T14:16:41Z</time>
      </trkpt>
      <trkpt lat="43.94097" lon="7.41332">
        <ele>795.15</ele>
        <time>2017-07-30T14:17:05Z</time>
      </trkpt>
      <trkpt lat="43.94098" lon="7.41331">
        <ele>795.15</ele>
        <time>2017-07-30T14:17:40Z</time>
      </trkpt>
      <trkpt lat="43.94097" lon="7.41334">
        <ele>796.59</ele>
        <time>2017-07-30T14:18:19Z</time>
      </trkpt>
      <trkpt lat="43.94094" lon="7.41333">
        <ele>796.59</ele>
        <time>2017-07-30T14:18:45Z</time>
      </trkpt>
      <trkpt lat="43.94093" lon="7.41333">
        <ele>796.59</ele>
        <time>2017-07-30T14:19:12Z</time>
      </trkpt>
      <trkpt lat="43.94092" lon="7.41331">
        <ele>796.59</ele>
        <time>2017-07-30T14:19:37Z</time>
      </trkpt>
      <trkpt lat="43.94091" lon="7.41332">
        <ele>796.59</ele>
        <time>2017-07-30T14:20:02Z</time>
      </trkpt>
      <trkpt lat="43.94093" lon="7.4133">
        <ele>796.59</ele>
        <time>2017-07-30T14:20:43Z</time>
      </trkpt>
      <trkpt lat="43.94092" lon="7.41329">
        <ele>796.59</ele>
        <time>2017-07-30T14:21:05Z</time>
      </trkpt>
      <trkpt lat="43.94092" lon="7.41328">
        <ele>796.59</ele>
        <time>2017-07-30T14:21:34Z</time>
      </trkpt>
      <trkpt lat="43.94091" lon="7.4133">
        <ele>797.07</ele>
        <time>2017-07-30T14:22:00Z</time>
      </trkpt>
      <trkpt lat="43.94088" lon="7.41331">
        <ele>797.55</ele>
        <time>2017-07-30T14:22:16Z</time>
      </trkpt>
      <trkpt lat="43.94085" lon="7.41312">
        <ele>797.55</ele>
        <time>2017-07-30T14:22:31Z</time>
      </trkpt>
      <trkpt lat="43.94088" lon="7.4131">
        <ele>798.99</ele>
        <time>2017-07-30T14:22:38Z</time>
      </trkpt>
      <trkpt lat="43.94094" lon="7.41318">
        <ele>798.99</ele>
        <time>2017-07-30T14:22:51Z</time>
      </trkpt>
      <trkpt lat="43.94101" lon="7.41324">
        <ele>799.47</ele>
        <time>2017-07-30T14:23:07Z</time>
      </trkpt>
      <trkpt lat="43.94108" lon="7.41333">
        <ele>799.47</ele>
        <time>2017-07-30T14:23:24Z</time>
      </trkpt>
      <trkpt lat="43.94112" lon="7.41347">
        <ele>799.95</ele>
        <time>2017-07-30T14:23:38Z</time>
      </trkpt>
      <trkpt lat="43.94117" lon="7.41359">
        <ele>800.44</ele>
        <time>2017-07-30T14:23:50Z</time>
      </trkpt>
      <trkpt lat="43.94127" lon="7.41373">
        <ele>800.92</ele>
        <time>2017-07-30T14:24:04Z</time>
      </trkpt>
      <trkpt lat="43.94135" lon="7.41388">
        <ele>801.88</ele>
        <time>2017-07-30T14:24:18Z</time>
      </trkpt>
      <trkpt lat="43.9414" lon="7.414">
        <ele>801.88</ele>
        <time>2017-07-30T14:24:32Z</time>
      </trkpt>
      <trkpt lat="43.94152" lon="7.41415">
        <ele>802.84</ele>
        <time>2017-07-30T14:24:46Z</time>
      </trkpt>
      <trkpt lat="43.94156" lon="7.41424">
        <ele>802.84</ele>
        <time>2017-07-30T14:25:02Z</time>
      </trkpt>
      <trkpt lat="43.94162" lon="7.41436">
        <ele>802.84</ele>
        <time>2017-07-30T14:25:16Z</time>
      </trkpt>
      <trkpt lat="43.94167" lon="7.4145">
        <ele>804.76</ele>
        <time>2017-07-30T14:25:29Z</time>
      </trkpt>
      <trkpt lat="43.94177" lon="7.41468">
        <ele>804.28</ele>
        <time>2017-07-30T14:25:46Z</time>
      </trkpt>
      <trkpt lat="43.94179" lon="7.41471">
        <ele>804.76</ele>
        <time>2017-07-30T14:25:49Z</time>
      </trkpt>
      <trkpt lat="43.9419" lon="7.41487">
        <ele>805.72</ele>
        <time>2017-07-30T14:26:04Z</time>
      </trkpt>
      <trkpt lat="43.94194" lon="7.41493">
        <ele>805.72</ele>
        <time>2017-07-30T14:26:10Z</time>
      </trkpt>
      <trkpt lat="43.94206" lon="7.41517">
        <ele>806.68</ele>
        <time>2017-07-30T14:26:29Z</time>
      </trkpt>
      <trkpt lat="43.94212" lon="7.4153">
        <ele>807.16</ele>
        <time>2017-07-30T14:26:42Z</time>
      </trkpt>
      <trkpt lat="43.94224" lon="7.41543">
        <ele>807.64</ele>
        <time>2017-07-30T14:26:56Z</time>
      </trkpt>
      <trkpt lat="43.94232" lon="7.41559">
        <ele>808.13</ele>
        <time>2017-07-30T14:27:10Z</time>
      </trkpt>
      <trkpt lat="43.94239" lon="7.4157">
        <ele>808.61</ele>
        <time>2017-07-30T14:27:21Z</time>
      </trkpt>
      <trkpt lat="43.94254" lon="7.41588">
        <ele>809.57</ele>
        <time>2017-07-30T14:27:37Z</time>
      </trkpt>
      <trkpt lat="43.94267" lon="7.41605">
        <ele>810.05</ele>
        <time>2017-07-30T14:27:49Z</time>
      </trkpt>
      <trkpt lat="43.94277" lon="7.41622">
        <ele>811.01</ele>
        <time>2017-07-30T14:28:04Z</time>
      </trkpt>
      <trkpt lat="43.94292" lon="7.41622">
        <ele>811.49</ele>
        <time>2017-07-30T14:28:17Z</time>
      </trkpt>
      <trkpt lat="43.94298" lon="7.41618">
        <ele>811.97</ele>
        <time>2017-07-30T14:28:23Z</time>
      </trkpt>
      <trkpt lat="43.943" lon="7.41609">
        <ele>812.45</ele>
        <time>2017-07-30T14:28:32Z</time>
      </trkpt>
      <trkpt lat="43.94297" lon="7.41584">
        <ele>814.37</ele>
        <time>2017-07-30T14:28:50Z</time>
      </trkpt>
      <trkpt lat="43.94294" lon="7.41564">
        <ele>815.34</ele>
        <time>2017-07-30T14:29:06Z</time>
      </trkpt>
      <trkpt lat="43.94292" lon="7.41546">
        <ele>816.78</ele>
        <time>2017-07-30T14:29:19Z</time>
      </trkpt>
      <trkpt lat="43.94291" lon="7.41526">
        <ele>817.26</ele>
        <time>2017-07-30T14:29:34Z</time>
      </trkpt>
      <trkpt lat="43.94286" lon="7.41504">
        <ele>819.18</ele>
        <time>2017-07-30T14:29:50Z</time>
      </trkpt>
      <trkpt lat="43.9428" lon="7.41493">
        <ele>819.66</ele>
        <time>2017-07-30T14:30:03Z</time>
      </trkpt>
      <trkpt lat="43.94273" lon="7.41476">
        <ele>820.62</ele>
        <time>2017-07-30T14:30:19Z</time>
      </trkpt>
      <trkpt lat="43.94266" lon="7.41468">
        <ele>820.62</ele>
        <time>2017-07-30T14:30:32Z</time>
      </trkpt>
      <trkpt lat="43.94253" lon="7.41449">
        <ele>821.58</ele>
        <time>2017-07-30T14:30:51Z</time>
      </trkpt>
      <trkpt lat="43.94248" lon="7.41443">
        <ele>821.58</ele>
        <time>2017-07-30T14:31:12Z</time>
      </trkpt>
      <trkpt lat="43.94242" lon="7.41436">
        <ele>822.06</ele>
        <time>2017-07-30T14:31:20Z</time>
      </trkpt>
      <trkpt lat="43.94234" lon="7.41415">
        <ele>822.06</ele>
        <time>2017-07-30T14:31:38Z</time>
      </trkpt>
      <trkpt lat="43.9424" lon="7.41405">
        <ele>822.55</ele>
        <time>2017-07-30T14:31:53Z</time>
      </trkpt>
      <trkpt lat="43.94244" lon="7.41407">
        <ele>822.55</ele>
        <time>2017-07-30T14:31:58Z</time>
      </trkpt>
      <trkpt lat="43.94254" lon="7.41426">
        <ele>823.03</ele>
        <time>2017-07-30T14:32:14Z</time>
      </trkpt>
      <trkpt lat="43.94263" lon="7.41443">
        <ele>823.99</ele>
        <time>2017-07-30T14:32:30Z</time>
      </trkpt>
      <trkpt lat="43.94276" lon="7.41462">
        <ele>823.99</ele>
        <time>2017-07-30T14:32:49Z</time>
      </trkpt>
      <trkpt lat="43.94288" lon="7.41482">
        <ele>824.95</ele>
        <time>2017-07-30T14:33:05Z</time>
      </trkpt>
      <trkpt lat="43.94301" lon="7.415">
        <ele>825.43</ele>
        <time>2017-07-30T14:33:22Z</time>
      </trkpt>
      <trkpt lat="43.9431" lon="7.41522">
        <ele>824.95</ele>
        <time>2017-07-30T14:33:39Z</time>
      </trkpt>
      <trkpt lat="43.94317" lon="7.4155">
        <ele>825.43</ele>
        <time>2017-07-30T14:33:58Z</time>
      </trkpt>
      <trkpt lat="43.94322" lon="7.41576">
        <ele>825.43</ele>
        <time>2017-07-30T14:34:15Z</time>
      </trkpt>
      <trkpt lat="43.94322" lon="7.41579">
        <ele>825.43</ele>
        <time>2017-07-30T14:34:17Z</time>
      </trkpt>
      <trkpt lat="43.94324" lon="7.41585">
        <ele>825.91</ele>
        <time>2017-07-30T14:34:21Z</time>
      </trkpt>
      <trkpt lat="43.94327" lon="7.41606">
        <ele>825.91</ele>
        <time>2017-07-30T14:34:34Z</time>
      </trkpt>
      <trkpt lat="43.94329" lon="7.41633">
        <ele>825.91</ele>
        <time>2017-07-30T14:34:51Z</time>
      </trkpt>
      <trkpt lat="43.94333" lon="7.41651">
        <ele>826.39</ele>
        <time>2017-07-30T14:35:08Z</time>
      </trkpt>
      <trkpt lat="43.94334" lon="7.41651">
        <ele>826.39</ele>
        <time>2017-07-30T14:35:31Z</time>
      </trkpt>
      <trkpt lat="43.94338" lon="7.41652">
        <ele>826.39</ele>
        <time>2017-07-30T14:35:46Z</time>
      </trkpt>
      <trkpt lat="43.94338" lon="7.41642">
        <ele>829.76</ele>
        <time>2017-07-30T14:36:01Z</time>
      </trkpt>
      <trkpt lat="43.94341" lon="7.41644">
        <ele>831.2</ele>
        <time>2017-07-30T14:36:18Z</time>
      </trkpt>
      <trkpt lat="43.94343" lon="7.41646">
        <ele>833.12</ele>
        <time>2017-07-30T14:36:31Z</time>
      </trkpt>
      <trkpt lat="43.94345" lon="7.41641">
        <ele>834.56</ele>
        <time>2017-07-30T14:36:48Z</time>
      </trkpt>
      <trkpt lat="43.94345" lon="7.41649">
        <ele>835.52</ele>
        <time>2017-07-30T14:37:03Z</time>
      </trkpt>
      <trkpt lat="43.94348" lon="7.41656">
        <ele>836</ele>
        <time>2017-07-30T14:37:16Z</time>
      </trkpt>
      <trkpt lat="43.94343" lon="7.41651">
        <ele>836</ele>
        <time>2017-07-30T14:37:39Z</time>
      </trkpt>
    </trkseg>
  </trk>
</gpx>